<?xml version="1.0" encoding="UTF-8" standalone="no" ?>
<gpx xmlns="http://www.topografix.com/GPX/1/1" xmlns:xsi="http://www.w3.org/2001/XMLSchema-instance" xsi:schemaLocation="http://www.topografix.com/GPX/1/1 http://www.topografix.com/GPX/1/1/gpx.xsd" version="1.1" creator="VisuGPX - https://www.visugpx.com">
  <metadata>
    <name>Boucle locale </name>
  </metadata>
  <trk>
    <name><![CDATA[Enregistré le 9 août 2022 17:07:30]]></name>
    <trkseg>
      <trkpt lat="45.83448" lon="4.70619">
        <ele>303.4982</ele>
        <time>2022-08-09T15:03:28.000Z</time>
      </trkpt>
      <trkpt lat="45.83444" lon="4.70618">
        <ele>303.54899</ele>
        <time>2022-08-09T15:03:29.000Z</time>
      </trkpt>
      <trkpt lat="45.83442" lon="4.70616">
        <ele>303.53706</ele>
        <time>2022-08-09T15:03:30.000Z</time>
      </trkpt>
      <trkpt lat="45.83447" lon="4.70617">
        <ele>303.48793</ele>
        <time>2022-08-09T15:03:31.000Z</time>
      </trkpt>
      <trkpt lat="45.83444" lon="4.70618">
        <ele>303.56693</ele>
        <time>2022-08-09T15:03:32.000Z</time>
      </trkpt>
      <trkpt lat="45.83442" lon="4.70623">
        <ele>303.7461</ele>
        <time>2022-08-09T15:03:33.000Z</time>
      </trkpt>
      <trkpt lat="45.83442" lon="4.70629">
        <ele>303.93437</ele>
        <time>2022-08-09T15:03:34.000Z</time>
      </trkpt>
      <trkpt lat="45.8344" lon="4.70628">
        <ele>303.96018</ele>
        <time>2022-08-09T15:03:35.000Z</time>
      </trkpt>
      <trkpt lat="45.83442" lon="4.70623">
        <ele>303.75028</ele>
        <time>2022-08-09T15:03:37.000Z</time>
      </trkpt>
      <trkpt lat="45.83442" lon="4.7062">
        <ele>303.66549</ele>
        <time>2022-08-09T15:03:38.000Z</time>
      </trkpt>
      <trkpt lat="45.83442" lon="4.70618">
        <ele>303.58363</ele>
        <time>2022-08-09T15:03:59.000Z</time>
      </trkpt>
      <trkpt lat="45.83442" lon="4.70621">
        <ele>303.68821</ele>
        <time>2022-08-09T15:04:03.000Z</time>
      </trkpt>
      <trkpt lat="45.83445" lon="4.70621">
        <ele>303.63175</ele>
        <time>2022-08-09T15:04:05.000Z</time>
      </trkpt>
      <trkpt lat="45.83448" lon="4.70622">
        <ele>303.57411</ele>
        <time>2022-08-09T15:04:06.000Z</time>
      </trkpt>
      <trkpt lat="45.83451" lon="4.70621">
        <ele>303.47406</ele>
        <time>2022-08-09T15:04:07.000Z</time>
      </trkpt>
      <trkpt lat="45.83454" lon="4.7062">
        <ele>303.3696</ele>
        <time>2022-08-09T15:04:08.000Z</time>
      </trkpt>
      <trkpt lat="45.83461" lon="4.70622">
        <ele>303.14309</ele>
        <time>2022-08-09T15:04:10.000Z</time>
      </trkpt>
      <trkpt lat="45.83465" lon="4.70621">
        <ele>302.9566</ele>
        <time>2022-08-09T15:04:11.000Z</time>
      </trkpt>
      <trkpt lat="45.83468" lon="4.70621">
        <ele>302.80746</ele>
        <time>2022-08-09T15:04:12.000Z</time>
      </trkpt>
      <trkpt lat="45.83471" lon="4.70621">
        <ele>302.6496</ele>
        <time>2022-08-09T15:04:13.000Z</time>
      </trkpt>
      <trkpt lat="45.83475" lon="4.70621">
        <ele>302.45461</ele>
        <time>2022-08-09T15:04:14.000Z</time>
      </trkpt>
      <trkpt lat="45.83479" lon="4.7062">
        <ele>302.21344</ele>
        <time>2022-08-09T15:04:15.000Z</time>
      </trkpt>
      <trkpt lat="45.83483" lon="4.7062">
        <ele>301.92823</ele>
        <time>2022-08-09T15:04:16.000Z</time>
      </trkpt>
      <trkpt lat="45.83488" lon="4.70621">
        <ele>301.58131</ele>
        <time>2022-08-09T15:04:17.000Z</time>
      </trkpt>
      <trkpt lat="45.83492" lon="4.70621">
        <ele>301.29201</ele>
        <time>2022-08-09T15:04:18.000Z</time>
      </trkpt>
      <trkpt lat="45.83496" lon="4.7062">
        <ele>301.02599</ele>
        <time>2022-08-09T15:04:19.000Z</time>
      </trkpt>
      <trkpt lat="45.835" lon="4.70618">
        <ele>300.70893</ele>
        <time>2022-08-09T15:04:20.000Z</time>
      </trkpt>
      <trkpt lat="45.83504" lon="4.70617">
        <ele>300.38834</ele>
        <time>2022-08-09T15:04:21.000Z</time>
      </trkpt>
      <trkpt lat="45.83507" lon="4.70613">
        <ele>300.04949</ele>
        <time>2022-08-09T15:04:22.000Z</time>
      </trkpt>
      <trkpt lat="45.8351" lon="4.70608">
        <ele>299.76471</ele>
        <time>2022-08-09T15:04:23.000Z</time>
      </trkpt>
      <trkpt lat="45.83515" lon="4.70608">
        <ele>299.43466</ele>
        <time>2022-08-09T15:04:24.000Z</time>
      </trkpt>
      <trkpt lat="45.83521" lon="4.70608">
        <ele>299.20953</ele>
        <time>2022-08-09T15:04:25.000Z</time>
      </trkpt>
      <trkpt lat="45.83526" lon="4.70611">
        <ele>299.15933</ele>
        <time>2022-08-09T15:04:26.000Z</time>
      </trkpt>
      <trkpt lat="45.83532" lon="4.70612">
        <ele>299.12027</ele>
        <time>2022-08-09T15:04:27.000Z</time>
      </trkpt>
      <trkpt lat="45.83538" lon="4.70612">
        <ele>299.06721</ele>
        <time>2022-08-09T15:04:28.000Z</time>
      </trkpt>
      <trkpt lat="45.83542" lon="4.70611">
        <ele>298.96014</ele>
        <time>2022-08-09T15:04:29.000Z</time>
      </trkpt>
      <trkpt lat="45.83547" lon="4.70609">
        <ele>298.86877</ele>
        <time>2022-08-09T15:04:30.000Z</time>
      </trkpt>
      <trkpt lat="45.83553" lon="4.70609">
        <ele>298.84253</ele>
        <time>2022-08-09T15:04:31.000Z</time>
      </trkpt>
      <trkpt lat="45.83559" lon="4.70609">
        <ele>298.78063</ele>
        <time>2022-08-09T15:04:32.000Z</time>
      </trkpt>
      <trkpt lat="45.83565" lon="4.70609">
        <ele>298.65421</ele>
        <time>2022-08-09T15:04:33.000Z</time>
      </trkpt>
      <trkpt lat="45.8357" lon="4.7061">
        <ele>298.51851</ele>
        <time>2022-08-09T15:04:34.000Z</time>
      </trkpt>
      <trkpt lat="45.83575" lon="4.70611">
        <ele>298.36886</ele>
        <time>2022-08-09T15:04:35.000Z</time>
      </trkpt>
      <trkpt lat="45.83581" lon="4.70614">
        <ele>298.21474</ele>
        <time>2022-08-09T15:04:36.000Z</time>
      </trkpt>
      <trkpt lat="45.83588" lon="4.70618">
        <ele>298.12708</ele>
        <time>2022-08-09T15:04:37.000Z</time>
      </trkpt>
      <trkpt lat="45.83593" lon="4.7062">
        <ele>298.06017</ele>
        <time>2022-08-09T15:04:38.000Z</time>
      </trkpt>
      <trkpt lat="45.83598" lon="4.70622">
        <ele>298.00225</ele>
        <time>2022-08-09T15:04:39.000Z</time>
      </trkpt>
      <trkpt lat="45.83602" lon="4.70624">
        <ele>297.92688</ele>
        <time>2022-08-09T15:04:40.000Z</time>
      </trkpt>
      <trkpt lat="45.83607" lon="4.70626">
        <ele>297.83141</ele>
        <time>2022-08-09T15:04:41.000Z</time>
      </trkpt>
      <trkpt lat="45.83611" lon="4.70628">
        <ele>297.73284</ele>
        <time>2022-08-09T15:04:42.000Z</time>
      </trkpt>
      <trkpt lat="45.83617" lon="4.70627">
        <ele>297.57322</ele>
        <time>2022-08-09T15:04:43.000Z</time>
      </trkpt>
      <trkpt lat="45.83621" lon="4.70625">
        <ele>297.41183</ele>
        <time>2022-08-09T15:04:44.000Z</time>
      </trkpt>
      <trkpt lat="45.83626" lon="4.70622">
        <ele>297.20078</ele>
        <time>2022-08-09T15:04:45.000Z</time>
      </trkpt>
      <trkpt lat="45.83633" lon="4.70621">
        <ele>297.06276</ele>
        <time>2022-08-09T15:04:46.000Z</time>
      </trkpt>
      <trkpt lat="45.8364" lon="4.70617">
        <ele>296.92337</ele>
        <time>2022-08-09T15:04:47.000Z</time>
      </trkpt>
      <trkpt lat="45.83645" lon="4.70614">
        <ele>296.79886</ele>
        <time>2022-08-09T15:04:48.000Z</time>
      </trkpt>
      <trkpt lat="45.83655" lon="4.70608">
        <ele>296.56223</ele>
        <time>2022-08-09T15:04:50.000Z</time>
      </trkpt>
      <trkpt lat="45.83662" lon="4.70605">
        <ele>296.43296</ele>
        <time>2022-08-09T15:04:51.000Z</time>
      </trkpt>
      <trkpt lat="45.83668" lon="4.70602">
        <ele>296.30697</ele>
        <time>2022-08-09T15:04:52.000Z</time>
      </trkpt>
      <trkpt lat="45.83674" lon="4.70599">
        <ele>296.1328</ele>
        <time>2022-08-09T15:04:53.000Z</time>
      </trkpt>
      <trkpt lat="45.83679" lon="4.70597">
        <ele>295.93589</ele>
        <time>2022-08-09T15:04:54.000Z</time>
      </trkpt>
      <trkpt lat="45.83685" lon="4.70596">
        <ele>295.74808</ele>
        <time>2022-08-09T15:04:55.000Z</time>
      </trkpt>
      <trkpt lat="45.83692" lon="4.70595">
        <ele>295.52788</ele>
        <time>2022-08-09T15:04:56.000Z</time>
      </trkpt>
      <trkpt lat="45.83698" lon="4.70594">
        <ele>295.38999</ele>
        <time>2022-08-09T15:04:57.000Z</time>
      </trkpt>
      <trkpt lat="45.83704" lon="4.70594">
        <ele>295.31528</ele>
        <time>2022-08-09T15:04:58.000Z</time>
      </trkpt>
      <trkpt lat="45.83711" lon="4.70593">
        <ele>295.29008</ele>
        <time>2022-08-09T15:04:59.000Z</time>
      </trkpt>
      <trkpt lat="45.83719" lon="4.70593">
        <ele>295.26363</ele>
        <time>2022-08-09T15:05:00.000Z</time>
      </trkpt>
      <trkpt lat="45.83731" lon="4.70593">
        <ele>295.08166</ele>
        <time>2022-08-09T15:05:02.000Z</time>
      </trkpt>
      <trkpt lat="45.83737" lon="4.7059">
        <ele>294.84866</ele>
        <time>2022-08-09T15:05:03.000Z</time>
      </trkpt>
      <trkpt lat="45.83742" lon="4.70588">
        <ele>294.53257</ele>
        <time>2022-08-09T15:05:04.000Z</time>
      </trkpt>
      <trkpt lat="45.83747" lon="4.70583">
        <ele>294.04075</ele>
        <time>2022-08-09T15:05:05.000Z</time>
      </trkpt>
      <trkpt lat="45.83753" lon="4.70582">
        <ele>293.51209</ele>
        <time>2022-08-09T15:05:06.000Z</time>
      </trkpt>
      <trkpt lat="45.83759" lon="4.70579">
        <ele>293.00716</ele>
        <time>2022-08-09T15:05:07.000Z</time>
      </trkpt>
      <trkpt lat="45.83764" lon="4.70577">
        <ele>292.5862</ele>
        <time>2022-08-09T15:05:08.000Z</time>
      </trkpt>
      <trkpt lat="45.83774" lon="4.7057">
        <ele>292.04318</ele>
        <time>2022-08-09T15:05:10.000Z</time>
      </trkpt>
      <trkpt lat="45.8378" lon="4.70566">
        <ele>291.78436</ele>
        <time>2022-08-09T15:05:11.000Z</time>
      </trkpt>
      <trkpt lat="45.83785" lon="4.70561">
        <ele>291.46116</ele>
        <time>2022-08-09T15:05:12.000Z</time>
      </trkpt>
      <trkpt lat="45.83791" lon="4.70556">
        <ele>291.13051</ele>
        <time>2022-08-09T15:05:13.000Z</time>
      </trkpt>
      <trkpt lat="45.83798" lon="4.70553">
        <ele>290.86754</ele>
        <time>2022-08-09T15:05:14.000Z</time>
      </trkpt>
      <trkpt lat="45.83802" lon="4.70546">
        <ele>290.55981</ele>
        <time>2022-08-09T15:05:15.000Z</time>
      </trkpt>
      <trkpt lat="45.83807" lon="4.7054">
        <ele>290.28503</ele>
        <time>2022-08-09T15:05:16.000Z</time>
      </trkpt>
      <trkpt lat="45.83816" lon="4.70542">
        <ele>290.08915</ele>
        <time>2022-08-09T15:05:17.000Z</time>
      </trkpt>
      <trkpt lat="45.83821" lon="4.70538">
        <ele>289.83601</ele>
        <time>2022-08-09T15:05:18.000Z</time>
      </trkpt>
      <trkpt lat="45.83826" lon="4.70533">
        <ele>289.56312</ele>
        <time>2022-08-09T15:05:19.000Z</time>
      </trkpt>
      <trkpt lat="45.83831" lon="4.70527">
        <ele>289.31418</ele>
        <time>2022-08-09T15:05:20.000Z</time>
      </trkpt>
      <trkpt lat="45.8384" lon="4.70519">
        <ele>288.99828</ele>
        <time>2022-08-09T15:05:22.000Z</time>
      </trkpt>
      <trkpt lat="45.83844" lon="4.70515">
        <ele>288.90182</ele>
        <time>2022-08-09T15:05:23.000Z</time>
      </trkpt>
      <trkpt lat="45.83849" lon="4.70511">
        <ele>288.82493</ele>
        <time>2022-08-09T15:05:24.000Z</time>
      </trkpt>
      <trkpt lat="45.83853" lon="4.70509">
        <ele>288.76709</ele>
        <time>2022-08-09T15:05:25.000Z</time>
      </trkpt>
      <trkpt lat="45.83855" lon="4.70504">
        <ele>288.70342</ele>
        <time>2022-08-09T15:05:26.000Z</time>
      </trkpt>
      <trkpt lat="45.83859" lon="4.70502">
        <ele>288.63421</ele>
        <time>2022-08-09T15:05:27.000Z</time>
      </trkpt>
      <trkpt lat="45.83859" lon="4.70498">
        <ele>288.59582</ele>
        <time>2022-08-09T15:05:28.000Z</time>
      </trkpt>
      <trkpt lat="45.83859" lon="4.70495">
        <ele>288.56685</ele>
        <time>2022-08-09T15:05:29.000Z</time>
      </trkpt>
      <trkpt lat="45.83857" lon="4.70487">
        <ele>288.51584</ele>
        <time>2022-08-09T15:05:31.000Z</time>
      </trkpt>
      <trkpt lat="45.83856" lon="4.70483">
        <ele>288.48558</ele>
        <time>2022-08-09T15:05:32.000Z</time>
      </trkpt>
      <trkpt lat="45.83855" lon="4.70477">
        <ele>288.42701</ele>
        <time>2022-08-09T15:05:33.000Z</time>
      </trkpt>
      <trkpt lat="45.83856" lon="4.70472">
        <ele>288.35806</ele>
        <time>2022-08-09T15:05:34.000Z</time>
      </trkpt>
      <trkpt lat="45.83856" lon="4.70467">
        <ele>288.29272</ele>
        <time>2022-08-09T15:05:35.000Z</time>
      </trkpt>
      <trkpt lat="45.83856" lon="4.70463">
        <ele>288.22768</ele>
        <time>2022-08-09T15:05:36.000Z</time>
      </trkpt>
      <trkpt lat="45.83856" lon="4.70458">
        <ele>288.16244</ele>
        <time>2022-08-09T15:05:37.000Z</time>
      </trkpt>
      <trkpt lat="45.83856" lon="4.70454">
        <ele>288.0946</ele>
        <time>2022-08-09T15:05:38.000Z</time>
      </trkpt>
      <trkpt lat="45.83855" lon="4.7045">
        <ele>288.02257</ele>
        <time>2022-08-09T15:05:39.000Z</time>
      </trkpt>
      <trkpt lat="45.83855" lon="4.70445">
        <ele>287.94641</ele>
        <time>2022-08-09T15:05:40.000Z</time>
      </trkpt>
      <trkpt lat="45.83854" lon="4.7044">
        <ele>287.87336</ele>
        <time>2022-08-09T15:05:41.000Z</time>
      </trkpt>
      <trkpt lat="45.83853" lon="4.70436">
        <ele>287.8068</ele>
        <time>2022-08-09T15:05:42.000Z</time>
      </trkpt>
      <trkpt lat="45.83852" lon="4.70431">
        <ele>287.74522</ele>
        <time>2022-08-09T15:05:43.000Z</time>
      </trkpt>
      <trkpt lat="45.8385" lon="4.70421">
        <ele>287.63498</ele>
        <time>2022-08-09T15:05:45.000Z</time>
      </trkpt>
      <trkpt lat="45.83849" lon="4.70417">
        <ele>287.602</ele>
        <time>2022-08-09T15:05:46.000Z</time>
      </trkpt>
      <trkpt lat="45.83847" lon="4.70413">
        <ele>287.58162</ele>
        <time>2022-08-09T15:05:47.000Z</time>
      </trkpt>
      <trkpt lat="45.83845" lon="4.70408">
        <ele>287.56445</ele>
        <time>2022-08-09T15:05:48.000Z</time>
      </trkpt>
      <trkpt lat="45.83843" lon="4.70399">
        <ele>287.50529</ele>
        <time>2022-08-09T15:05:50.000Z</time>
      </trkpt>
      <trkpt lat="45.83842" lon="4.70395">
        <ele>287.45356</ele>
        <time>2022-08-09T15:05:51.000Z</time>
      </trkpt>
      <trkpt lat="45.83842" lon="4.70391">
        <ele>287.39269</ele>
        <time>2022-08-09T15:05:52.000Z</time>
      </trkpt>
      <trkpt lat="45.83842" lon="4.70387">
        <ele>287.32153</ele>
        <time>2022-08-09T15:05:53.000Z</time>
      </trkpt>
      <trkpt lat="45.83842" lon="4.70383">
        <ele>287.25121</ele>
        <time>2022-08-09T15:05:54.000Z</time>
      </trkpt>
      <trkpt lat="45.83842" lon="4.70379">
        <ele>287.18132</ele>
        <time>2022-08-09T15:05:55.000Z</time>
      </trkpt>
      <trkpt lat="45.83842" lon="4.7037">
        <ele>287.02825</ele>
        <time>2022-08-09T15:05:57.000Z</time>
      </trkpt>
      <trkpt lat="45.83841" lon="4.70366">
        <ele>286.9578</ele>
        <time>2022-08-09T15:05:58.000Z</time>
      </trkpt>
      <trkpt lat="45.8384" lon="4.70362">
        <ele>286.8927</ele>
        <time>2022-08-09T15:05:59.000Z</time>
      </trkpt>
      <trkpt lat="45.8384" lon="4.70358">
        <ele>286.80895</ele>
        <time>2022-08-09T15:06:00.000Z</time>
      </trkpt>
      <trkpt lat="45.83839" lon="4.70353">
        <ele>286.71104</ele>
        <time>2022-08-09T15:06:01.000Z</time>
      </trkpt>
      <trkpt lat="45.83838" lon="4.70349">
        <ele>286.61742</ele>
        <time>2022-08-09T15:06:02.000Z</time>
      </trkpt>
      <trkpt lat="45.83837" lon="4.70341">
        <ele>286.4393</ele>
        <time>2022-08-09T15:06:04.000Z</time>
      </trkpt>
      <trkpt lat="45.83836" lon="4.70337">
        <ele>286.34915</ele>
        <time>2022-08-09T15:06:05.000Z</time>
      </trkpt>
      <trkpt lat="45.83834" lon="4.70333">
        <ele>286.23406</ele>
        <time>2022-08-09T15:06:06.000Z</time>
      </trkpt>
      <trkpt lat="45.83832" lon="4.70329">
        <ele>286.09307</ele>
        <time>2022-08-09T15:06:07.000Z</time>
      </trkpt>
      <trkpt lat="45.83831" lon="4.70324">
        <ele>285.9435</ele>
        <time>2022-08-09T15:06:08.000Z</time>
      </trkpt>
      <trkpt lat="45.8383" lon="4.70321">
        <ele>285.81724</ele>
        <time>2022-08-09T15:06:09.000Z</time>
      </trkpt>
      <trkpt lat="45.83829" lon="4.70318">
        <ele>285.71432</ele>
        <time>2022-08-09T15:06:10.000Z</time>
      </trkpt>
      <trkpt lat="45.83828" lon="4.70315">
        <ele>285.57805</ele>
        <time>2022-08-09T15:06:11.000Z</time>
      </trkpt>
      <trkpt lat="45.83827" lon="4.70311">
        <ele>285.38816</ele>
        <time>2022-08-09T15:06:12.000Z</time>
      </trkpt>
      <trkpt lat="45.83826" lon="4.70306">
        <ele>285.14893</ele>
        <time>2022-08-09T15:06:13.000Z</time>
      </trkpt>
      <trkpt lat="45.83824" lon="4.70302">
        <ele>284.89822</ele>
        <time>2022-08-09T15:06:14.000Z</time>
      </trkpt>
      <trkpt lat="45.83823" lon="4.70298">
        <ele>284.66429</ele>
        <time>2022-08-09T15:06:15.000Z</time>
      </trkpt>
      <trkpt lat="45.83821" lon="4.70292">
        <ele>284.26214</ele>
        <time>2022-08-09T15:06:17.000Z</time>
      </trkpt>
      <trkpt lat="45.8382" lon="4.70288">
        <ele>284.0167</ele>
        <time>2022-08-09T15:06:18.000Z</time>
      </trkpt>
      <trkpt lat="45.83818" lon="4.70284">
        <ele>283.68378</ele>
        <time>2022-08-09T15:06:19.000Z</time>
      </trkpt>
      <trkpt lat="45.83817" lon="4.7028">
        <ele>283.35271</ele>
        <time>2022-08-09T15:06:20.000Z</time>
      </trkpt>
      <trkpt lat="45.83816" lon="4.70276">
        <ele>282.97524</ele>
        <time>2022-08-09T15:06:21.000Z</time>
      </trkpt>
      <trkpt lat="45.83815" lon="4.70272">
        <ele>282.59335</ele>
        <time>2022-08-09T15:06:22.000Z</time>
      </trkpt>
      <trkpt lat="45.83814" lon="4.70268">
        <ele>282.2452</ele>
        <time>2022-08-09T15:06:23.000Z</time>
      </trkpt>
      <trkpt lat="45.83814" lon="4.70265">
        <ele>281.97066</ele>
        <time>2022-08-09T15:06:24.000Z</time>
      </trkpt>
      <trkpt lat="45.83813" lon="4.70262">
        <ele>281.76257</ele>
        <time>2022-08-09T15:06:25.000Z</time>
      </trkpt>
      <trkpt lat="45.83812" lon="4.70259">
        <ele>281.48504</ele>
        <time>2022-08-09T15:06:26.000Z</time>
      </trkpt>
      <trkpt lat="45.8381" lon="4.70252">
        <ele>280.87394</ele>
        <time>2022-08-09T15:06:28.000Z</time>
      </trkpt>
      <trkpt lat="45.83808" lon="4.70249">
        <ele>280.56837</ele>
        <time>2022-08-09T15:06:29.000Z</time>
      </trkpt>
      <trkpt lat="45.83806" lon="4.70245">
        <ele>280.20142</ele>
        <time>2022-08-09T15:06:30.000Z</time>
      </trkpt>
      <trkpt lat="45.83805" lon="4.7024">
        <ele>279.84721</ele>
        <time>2022-08-09T15:06:31.000Z</time>
      </trkpt>
      <trkpt lat="45.83803" lon="4.70237">
        <ele>279.60165</ele>
        <time>2022-08-09T15:06:32.000Z</time>
      </trkpt>
      <trkpt lat="45.838" lon="4.70233">
        <ele>279.39561</ele>
        <time>2022-08-09T15:06:33.000Z</time>
      </trkpt>
      <trkpt lat="45.83797" lon="4.70231">
        <ele>279.2622</ele>
        <time>2022-08-09T15:06:34.000Z</time>
      </trkpt>
      <trkpt lat="45.83793" lon="4.70228">
        <ele>279.14843</ele>
        <time>2022-08-09T15:06:35.000Z</time>
      </trkpt>
      <trkpt lat="45.83792" lon="4.70225">
        <ele>279.04017</ele>
        <time>2022-08-09T15:06:36.000Z</time>
      </trkpt>
      <trkpt lat="45.83791" lon="4.70223">
        <ele>278.93227</ele>
        <time>2022-08-09T15:06:37.000Z</time>
      </trkpt>
      <trkpt lat="45.83791" lon="4.70219">
        <ele>278.79009</ele>
        <time>2022-08-09T15:06:38.000Z</time>
      </trkpt>
      <trkpt lat="45.83792" lon="4.70216">
        <ele>278.59454</ele>
        <time>2022-08-09T15:06:39.000Z</time>
      </trkpt>
      <trkpt lat="45.83795" lon="4.70211">
        <ele>278.34489</ele>
        <time>2022-08-09T15:06:40.000Z</time>
      </trkpt>
      <trkpt lat="45.83798" lon="4.70207">
        <ele>278.08109</ele>
        <time>2022-08-09T15:06:41.000Z</time>
      </trkpt>
      <trkpt lat="45.83801" lon="4.70203">
        <ele>277.85019</ele>
        <time>2022-08-09T15:06:42.000Z</time>
      </trkpt>
      <trkpt lat="45.83805" lon="4.70199">
        <ele>277.60279</ele>
        <time>2022-08-09T15:06:43.000Z</time>
      </trkpt>
      <trkpt lat="45.83808" lon="4.70195">
        <ele>277.31772</ele>
        <time>2022-08-09T15:06:44.000Z</time>
      </trkpt>
      <trkpt lat="45.83811" lon="4.70192">
        <ele>277.07679</ele>
        <time>2022-08-09T15:06:45.000Z</time>
      </trkpt>
      <trkpt lat="45.83813" lon="4.7019">
        <ele>276.86905</ele>
        <time>2022-08-09T15:06:46.000Z</time>
      </trkpt>
      <trkpt lat="45.83815" lon="4.70187">
        <ele>276.66669</ele>
        <time>2022-08-09T15:06:47.000Z</time>
      </trkpt>
      <trkpt lat="45.83817" lon="4.70184">
        <ele>276.48209</ele>
        <time>2022-08-09T15:06:48.000Z</time>
      </trkpt>
      <trkpt lat="45.83818" lon="4.70182">
        <ele>276.31381</ele>
        <time>2022-08-09T15:06:50.000Z</time>
      </trkpt>
      <trkpt lat="45.8382" lon="4.7018">
        <ele>276.16936</ele>
        <time>2022-08-09T15:06:52.000Z</time>
      </trkpt>
      <trkpt lat="45.83822" lon="4.70178">
        <ele>276.06552</ele>
        <time>2022-08-09T15:06:58.000Z</time>
      </trkpt>
      <trkpt lat="45.83822" lon="4.70176">
        <ele>275.96671</ele>
        <time>2022-08-09T15:07:04.000Z</time>
      </trkpt>
      <trkpt lat="45.83824" lon="4.70174">
        <ele>275.89147</ele>
        <time>2022-08-09T15:07:07.000Z</time>
      </trkpt>
      <trkpt lat="45.83822" lon="4.70173">
        <ele>275.91576</ele>
        <time>2022-08-09T15:08:31.000Z</time>
      </trkpt>
      <trkpt lat="45.8382" lon="4.70174">
        <ele>275.99674</ele>
        <time>2022-08-09T15:08:35.000Z</time>
      </trkpt>
      <trkpt lat="45.83822" lon="4.70172">
        <ele>275.9127</ele>
        <time>2022-08-09T15:08:41.000Z</time>
      </trkpt>
      <trkpt lat="45.83824" lon="4.70169">
        <ele>275.8405</ele>
        <time>2022-08-09T15:08:43.000Z</time>
      </trkpt>
      <trkpt lat="45.83826" lon="4.70167">
        <ele>275.79007</ele>
        <time>2022-08-09T15:08:45.000Z</time>
      </trkpt>
      <trkpt lat="45.83829" lon="4.70163">
        <ele>275.77717</ele>
        <time>2022-08-09T15:08:47.000Z</time>
      </trkpt>
      <trkpt lat="45.83831" lon="4.7016">
        <ele>275.7867</ele>
        <time>2022-08-09T15:08:48.000Z</time>
      </trkpt>
      <trkpt lat="45.83832" lon="4.70158">
        <ele>275.79291</ele>
        <time>2022-08-09T15:08:49.000Z</time>
      </trkpt>
      <trkpt lat="45.83834" lon="4.70155">
        <ele>275.79235</ele>
        <time>2022-08-09T15:08:50.000Z</time>
      </trkpt>
      <trkpt lat="45.83836" lon="4.70151">
        <ele>275.78927</ele>
        <time>2022-08-09T15:08:51.000Z</time>
      </trkpt>
      <trkpt lat="45.83838" lon="4.70148">
        <ele>275.78975</ele>
        <time>2022-08-09T15:08:52.000Z</time>
      </trkpt>
      <trkpt lat="45.83839" lon="4.70145">
        <ele>275.80467</ele>
        <time>2022-08-09T15:08:53.000Z</time>
      </trkpt>
      <trkpt lat="45.8384" lon="4.70141">
        <ele>275.84293</ele>
        <time>2022-08-09T15:08:54.000Z</time>
      </trkpt>
      <trkpt lat="45.83842" lon="4.70138">
        <ele>275.88233</ele>
        <time>2022-08-09T15:08:55.000Z</time>
      </trkpt>
      <trkpt lat="45.83843" lon="4.70135">
        <ele>275.94458</ele>
        <time>2022-08-09T15:08:56.000Z</time>
      </trkpt>
      <trkpt lat="45.83844" lon="4.70132">
        <ele>276.03983</ele>
        <time>2022-08-09T15:08:57.000Z</time>
      </trkpt>
      <trkpt lat="45.83844" lon="4.70129">
        <ele>276.19187</ele>
        <time>2022-08-09T15:08:58.000Z</time>
      </trkpt>
      <trkpt lat="45.83845" lon="4.70125">
        <ele>276.37481</ele>
        <time>2022-08-09T15:08:59.000Z</time>
      </trkpt>
      <trkpt lat="45.83846" lon="4.70121">
        <ele>276.60982</ele>
        <time>2022-08-09T15:09:00.000Z</time>
      </trkpt>
      <trkpt lat="45.83847" lon="4.70117">
        <ele>276.85772</ele>
        <time>2022-08-09T15:09:01.000Z</time>
      </trkpt>
      <trkpt lat="45.83848" lon="4.70112">
        <ele>277.0628</ele>
        <time>2022-08-09T15:09:02.000Z</time>
      </trkpt>
      <trkpt lat="45.8385" lon="4.70108">
        <ele>277.23627</ele>
        <time>2022-08-09T15:09:03.000Z</time>
      </trkpt>
      <trkpt lat="45.83852" lon="4.70103">
        <ele>277.33222</ele>
        <time>2022-08-09T15:09:04.000Z</time>
      </trkpt>
      <trkpt lat="45.83853" lon="4.70098">
        <ele>277.40732</ele>
        <time>2022-08-09T15:09:05.000Z</time>
      </trkpt>
      <trkpt lat="45.83855" lon="4.70093">
        <ele>277.48633</ele>
        <time>2022-08-09T15:09:06.000Z</time>
      </trkpt>
      <trkpt lat="45.83857" lon="4.70085">
        <ele>277.64424</ele>
        <time>2022-08-09T15:09:08.000Z</time>
      </trkpt>
      <trkpt lat="45.83858" lon="4.70081">
        <ele>277.69694</ele>
        <time>2022-08-09T15:09:09.000Z</time>
      </trkpt>
      <trkpt lat="45.83858" lon="4.70076">
        <ele>277.73157</ele>
        <time>2022-08-09T15:09:10.000Z</time>
      </trkpt>
      <trkpt lat="45.83858" lon="4.70072">
        <ele>277.7236</ele>
        <time>2022-08-09T15:09:11.000Z</time>
      </trkpt>
      <trkpt lat="45.83859" lon="4.70068">
        <ele>277.65341</ele>
        <time>2022-08-09T15:09:12.000Z</time>
      </trkpt>
      <trkpt lat="45.8386" lon="4.70064">
        <ele>277.50041</ele>
        <time>2022-08-09T15:09:13.000Z</time>
      </trkpt>
      <trkpt lat="45.83861" lon="4.70061">
        <ele>277.37739</ele>
        <time>2022-08-09T15:09:14.000Z</time>
      </trkpt>
      <trkpt lat="45.83861" lon="4.70057">
        <ele>277.17224</ele>
        <time>2022-08-09T15:09:16.000Z</time>
      </trkpt>
      <trkpt lat="45.83861" lon="4.70052">
        <ele>276.9486</ele>
        <time>2022-08-09T15:09:29.000Z</time>
      </trkpt>
      <trkpt lat="45.83862" lon="4.70049">
        <ele>276.77297</ele>
        <time>2022-08-09T15:09:30.000Z</time>
      </trkpt>
      <trkpt lat="45.83863" lon="4.70044">
        <ele>276.57414</ele>
        <time>2022-08-09T15:09:31.000Z</time>
      </trkpt>
      <trkpt lat="45.83864" lon="4.70038">
        <ele>276.41341</ele>
        <time>2022-08-09T15:09:32.000Z</time>
      </trkpt>
      <trkpt lat="45.83865" lon="4.70034">
        <ele>276.3088</ele>
        <time>2022-08-09T15:09:33.000Z</time>
      </trkpt>
      <trkpt lat="45.83867" lon="4.70029">
        <ele>276.23645</ele>
        <time>2022-08-09T15:09:34.000Z</time>
      </trkpt>
      <trkpt lat="45.83868" lon="4.70025">
        <ele>276.18751</ele>
        <time>2022-08-09T15:09:35.000Z</time>
      </trkpt>
      <trkpt lat="45.8387" lon="4.70021">
        <ele>276.12559</ele>
        <time>2022-08-09T15:09:36.000Z</time>
      </trkpt>
      <trkpt lat="45.83873" lon="4.70017">
        <ele>276.06713</ele>
        <time>2022-08-09T15:09:37.000Z</time>
      </trkpt>
      <trkpt lat="45.83876" lon="4.70013">
        <ele>276.01696</ele>
        <time>2022-08-09T15:09:38.000Z</time>
      </trkpt>
      <trkpt lat="45.83878" lon="4.70009">
        <ele>275.98062</ele>
        <time>2022-08-09T15:09:39.000Z</time>
      </trkpt>
      <trkpt lat="45.8388" lon="4.70005">
        <ele>275.95974</ele>
        <time>2022-08-09T15:09:40.000Z</time>
      </trkpt>
      <trkpt lat="45.83883" lon="4.70001">
        <ele>275.95129</ele>
        <time>2022-08-09T15:09:41.000Z</time>
      </trkpt>
      <trkpt lat="45.83885" lon="4.69996">
        <ele>275.94138</ele>
        <time>2022-08-09T15:09:42.000Z</time>
      </trkpt>
      <trkpt lat="45.83888" lon="4.69992">
        <ele>275.92529</ele>
        <time>2022-08-09T15:09:43.000Z</time>
      </trkpt>
      <trkpt lat="45.8389" lon="4.69988">
        <ele>275.88415</ele>
        <time>2022-08-09T15:09:44.000Z</time>
      </trkpt>
      <trkpt lat="45.83894" lon="4.69983">
        <ele>275.79955</ele>
        <time>2022-08-09T15:09:45.000Z</time>
      </trkpt>
      <trkpt lat="45.83897" lon="4.69978">
        <ele>275.68377</ele>
        <time>2022-08-09T15:09:46.000Z</time>
      </trkpt>
      <trkpt lat="45.839" lon="4.69974">
        <ele>275.53767</ele>
        <time>2022-08-09T15:09:47.000Z</time>
      </trkpt>
      <trkpt lat="45.83907" lon="4.69969">
        <ele>275.21962</ele>
        <time>2022-08-09T15:09:48.000Z</time>
      </trkpt>
      <trkpt lat="45.8391" lon="4.69964">
        <ele>275.13966</ele>
        <time>2022-08-09T15:09:49.000Z</time>
      </trkpt>
      <trkpt lat="45.83914" lon="4.6996">
        <ele>274.95252</ele>
        <time>2022-08-09T15:09:50.000Z</time>
      </trkpt>
      <trkpt lat="45.83919" lon="4.69954">
        <ele>274.75311</ele>
        <time>2022-08-09T15:09:51.000Z</time>
      </trkpt>
      <trkpt lat="45.83922" lon="4.69948">
        <ele>274.58983</ele>
        <time>2022-08-09T15:09:52.000Z</time>
      </trkpt>
      <trkpt lat="45.83925" lon="4.69943">
        <ele>274.45513</ele>
        <time>2022-08-09T15:09:53.000Z</time>
      </trkpt>
      <trkpt lat="45.83928" lon="4.69937">
        <ele>274.35791</ele>
        <time>2022-08-09T15:09:54.000Z</time>
      </trkpt>
      <trkpt lat="45.83932" lon="4.69932">
        <ele>274.27138</ele>
        <time>2022-08-09T15:09:55.000Z</time>
      </trkpt>
      <trkpt lat="45.83934" lon="4.69927">
        <ele>274.21204</ele>
        <time>2022-08-09T15:09:56.000Z</time>
      </trkpt>
      <trkpt lat="45.83937" lon="4.69922">
        <ele>274.15167</ele>
        <time>2022-08-09T15:09:57.000Z</time>
      </trkpt>
      <trkpt lat="45.8394" lon="4.69918">
        <ele>274.1236</ele>
        <time>2022-08-09T15:09:58.000Z</time>
      </trkpt>
      <trkpt lat="45.83942" lon="4.69913">
        <ele>274.09903</ele>
        <time>2022-08-09T15:09:59.000Z</time>
      </trkpt>
      <trkpt lat="45.83945" lon="4.69907">
        <ele>274.17113</ele>
        <time>2022-08-09T15:10:00.000Z</time>
      </trkpt>
      <trkpt lat="45.83947" lon="4.69902">
        <ele>274.25747</ele>
        <time>2022-08-09T15:10:01.000Z</time>
      </trkpt>
      <trkpt lat="45.83951" lon="4.69897">
        <ele>274.46217</ele>
        <time>2022-08-09T15:10:02.000Z</time>
      </trkpt>
      <trkpt lat="45.83953" lon="4.69892">
        <ele>274.66637</ele>
        <time>2022-08-09T15:10:03.000Z</time>
      </trkpt>
      <trkpt lat="45.83957" lon="4.69887">
        <ele>274.91393</ele>
        <time>2022-08-09T15:10:04.000Z</time>
      </trkpt>
      <trkpt lat="45.8396" lon="4.69883">
        <ele>275.07765</ele>
        <time>2022-08-09T15:10:05.000Z</time>
      </trkpt>
      <trkpt lat="45.83963" lon="4.69878">
        <ele>275.22453</ele>
        <time>2022-08-09T15:10:06.000Z</time>
      </trkpt>
      <trkpt lat="45.83965" lon="4.69874">
        <ele>275.303</ele>
        <time>2022-08-09T15:10:07.000Z</time>
      </trkpt>
      <trkpt lat="45.83967" lon="4.6987">
        <ele>275.33245</ele>
        <time>2022-08-09T15:10:08.000Z</time>
      </trkpt>
      <trkpt lat="45.83969" lon="4.69865">
        <ele>275.31997</ele>
        <time>2022-08-09T15:10:09.000Z</time>
      </trkpt>
      <trkpt lat="45.8397" lon="4.69861">
        <ele>275.2798</ele>
        <time>2022-08-09T15:10:10.000Z</time>
      </trkpt>
      <trkpt lat="45.83972" lon="4.69856">
        <ele>275.22893</ele>
        <time>2022-08-09T15:10:11.000Z</time>
      </trkpt>
      <trkpt lat="45.83974" lon="4.69852">
        <ele>275.1884</ele>
        <time>2022-08-09T15:10:12.000Z</time>
      </trkpt>
      <trkpt lat="45.83977" lon="4.69848">
        <ele>275.15302</ele>
        <time>2022-08-09T15:10:13.000Z</time>
      </trkpt>
      <trkpt lat="45.83981" lon="4.69843">
        <ele>275.07941</ele>
        <time>2022-08-09T15:10:14.000Z</time>
      </trkpt>
      <trkpt lat="45.83984" lon="4.69839">
        <ele>275.00868</ele>
        <time>2022-08-09T15:10:15.000Z</time>
      </trkpt>
      <trkpt lat="45.83986" lon="4.69835">
        <ele>274.94225</ele>
        <time>2022-08-09T15:10:16.000Z</time>
      </trkpt>
      <trkpt lat="45.83989" lon="4.69831">
        <ele>274.88133</ele>
        <time>2022-08-09T15:10:17.000Z</time>
      </trkpt>
      <trkpt lat="45.83991" lon="4.69826">
        <ele>274.80654</ele>
        <time>2022-08-09T15:10:18.000Z</time>
      </trkpt>
      <trkpt lat="45.83994" lon="4.69822">
        <ele>274.73206</ele>
        <time>2022-08-09T15:10:19.000Z</time>
      </trkpt>
      <trkpt lat="45.83996" lon="4.69818">
        <ele>274.60378</ele>
        <time>2022-08-09T15:10:20.000Z</time>
      </trkpt>
      <trkpt lat="45.83999" lon="4.69814">
        <ele>274.46805</ele>
        <time>2022-08-09T15:10:21.000Z</time>
      </trkpt>
      <trkpt lat="45.84001" lon="4.6981">
        <ele>274.35493</ele>
        <time>2022-08-09T15:10:22.000Z</time>
      </trkpt>
      <trkpt lat="45.84004" lon="4.69806">
        <ele>274.24162</ele>
        <time>2022-08-09T15:10:23.000Z</time>
      </trkpt>
      <trkpt lat="45.84006" lon="4.69802">
        <ele>274.08367</ele>
        <time>2022-08-09T15:10:24.000Z</time>
      </trkpt>
      <trkpt lat="45.84009" lon="4.69797">
        <ele>273.88662</ele>
        <time>2022-08-09T15:10:25.000Z</time>
      </trkpt>
      <trkpt lat="45.84012" lon="4.69792">
        <ele>273.64331</ele>
        <time>2022-08-09T15:10:26.000Z</time>
      </trkpt>
      <trkpt lat="45.84014" lon="4.69787">
        <ele>273.3741</ele>
        <time>2022-08-09T15:10:27.000Z</time>
      </trkpt>
      <trkpt lat="45.84017" lon="4.69782">
        <ele>273.08268</ele>
        <time>2022-08-09T15:10:28.000Z</time>
      </trkpt>
      <trkpt lat="45.84019" lon="4.69778">
        <ele>272.79323</ele>
        <time>2022-08-09T15:10:29.000Z</time>
      </trkpt>
      <trkpt lat="45.84022" lon="4.69773">
        <ele>272.5247</ele>
        <time>2022-08-09T15:10:30.000Z</time>
      </trkpt>
      <trkpt lat="45.84024" lon="4.69769">
        <ele>272.28064</ele>
        <time>2022-08-09T15:10:31.000Z</time>
      </trkpt>
      <trkpt lat="45.84026" lon="4.69765">
        <ele>272.05665</ele>
        <time>2022-08-09T15:10:32.000Z</time>
      </trkpt>
      <trkpt lat="45.84028" lon="4.69762">
        <ele>271.85336</ele>
        <time>2022-08-09T15:10:33.000Z</time>
      </trkpt>
      <trkpt lat="45.8403" lon="4.69759">
        <ele>271.62751</ele>
        <time>2022-08-09T15:10:34.000Z</time>
      </trkpt>
      <trkpt lat="45.84032" lon="4.69756">
        <ele>271.41113</ele>
        <time>2022-08-09T15:10:35.000Z</time>
      </trkpt>
      <trkpt lat="45.84033" lon="4.69753">
        <ele>271.17209</ele>
        <time>2022-08-09T15:10:36.000Z</time>
      </trkpt>
      <trkpt lat="45.84034" lon="4.6975">
        <ele>270.91832</ele>
        <time>2022-08-09T15:10:37.000Z</time>
      </trkpt>
      <trkpt lat="45.84036" lon="4.69747">
        <ele>270.62194</ele>
        <time>2022-08-09T15:10:38.000Z</time>
      </trkpt>
      <trkpt lat="45.84038" lon="4.69744">
        <ele>270.19575</ele>
        <time>2022-08-09T15:10:39.000Z</time>
      </trkpt>
      <trkpt lat="45.84041" lon="4.6974">
        <ele>269.69942</ele>
        <time>2022-08-09T15:10:40.000Z</time>
      </trkpt>
      <trkpt lat="45.84043" lon="4.69736">
        <ele>269.32478</ele>
        <time>2022-08-09T15:10:41.000Z</time>
      </trkpt>
      <trkpt lat="45.84044" lon="4.69733">
        <ele>269.05375</ele>
        <time>2022-08-09T15:10:42.000Z</time>
      </trkpt>
      <trkpt lat="45.84046" lon="4.69731">
        <ele>268.85268</ele>
        <time>2022-08-09T15:10:43.000Z</time>
      </trkpt>
      <trkpt lat="45.84047" lon="4.69728">
        <ele>268.70054</ele>
        <time>2022-08-09T15:10:44.000Z</time>
      </trkpt>
      <trkpt lat="45.84048" lon="4.69725">
        <ele>268.58999</ele>
        <time>2022-08-09T15:10:46.000Z</time>
      </trkpt>
      <trkpt lat="45.84049" lon="4.69722">
        <ele>268.55376</ele>
        <time>2022-08-09T15:10:48.000Z</time>
      </trkpt>
      <trkpt lat="45.84051" lon="4.69719">
        <ele>268.58829</ele>
        <time>2022-08-09T15:10:50.000Z</time>
      </trkpt>
      <trkpt lat="45.84052" lon="4.69717">
        <ele>268.64655</ele>
        <time>2022-08-09T15:10:51.000Z</time>
      </trkpt>
      <trkpt lat="45.84053" lon="4.69715">
        <ele>268.72704</ele>
        <time>2022-08-09T15:10:52.000Z</time>
      </trkpt>
      <trkpt lat="45.84054" lon="4.69713">
        <ele>268.82091</ele>
        <time>2022-08-09T15:10:53.000Z</time>
      </trkpt>
      <trkpt lat="45.84056" lon="4.69711">
        <ele>268.95444</ele>
        <time>2022-08-09T15:10:54.000Z</time>
      </trkpt>
      <trkpt lat="45.84058" lon="4.69709">
        <ele>269.11241</ele>
        <time>2022-08-09T15:10:55.000Z</time>
      </trkpt>
      <trkpt lat="45.84061" lon="4.69707">
        <ele>269.26745</ele>
        <time>2022-08-09T15:10:56.000Z</time>
      </trkpt>
      <trkpt lat="45.84063" lon="4.69705">
        <ele>269.43381</ele>
        <time>2022-08-09T15:10:57.000Z</time>
      </trkpt>
      <trkpt lat="45.84065" lon="4.69702">
        <ele>269.60833</ele>
        <time>2022-08-09T15:10:58.000Z</time>
      </trkpt>
      <trkpt lat="45.84067" lon="4.69699">
        <ele>269.82221</ele>
        <time>2022-08-09T15:10:59.000Z</time>
      </trkpt>
      <trkpt lat="45.84069" lon="4.69695">
        <ele>270.0847</ele>
        <time>2022-08-09T15:11:00.000Z</time>
      </trkpt>
      <trkpt lat="45.8407" lon="4.69692">
        <ele>270.31501</ele>
        <time>2022-08-09T15:11:01.000Z</time>
      </trkpt>
      <trkpt lat="45.84072" lon="4.69689">
        <ele>270.53457</ele>
        <time>2022-08-09T15:11:02.000Z</time>
      </trkpt>
      <trkpt lat="45.84075" lon="4.69686">
        <ele>270.7615</ele>
        <time>2022-08-09T15:11:03.000Z</time>
      </trkpt>
      <trkpt lat="45.84077" lon="4.69683">
        <ele>271.00341</ele>
        <time>2022-08-09T15:11:04.000Z</time>
      </trkpt>
      <trkpt lat="45.84081" lon="4.69681">
        <ele>271.23718</ele>
        <time>2022-08-09T15:11:05.000Z</time>
      </trkpt>
      <trkpt lat="45.84084" lon="4.69679">
        <ele>271.41849</ele>
        <time>2022-08-09T15:11:06.000Z</time>
      </trkpt>
      <trkpt lat="45.84088" lon="4.69677">
        <ele>271.52693</ele>
        <time>2022-08-09T15:11:07.000Z</time>
      </trkpt>
      <trkpt lat="45.8409" lon="4.69676">
        <ele>271.57722</ele>
        <time>2022-08-09T15:11:08.000Z</time>
      </trkpt>
      <trkpt lat="45.84093" lon="4.69676">
        <ele>271.59031</ele>
        <time>2022-08-09T15:11:09.000Z</time>
      </trkpt>
      <trkpt lat="45.84096" lon="4.69676">
        <ele>271.59069</ele>
        <time>2022-08-09T15:11:10.000Z</time>
      </trkpt>
      <trkpt lat="45.84099" lon="4.69676">
        <ele>271.54914</ele>
        <time>2022-08-09T15:11:11.000Z</time>
      </trkpt>
      <trkpt lat="45.84102" lon="4.69677">
        <ele>271.4813</ele>
        <time>2022-08-09T15:11:12.000Z</time>
      </trkpt>
      <trkpt lat="45.84106" lon="4.69677">
        <ele>271.39358</ele>
        <time>2022-08-09T15:11:13.000Z</time>
      </trkpt>
      <trkpt lat="45.8411" lon="4.69678">
        <ele>271.31301</ele>
        <time>2022-08-09T15:11:14.000Z</time>
      </trkpt>
      <trkpt lat="45.84114" lon="4.69679">
        <ele>271.2238</ele>
        <time>2022-08-09T15:11:15.000Z</time>
      </trkpt>
      <trkpt lat="45.84118" lon="4.69679">
        <ele>271.10963</ele>
        <time>2022-08-09T15:11:16.000Z</time>
      </trkpt>
      <trkpt lat="45.84122" lon="4.6968">
        <ele>270.97692</ele>
        <time>2022-08-09T15:11:17.000Z</time>
      </trkpt>
      <trkpt lat="45.84126" lon="4.6968">
        <ele>270.8495</ele>
        <time>2022-08-09T15:11:18.000Z</time>
      </trkpt>
      <trkpt lat="45.84129" lon="4.69681">
        <ele>270.73821</ele>
        <time>2022-08-09T15:11:19.000Z</time>
      </trkpt>
      <trkpt lat="45.84133" lon="4.69681">
        <ele>270.60708</ele>
        <time>2022-08-09T15:11:20.000Z</time>
      </trkpt>
      <trkpt lat="45.84138" lon="4.69681">
        <ele>270.47599</ele>
        <time>2022-08-09T15:11:21.000Z</time>
      </trkpt>
      <trkpt lat="45.84142" lon="4.69682">
        <ele>270.31093</ele>
        <time>2022-08-09T15:11:22.000Z</time>
      </trkpt>
      <trkpt lat="45.84146" lon="4.69683">
        <ele>270.14776</ele>
        <time>2022-08-09T15:11:23.000Z</time>
      </trkpt>
      <trkpt lat="45.8415" lon="4.69684">
        <ele>270.01285</ele>
        <time>2022-08-09T15:11:24.000Z</time>
      </trkpt>
      <trkpt lat="45.84154" lon="4.69684">
        <ele>269.92544</ele>
        <time>2022-08-09T15:11:25.000Z</time>
      </trkpt>
      <trkpt lat="45.84158" lon="4.69684">
        <ele>269.87294</ele>
        <time>2022-08-09T15:11:26.000Z</time>
      </trkpt>
      <trkpt lat="45.84162" lon="4.69685">
        <ele>269.8435</ele>
        <time>2022-08-09T15:11:27.000Z</time>
      </trkpt>
      <trkpt lat="45.84166" lon="4.69685">
        <ele>269.8372</ele>
        <time>2022-08-09T15:11:28.000Z</time>
      </trkpt>
      <trkpt lat="45.8417" lon="4.69686">
        <ele>269.85638</ele>
        <time>2022-08-09T15:11:29.000Z</time>
      </trkpt>
      <trkpt lat="45.84174" lon="4.69686">
        <ele>269.88786</ele>
        <time>2022-08-09T15:11:30.000Z</time>
      </trkpt>
      <trkpt lat="45.84178" lon="4.69687">
        <ele>269.94057</ele>
        <time>2022-08-09T15:11:31.000Z</time>
      </trkpt>
      <trkpt lat="45.84182" lon="4.69689">
        <ele>269.99229</ele>
        <time>2022-08-09T15:11:32.000Z</time>
      </trkpt>
      <trkpt lat="45.84186" lon="4.6969">
        <ele>270.05281</ele>
        <time>2022-08-09T15:11:33.000Z</time>
      </trkpt>
      <trkpt lat="45.84189" lon="4.69691">
        <ele>270.10444</ele>
        <time>2022-08-09T15:11:34.000Z</time>
      </trkpt>
      <trkpt lat="45.84192" lon="4.69692">
        <ele>270.15992</ele>
        <time>2022-08-09T15:11:35.000Z</time>
      </trkpt>
      <trkpt lat="45.84196" lon="4.69692">
        <ele>270.28407</ele>
        <time>2022-08-09T15:11:36.000Z</time>
      </trkpt>
      <trkpt lat="45.84199" lon="4.69692">
        <ele>270.41319</ele>
        <time>2022-08-09T15:11:37.000Z</time>
      </trkpt>
      <trkpt lat="45.84202" lon="4.69692">
        <ele>270.52987</ele>
        <time>2022-08-09T15:11:38.000Z</time>
      </trkpt>
      <trkpt lat="45.84206" lon="4.69693">
        <ele>270.62663</ele>
        <time>2022-08-09T15:11:39.000Z</time>
      </trkpt>
      <trkpt lat="45.84209" lon="4.69693">
        <ele>270.68131</ele>
        <time>2022-08-09T15:11:40.000Z</time>
      </trkpt>
      <trkpt lat="45.84211" lon="4.69693">
        <ele>270.73918</ele>
        <time>2022-08-09T15:11:41.000Z</time>
      </trkpt>
      <trkpt lat="45.84214" lon="4.69694">
        <ele>270.79219</ele>
        <time>2022-08-09T15:11:42.000Z</time>
      </trkpt>
      <trkpt lat="45.84218" lon="4.69695">
        <ele>270.85713</ele>
        <time>2022-08-09T15:11:43.000Z</time>
      </trkpt>
      <trkpt lat="45.8422" lon="4.69696">
        <ele>270.90739</ele>
        <time>2022-08-09T15:11:44.000Z</time>
      </trkpt>
      <trkpt lat="45.84223" lon="4.69696">
        <ele>270.97552</ele>
        <time>2022-08-09T15:11:45.000Z</time>
      </trkpt>
      <trkpt lat="45.84226" lon="4.69696">
        <ele>271.05628</ele>
        <time>2022-08-09T15:11:46.000Z</time>
      </trkpt>
      <trkpt lat="45.84229" lon="4.69696">
        <ele>271.14759</ele>
        <time>2022-08-09T15:11:47.000Z</time>
      </trkpt>
      <trkpt lat="45.84233" lon="4.69697">
        <ele>271.2194</ele>
        <time>2022-08-09T15:11:48.000Z</time>
      </trkpt>
      <trkpt lat="45.84236" lon="4.69697">
        <ele>271.28295</ele>
        <time>2022-08-09T15:11:49.000Z</time>
      </trkpt>
      <trkpt lat="45.8424" lon="4.69697">
        <ele>271.33836</ele>
        <time>2022-08-09T15:11:50.000Z</time>
      </trkpt>
      <trkpt lat="45.84243" lon="4.69696">
        <ele>271.44185</ele>
        <time>2022-08-09T15:11:51.000Z</time>
      </trkpt>
      <trkpt lat="45.84245" lon="4.69695">
        <ele>271.55378</ele>
        <time>2022-08-09T15:11:52.000Z</time>
      </trkpt>
      <trkpt lat="45.84247" lon="4.69694">
        <ele>271.67032</ele>
        <time>2022-08-09T15:11:53.000Z</time>
      </trkpt>
      <trkpt lat="45.84249" lon="4.69692">
        <ele>271.79728</ele>
        <time>2022-08-09T15:11:54.000Z</time>
      </trkpt>
      <trkpt lat="45.8425" lon="4.6969">
        <ele>271.91879</ele>
        <time>2022-08-09T15:11:55.000Z</time>
      </trkpt>
      <trkpt lat="45.84252" lon="4.69688">
        <ele>272.03177</ele>
        <time>2022-08-09T15:11:56.000Z</time>
      </trkpt>
      <trkpt lat="45.84254" lon="4.69687">
        <ele>272.12876</ele>
        <time>2022-08-09T15:11:57.000Z</time>
      </trkpt>
      <trkpt lat="45.84256" lon="4.69685">
        <ele>272.2348</ele>
        <time>2022-08-09T15:11:58.000Z</time>
      </trkpt>
      <trkpt lat="45.84259" lon="4.69683">
        <ele>272.32687</ele>
        <time>2022-08-09T15:11:59.000Z</time>
      </trkpt>
      <trkpt lat="45.84262" lon="4.69682">
        <ele>272.38979</ele>
        <time>2022-08-09T15:12:00.000Z</time>
      </trkpt>
      <trkpt lat="45.84264" lon="4.6968">
        <ele>272.43129</ele>
        <time>2022-08-09T15:12:01.000Z</time>
      </trkpt>
      <trkpt lat="45.84268" lon="4.6968">
        <ele>272.43318</ele>
        <time>2022-08-09T15:12:02.000Z</time>
      </trkpt>
      <trkpt lat="45.84271" lon="4.69679">
        <ele>272.41436</ele>
        <time>2022-08-09T15:12:03.000Z</time>
      </trkpt>
      <trkpt lat="45.84274" lon="4.69679">
        <ele>272.38927</ele>
        <time>2022-08-09T15:12:04.000Z</time>
      </trkpt>
      <trkpt lat="45.84278" lon="4.69679">
        <ele>272.32789</ele>
        <time>2022-08-09T15:12:05.000Z</time>
      </trkpt>
      <trkpt lat="45.84283" lon="4.69678">
        <ele>272.25868</ele>
        <time>2022-08-09T15:12:06.000Z</time>
      </trkpt>
      <trkpt lat="45.84287" lon="4.69677">
        <ele>272.17499</ele>
        <time>2022-08-09T15:12:07.000Z</time>
      </trkpt>
      <trkpt lat="45.84291" lon="4.69675">
        <ele>272.07182</ele>
        <time>2022-08-09T15:12:08.000Z</time>
      </trkpt>
      <trkpt lat="45.84295" lon="4.69674">
        <ele>271.98498</ele>
        <time>2022-08-09T15:12:09.000Z</time>
      </trkpt>
      <trkpt lat="45.84297" lon="4.69673">
        <ele>271.92717</ele>
        <time>2022-08-09T15:12:10.000Z</time>
      </trkpt>
      <trkpt lat="45.84299" lon="4.69671">
        <ele>271.8913</ele>
        <time>2022-08-09T15:12:11.000Z</time>
      </trkpt>
      <trkpt lat="45.84302" lon="4.69669">
        <ele>271.83554</ele>
        <time>2022-08-09T15:12:12.000Z</time>
      </trkpt>
      <trkpt lat="45.84305" lon="4.69667">
        <ele>271.75341</ele>
        <time>2022-08-09T15:12:13.000Z</time>
      </trkpt>
      <trkpt lat="45.84309" lon="4.69665">
        <ele>271.6372</ele>
        <time>2022-08-09T15:12:14.000Z</time>
      </trkpt>
      <trkpt lat="45.84319" lon="4.69657">
        <ele>271.43818</ele>
        <time>2022-08-09T15:12:15.000Z</time>
      </trkpt>
      <trkpt lat="45.84327" lon="4.69654">
        <ele>271.21731</ele>
        <time>2022-08-09T15:12:16.000Z</time>
      </trkpt>
      <trkpt lat="45.84331" lon="4.69653">
        <ele>271.07778</ele>
        <time>2022-08-09T15:12:17.000Z</time>
      </trkpt>
      <trkpt lat="45.84339" lon="4.69652">
        <ele>270.82305</ele>
        <time>2022-08-09T15:12:18.000Z</time>
      </trkpt>
      <trkpt lat="45.84343" lon="4.6965">
        <ele>270.73137</ele>
        <time>2022-08-09T15:12:19.000Z</time>
      </trkpt>
      <trkpt lat="45.84346" lon="4.69648">
        <ele>270.70026</ele>
        <time>2022-08-09T15:12:20.000Z</time>
      </trkpt>
      <trkpt lat="45.84349" lon="4.69645">
        <ele>270.67122</ele>
        <time>2022-08-09T15:12:22.000Z</time>
      </trkpt>
      <trkpt lat="45.84355" lon="4.69644">
        <ele>270.55042</ele>
        <time>2022-08-09T15:12:23.000Z</time>
      </trkpt>
      <trkpt lat="45.8436" lon="4.6964">
        <ele>270.50075</ele>
        <time>2022-08-09T15:12:24.000Z</time>
      </trkpt>
      <trkpt lat="45.84365" lon="4.69639">
        <ele>270.40727</ele>
        <time>2022-08-09T15:12:25.000Z</time>
      </trkpt>
      <trkpt lat="45.84368" lon="4.69637">
        <ele>270.41137</ele>
        <time>2022-08-09T15:12:26.000Z</time>
      </trkpt>
      <trkpt lat="45.84371" lon="4.69635">
        <ele>270.38759</ele>
        <time>2022-08-09T15:12:27.000Z</time>
      </trkpt>
      <trkpt lat="45.84375" lon="4.69633">
        <ele>270.37796</ele>
        <time>2022-08-09T15:12:28.000Z</time>
      </trkpt>
      <trkpt lat="45.84379" lon="4.6963">
        <ele>270.36774</ele>
        <time>2022-08-09T15:12:29.000Z</time>
      </trkpt>
      <trkpt lat="45.84382" lon="4.69627">
        <ele>270.34825</ele>
        <time>2022-08-09T15:12:30.000Z</time>
      </trkpt>
      <trkpt lat="45.84384" lon="4.69624">
        <ele>270.326</ele>
        <time>2022-08-09T15:12:31.000Z</time>
      </trkpt>
      <trkpt lat="45.84386" lon="4.6962">
        <ele>270.2892</ele>
        <time>2022-08-09T15:12:32.000Z</time>
      </trkpt>
      <trkpt lat="45.84387" lon="4.69614">
        <ele>270.24349</ele>
        <time>2022-08-09T15:12:33.000Z</time>
      </trkpt>
      <trkpt lat="45.84386" lon="4.69608">
        <ele>270.20771</ele>
        <time>2022-08-09T15:12:34.000Z</time>
      </trkpt>
      <trkpt lat="45.84386" lon="4.69602">
        <ele>270.16883</ele>
        <time>2022-08-09T15:12:35.000Z</time>
      </trkpt>
      <trkpt lat="45.84385" lon="4.69595">
        <ele>270.12055</ele>
        <time>2022-08-09T15:12:36.000Z</time>
      </trkpt>
      <trkpt lat="45.84384" lon="4.69588">
        <ele>270.04862</ele>
        <time>2022-08-09T15:12:37.000Z</time>
      </trkpt>
      <trkpt lat="45.84383" lon="4.69581">
        <ele>269.99496</ele>
        <time>2022-08-09T15:12:38.000Z</time>
      </trkpt>
      <trkpt lat="45.84382" lon="4.69574">
        <ele>269.94386</ele>
        <time>2022-08-09T15:12:39.000Z</time>
      </trkpt>
      <trkpt lat="45.84382" lon="4.69566">
        <ele>269.87612</ele>
        <time>2022-08-09T15:12:40.000Z</time>
      </trkpt>
      <trkpt lat="45.84381" lon="4.69559">
        <ele>269.79636</ele>
        <time>2022-08-09T15:12:41.000Z</time>
      </trkpt>
      <trkpt lat="45.84381" lon="4.69552">
        <ele>269.76654</ele>
        <time>2022-08-09T15:12:42.000Z</time>
      </trkpt>
      <trkpt lat="45.84379" lon="4.69546">
        <ele>269.82558</ele>
        <time>2022-08-09T15:12:43.000Z</time>
      </trkpt>
      <trkpt lat="45.84378" lon="4.69543">
        <ele>269.87017</ele>
        <time>2022-08-09T15:12:44.000Z</time>
      </trkpt>
      <trkpt lat="45.84378" lon="4.6954">
        <ele>269.86624</ele>
        <time>2022-08-09T15:12:46.000Z</time>
      </trkpt>
      <trkpt lat="45.84379" lon="4.69537">
        <ele>269.76981</ele>
        <time>2022-08-09T15:12:48.000Z</time>
      </trkpt>
      <trkpt lat="45.8438" lon="4.69534">
        <ele>269.68411</ele>
        <time>2022-08-09T15:12:51.000Z</time>
      </trkpt>
      <trkpt lat="45.8438" lon="4.69532">
        <ele>269.60779</ele>
        <time>2022-08-09T15:12:57.000Z</time>
      </trkpt>
      <trkpt lat="45.84381" lon="4.69534">
        <ele>269.61326</ele>
        <time>2022-08-09T15:14:41.000Z</time>
      </trkpt>
      <trkpt lat="45.84384" lon="4.69535">
        <ele>269.32501</ele>
        <time>2022-08-09T15:14:45.000Z</time>
      </trkpt>
      <trkpt lat="45.84389" lon="4.69534">
        <ele>268.93919</ele>
        <time>2022-08-09T15:14:47.000Z</time>
      </trkpt>
      <trkpt lat="45.84391" lon="4.69533">
        <ele>268.75022</ele>
        <time>2022-08-09T15:14:48.000Z</time>
      </trkpt>
      <trkpt lat="45.84394" lon="4.69533">
        <ele>268.56014</ele>
        <time>2022-08-09T15:14:49.000Z</time>
      </trkpt>
      <trkpt lat="45.84396" lon="4.69532">
        <ele>268.38319</ele>
        <time>2022-08-09T15:14:50.000Z</time>
      </trkpt>
      <trkpt lat="45.84398" lon="4.69532">
        <ele>268.19125</ele>
        <time>2022-08-09T15:14:51.000Z</time>
      </trkpt>
      <trkpt lat="45.84401" lon="4.69531">
        <ele>267.96401</ele>
        <time>2022-08-09T15:14:52.000Z</time>
      </trkpt>
      <trkpt lat="45.84404" lon="4.6953">
        <ele>267.758</ele>
        <time>2022-08-09T15:14:53.000Z</time>
      </trkpt>
      <trkpt lat="45.84406" lon="4.69529">
        <ele>267.54422</ele>
        <time>2022-08-09T15:14:54.000Z</time>
      </trkpt>
      <trkpt lat="45.84409" lon="4.69527">
        <ele>267.34197</ele>
        <time>2022-08-09T15:14:55.000Z</time>
      </trkpt>
      <trkpt lat="45.84412" lon="4.69526">
        <ele>267.13187</ele>
        <time>2022-08-09T15:14:56.000Z</time>
      </trkpt>
      <trkpt lat="45.84414" lon="4.69524">
        <ele>266.94576</ele>
        <time>2022-08-09T15:14:57.000Z</time>
      </trkpt>
      <trkpt lat="45.84417" lon="4.69523">
        <ele>266.75404</ele>
        <time>2022-08-09T15:14:58.000Z</time>
      </trkpt>
      <trkpt lat="45.84421" lon="4.69522">
        <ele>266.55942</ele>
        <time>2022-08-09T15:14:59.000Z</time>
      </trkpt>
      <trkpt lat="45.84424" lon="4.69521">
        <ele>266.37103</ele>
        <time>2022-08-09T15:15:00.000Z</time>
      </trkpt>
      <trkpt lat="45.84428" lon="4.69519">
        <ele>266.19028</ele>
        <time>2022-08-09T15:15:01.000Z</time>
      </trkpt>
      <trkpt lat="45.84432" lon="4.69518">
        <ele>265.99162</ele>
        <time>2022-08-09T15:15:02.000Z</time>
      </trkpt>
      <trkpt lat="45.84435" lon="4.69517">
        <ele>265.7633</ele>
        <time>2022-08-09T15:15:03.000Z</time>
      </trkpt>
      <trkpt lat="45.84439" lon="4.69516">
        <ele>265.53162</ele>
        <time>2022-08-09T15:15:04.000Z</time>
      </trkpt>
      <trkpt lat="45.84443" lon="4.69515">
        <ele>265.26529</ele>
        <time>2022-08-09T15:15:05.000Z</time>
      </trkpt>
      <trkpt lat="45.84451" lon="4.69512">
        <ele>264.66909</ele>
        <time>2022-08-09T15:15:07.000Z</time>
      </trkpt>
      <trkpt lat="45.84455" lon="4.69511">
        <ele>264.36242</ele>
        <time>2022-08-09T15:15:08.000Z</time>
      </trkpt>
      <trkpt lat="45.84463" lon="4.69508">
        <ele>263.73263</ele>
        <time>2022-08-09T15:15:10.000Z</time>
      </trkpt>
      <trkpt lat="45.84466" lon="4.69507">
        <ele>263.46066</ele>
        <time>2022-08-09T15:15:11.000Z</time>
      </trkpt>
      <trkpt lat="45.84471" lon="4.69504">
        <ele>263.00305</ele>
        <time>2022-08-09T15:15:13.000Z</time>
      </trkpt>
      <trkpt lat="45.84473" lon="4.69502">
        <ele>262.80784</ele>
        <time>2022-08-09T15:15:14.000Z</time>
      </trkpt>
      <trkpt lat="45.84475" lon="4.69501">
        <ele>262.65128</ele>
        <time>2022-08-09T15:15:15.000Z</time>
      </trkpt>
      <trkpt lat="45.84477" lon="4.695">
        <ele>262.53362</ele>
        <time>2022-08-09T15:15:16.000Z</time>
      </trkpt>
      <trkpt lat="45.84479" lon="4.69498">
        <ele>262.40519</ele>
        <time>2022-08-09T15:15:17.000Z</time>
      </trkpt>
      <trkpt lat="45.84481" lon="4.69495">
        <ele>262.30177</ele>
        <time>2022-08-09T15:15:18.000Z</time>
      </trkpt>
      <trkpt lat="45.84483" lon="4.69492">
        <ele>262.22999</ele>
        <time>2022-08-09T15:15:19.000Z</time>
      </trkpt>
      <trkpt lat="45.84485" lon="4.6949">
        <ele>262.14555</ele>
        <time>2022-08-09T15:15:20.000Z</time>
      </trkpt>
      <trkpt lat="45.84487" lon="4.69489">
        <ele>262.03665</ele>
        <time>2022-08-09T15:15:21.000Z</time>
      </trkpt>
      <trkpt lat="45.84489" lon="4.69489">
        <ele>261.8958</ele>
        <time>2022-08-09T15:15:22.000Z</time>
      </trkpt>
      <trkpt lat="45.84495" lon="4.69485">
        <ele>261.66056</ele>
        <time>2022-08-09T15:15:24.000Z</time>
      </trkpt>
      <trkpt lat="45.84498" lon="4.69482">
        <ele>261.58235</ele>
        <time>2022-08-09T15:15:25.000Z</time>
      </trkpt>
      <trkpt lat="45.84501" lon="4.69479">
        <ele>261.49725</ele>
        <time>2022-08-09T15:15:26.000Z</time>
      </trkpt>
      <trkpt lat="45.84505" lon="4.69476">
        <ele>261.40589</ele>
        <time>2022-08-09T15:15:27.000Z</time>
      </trkpt>
      <trkpt lat="45.8451" lon="4.69472">
        <ele>261.32987</ele>
        <time>2022-08-09T15:15:28.000Z</time>
      </trkpt>
      <trkpt lat="45.84513" lon="4.69469">
        <ele>261.25992</ele>
        <time>2022-08-09T15:15:29.000Z</time>
      </trkpt>
      <trkpt lat="45.84517" lon="4.69467">
        <ele>261.19261</ele>
        <time>2022-08-09T15:15:30.000Z</time>
      </trkpt>
      <trkpt lat="45.8452" lon="4.69464">
        <ele>261.12141</ele>
        <time>2022-08-09T15:15:31.000Z</time>
      </trkpt>
      <trkpt lat="45.84523" lon="4.69461">
        <ele>261.0305</ele>
        <time>2022-08-09T15:15:32.000Z</time>
      </trkpt>
      <trkpt lat="45.84526" lon="4.69459">
        <ele>260.93058</ele>
        <time>2022-08-09T15:15:33.000Z</time>
      </trkpt>
      <trkpt lat="45.84529" lon="4.69456">
        <ele>260.8432</ele>
        <time>2022-08-09T15:15:34.000Z</time>
      </trkpt>
      <trkpt lat="45.84533" lon="4.69453">
        <ele>260.76169</ele>
        <time>2022-08-09T15:15:35.000Z</time>
      </trkpt>
      <trkpt lat="45.84536" lon="4.6945">
        <ele>260.69523</ele>
        <time>2022-08-09T15:15:36.000Z</time>
      </trkpt>
      <trkpt lat="45.8454" lon="4.69447">
        <ele>260.6285</ele>
        <time>2022-08-09T15:15:37.000Z</time>
      </trkpt>
      <trkpt lat="45.84543" lon="4.69445">
        <ele>260.53633</ele>
        <time>2022-08-09T15:15:38.000Z</time>
      </trkpt>
      <trkpt lat="45.84545" lon="4.69441">
        <ele>260.41125</ele>
        <time>2022-08-09T15:15:39.000Z</time>
      </trkpt>
      <trkpt lat="45.84548" lon="4.69438">
        <ele>260.25269</ele>
        <time>2022-08-09T15:15:40.000Z</time>
      </trkpt>
      <trkpt lat="45.84551" lon="4.69435">
        <ele>260.06828</ele>
        <time>2022-08-09T15:15:41.000Z</time>
      </trkpt>
      <trkpt lat="45.84558" lon="4.6943">
        <ele>259.7193</ele>
        <time>2022-08-09T15:15:43.000Z</time>
      </trkpt>
      <trkpt lat="45.84561" lon="4.69428">
        <ele>259.55231</ele>
        <time>2022-08-09T15:15:44.000Z</time>
      </trkpt>
      <trkpt lat="45.84564" lon="4.69425">
        <ele>259.36988</ele>
        <time>2022-08-09T15:15:45.000Z</time>
      </trkpt>
      <trkpt lat="45.84568" lon="4.69423">
        <ele>259.1768</ele>
        <time>2022-08-09T15:15:46.000Z</time>
      </trkpt>
      <trkpt lat="45.84572" lon="4.6942">
        <ele>258.96767</ele>
        <time>2022-08-09T15:15:47.000Z</time>
      </trkpt>
      <trkpt lat="45.84575" lon="4.69417">
        <ele>258.76724</ele>
        <time>2022-08-09T15:15:48.000Z</time>
      </trkpt>
      <trkpt lat="45.84579" lon="4.69414">
        <ele>258.52518</ele>
        <time>2022-08-09T15:15:49.000Z</time>
      </trkpt>
      <trkpt lat="45.84582" lon="4.69411">
        <ele>258.29353</ele>
        <time>2022-08-09T15:15:50.000Z</time>
      </trkpt>
      <trkpt lat="45.84585" lon="4.69408">
        <ele>258.05444</ele>
        <time>2022-08-09T15:15:51.000Z</time>
      </trkpt>
      <trkpt lat="45.84588" lon="4.69405">
        <ele>257.78121</ele>
        <time>2022-08-09T15:15:52.000Z</time>
      </trkpt>
      <trkpt lat="45.84592" lon="4.69401">
        <ele>257.47635</ele>
        <time>2022-08-09T15:15:53.000Z</time>
      </trkpt>
      <trkpt lat="45.84595" lon="4.69398">
        <ele>257.18317</ele>
        <time>2022-08-09T15:15:54.000Z</time>
      </trkpt>
      <trkpt lat="45.84599" lon="4.69395">
        <ele>256.88318</ele>
        <time>2022-08-09T15:15:55.000Z</time>
      </trkpt>
      <trkpt lat="45.84602" lon="4.69392">
        <ele>256.60113</ele>
        <time>2022-08-09T15:15:56.000Z</time>
      </trkpt>
      <trkpt lat="45.84606" lon="4.69389">
        <ele>256.31039</ele>
        <time>2022-08-09T15:15:57.000Z</time>
      </trkpt>
      <trkpt lat="45.8461" lon="4.69386">
        <ele>256.02646</ele>
        <time>2022-08-09T15:15:58.000Z</time>
      </trkpt>
      <trkpt lat="45.84614" lon="4.69382">
        <ele>255.7739</ele>
        <time>2022-08-09T15:15:59.000Z</time>
      </trkpt>
      <trkpt lat="45.84617" lon="4.69379">
        <ele>255.59783</ele>
        <time>2022-08-09T15:16:00.000Z</time>
      </trkpt>
      <trkpt lat="45.8462" lon="4.69375">
        <ele>255.47389</ele>
        <time>2022-08-09T15:16:01.000Z</time>
      </trkpt>
      <trkpt lat="45.84622" lon="4.69373">
        <ele>255.38611</ele>
        <time>2022-08-09T15:16:02.000Z</time>
      </trkpt>
      <trkpt lat="45.84623" lon="4.6937">
        <ele>255.31782</ele>
        <time>2022-08-09T15:16:05.000Z</time>
      </trkpt>
      <trkpt lat="45.84626" lon="4.69366">
        <ele>255.19402</ele>
        <time>2022-08-09T15:16:13.000Z</time>
      </trkpt>
      <trkpt lat="45.84628" lon="4.69362">
        <ele>255.08158</ele>
        <time>2022-08-09T15:16:14.000Z</time>
      </trkpt>
      <trkpt lat="45.84629" lon="4.69357">
        <ele>254.94121</ele>
        <time>2022-08-09T15:16:15.000Z</time>
      </trkpt>
      <trkpt lat="45.84631" lon="4.69349">
        <ele>254.63092</ele>
        <time>2022-08-09T15:16:17.000Z</time>
      </trkpt>
      <trkpt lat="45.84633" lon="4.69344">
        <ele>254.43646</ele>
        <time>2022-08-09T15:16:18.000Z</time>
      </trkpt>
      <trkpt lat="45.84634" lon="4.69339">
        <ele>254.19773</ele>
        <time>2022-08-09T15:16:19.000Z</time>
      </trkpt>
      <trkpt lat="45.84637" lon="4.69329">
        <ele>253.72898</ele>
        <time>2022-08-09T15:16:21.000Z</time>
      </trkpt>
      <trkpt lat="45.84638" lon="4.69325">
        <ele>253.50577</ele>
        <time>2022-08-09T15:16:22.000Z</time>
      </trkpt>
      <trkpt lat="45.84639" lon="4.69321">
        <ele>253.28816</ele>
        <time>2022-08-09T15:16:23.000Z</time>
      </trkpt>
      <trkpt lat="45.84639" lon="4.69318">
        <ele>253.09499</ele>
        <time>2022-08-09T15:16:24.000Z</time>
      </trkpt>
      <trkpt lat="45.8464" lon="4.69315">
        <ele>252.93452</ele>
        <time>2022-08-09T15:16:25.000Z</time>
      </trkpt>
      <trkpt lat="45.84641" lon="4.69312">
        <ele>252.79305</ele>
        <time>2022-08-09T15:16:26.000Z</time>
      </trkpt>
      <trkpt lat="45.84642" lon="4.6931">
        <ele>252.65355</ele>
        <time>2022-08-09T15:16:27.000Z</time>
      </trkpt>
      <trkpt lat="45.84644" lon="4.69307">
        <ele>252.5036</ele>
        <time>2022-08-09T15:16:28.000Z</time>
      </trkpt>
      <trkpt lat="45.84645" lon="4.69304">
        <ele>252.29593</ele>
        <time>2022-08-09T15:16:29.000Z</time>
      </trkpt>
      <trkpt lat="45.84646" lon="4.693">
        <ele>252.00885</ele>
        <time>2022-08-09T15:16:30.000Z</time>
      </trkpt>
      <trkpt lat="45.84647" lon="4.69294">
        <ele>251.65698</ele>
        <time>2022-08-09T15:16:31.000Z</time>
      </trkpt>
      <trkpt lat="45.84648" lon="4.69289">
        <ele>251.2947</ele>
        <time>2022-08-09T15:16:32.000Z</time>
      </trkpt>
      <trkpt lat="45.8465" lon="4.69279">
        <ele>250.51869</ele>
        <time>2022-08-09T15:16:34.000Z</time>
      </trkpt>
      <trkpt lat="45.84651" lon="4.69273">
        <ele>250.05264</ele>
        <time>2022-08-09T15:16:35.000Z</time>
      </trkpt>
      <trkpt lat="45.84652" lon="4.69268">
        <ele>249.55872</ele>
        <time>2022-08-09T15:16:36.000Z</time>
      </trkpt>
      <trkpt lat="45.84654" lon="4.69262">
        <ele>249.08325</ele>
        <time>2022-08-09T15:16:37.000Z</time>
      </trkpt>
      <trkpt lat="45.84655" lon="4.69257">
        <ele>248.61955</ele>
        <time>2022-08-09T15:16:38.000Z</time>
      </trkpt>
      <trkpt lat="45.84657" lon="4.69253">
        <ele>248.16598</ele>
        <time>2022-08-09T15:16:39.000Z</time>
      </trkpt>
      <trkpt lat="45.84658" lon="4.69248">
        <ele>247.6776</ele>
        <time>2022-08-09T15:16:40.000Z</time>
      </trkpt>
      <trkpt lat="45.84659" lon="4.69244">
        <ele>247.28746</ele>
        <time>2022-08-09T15:16:41.000Z</time>
      </trkpt>
      <trkpt lat="45.8466" lon="4.69241">
        <ele>246.96944</ele>
        <time>2022-08-09T15:16:42.000Z</time>
      </trkpt>
      <trkpt lat="45.84662" lon="4.69234">
        <ele>246.22876</ele>
        <time>2022-08-09T15:16:44.000Z</time>
      </trkpt>
      <trkpt lat="45.84663" lon="4.6923">
        <ele>245.93082</ele>
        <time>2022-08-09T15:16:45.000Z</time>
      </trkpt>
      <trkpt lat="45.84664" lon="4.69227">
        <ele>245.67757</ele>
        <time>2022-08-09T15:16:46.000Z</time>
      </trkpt>
      <trkpt lat="45.84664" lon="4.69223">
        <ele>245.42919</ele>
        <time>2022-08-09T15:16:47.000Z</time>
      </trkpt>
      <trkpt lat="45.84665" lon="4.6922">
        <ele>245.18675</ele>
        <time>2022-08-09T15:16:48.000Z</time>
      </trkpt>
      <trkpt lat="45.84666" lon="4.69216">
        <ele>244.95185</ele>
        <time>2022-08-09T15:16:49.000Z</time>
      </trkpt>
      <trkpt lat="45.84667" lon="4.69211">
        <ele>244.68959</ele>
        <time>2022-08-09T15:16:50.000Z</time>
      </trkpt>
      <trkpt lat="45.84668" lon="4.69206">
        <ele>244.39745</ele>
        <time>2022-08-09T15:16:51.000Z</time>
      </trkpt>
      <trkpt lat="45.84668" lon="4.69201">
        <ele>244.06186</ele>
        <time>2022-08-09T15:16:52.000Z</time>
      </trkpt>
      <trkpt lat="45.84669" lon="4.69197">
        <ele>243.6559</ele>
        <time>2022-08-09T15:16:53.000Z</time>
      </trkpt>
      <trkpt lat="45.84669" lon="4.69191">
        <ele>243.09893</ele>
        <time>2022-08-09T15:16:54.000Z</time>
      </trkpt>
      <trkpt lat="45.84669" lon="4.69186">
        <ele>242.43577</ele>
        <time>2022-08-09T15:16:55.000Z</time>
      </trkpt>
      <trkpt lat="45.84669" lon="4.69181">
        <ele>241.71004</ele>
        <time>2022-08-09T15:16:56.000Z</time>
      </trkpt>
      <trkpt lat="45.84668" lon="4.69176">
        <ele>240.91266</ele>
        <time>2022-08-09T15:16:57.000Z</time>
      </trkpt>
      <trkpt lat="45.84668" lon="4.6917">
        <ele>240.12434</ele>
        <time>2022-08-09T15:16:58.000Z</time>
      </trkpt>
      <trkpt lat="45.84668" lon="4.69165">
        <ele>239.38993</ele>
        <time>2022-08-09T15:16:59.000Z</time>
      </trkpt>
      <trkpt lat="45.84668" lon="4.69159">
        <ele>238.8074</ele>
        <time>2022-08-09T15:17:00.000Z</time>
      </trkpt>
      <trkpt lat="45.84668" lon="4.69151">
        <ele>237.95898</ele>
        <time>2022-08-09T15:17:02.000Z</time>
      </trkpt>
      <trkpt lat="45.84667" lon="4.69147">
        <ele>237.54193</ele>
        <time>2022-08-09T15:17:03.000Z</time>
      </trkpt>
      <trkpt lat="45.84667" lon="4.69142">
        <ele>237.10283</ele>
        <time>2022-08-09T15:17:04.000Z</time>
      </trkpt>
      <trkpt lat="45.84666" lon="4.69138">
        <ele>236.63672</ele>
        <time>2022-08-09T15:17:05.000Z</time>
      </trkpt>
      <trkpt lat="45.84666" lon="4.69133">
        <ele>236.18286</ele>
        <time>2022-08-09T15:17:06.000Z</time>
      </trkpt>
      <trkpt lat="45.84665" lon="4.69128">
        <ele>235.83628</ele>
        <time>2022-08-09T15:17:07.000Z</time>
      </trkpt>
      <trkpt lat="45.84666" lon="4.69123">
        <ele>235.6807</ele>
        <time>2022-08-09T15:17:08.000Z</time>
      </trkpt>
      <trkpt lat="45.84666" lon="4.69117">
        <ele>235.63396</ele>
        <time>2022-08-09T15:17:09.000Z</time>
      </trkpt>
      <trkpt lat="45.84667" lon="4.69111">
        <ele>235.58845</ele>
        <time>2022-08-09T15:17:10.000Z</time>
      </trkpt>
      <trkpt lat="45.84668" lon="4.69106">
        <ele>235.44369</ele>
        <time>2022-08-09T15:17:11.000Z</time>
      </trkpt>
      <trkpt lat="45.84668" lon="4.691">
        <ele>235.13731</ele>
        <time>2022-08-09T15:17:12.000Z</time>
      </trkpt>
      <trkpt lat="45.84668" lon="4.69094">
        <ele>234.77418</ele>
        <time>2022-08-09T15:17:13.000Z</time>
      </trkpt>
      <trkpt lat="45.8467" lon="4.69089">
        <ele>234.38482</ele>
        <time>2022-08-09T15:17:14.000Z</time>
      </trkpt>
      <trkpt lat="45.84671" lon="4.69084">
        <ele>233.92039</ele>
        <time>2022-08-09T15:17:15.000Z</time>
      </trkpt>
      <trkpt lat="45.84673" lon="4.69079">
        <ele>233.40674</ele>
        <time>2022-08-09T15:17:16.000Z</time>
      </trkpt>
      <trkpt lat="45.84674" lon="4.69074">
        <ele>232.79651</ele>
        <time>2022-08-09T15:17:17.000Z</time>
      </trkpt>
      <trkpt lat="45.84676" lon="4.69069">
        <ele>232.12714</ele>
        <time>2022-08-09T15:17:18.000Z</time>
      </trkpt>
      <trkpt lat="45.84679" lon="4.69064">
        <ele>231.38105</ele>
        <time>2022-08-09T15:17:19.000Z</time>
      </trkpt>
      <trkpt lat="45.84682" lon="4.69059">
        <ele>230.59066</ele>
        <time>2022-08-09T15:17:20.000Z</time>
      </trkpt>
      <trkpt lat="45.84689" lon="4.69053">
        <ele>229.88349</ele>
        <time>2022-08-09T15:17:21.000Z</time>
      </trkpt>
      <trkpt lat="45.84696" lon="4.69046">
        <ele>229.0041</ele>
        <time>2022-08-09T15:17:23.000Z</time>
      </trkpt>
      <trkpt lat="45.84699" lon="4.69043">
        <ele>228.74708</ele>
        <time>2022-08-09T15:17:24.000Z</time>
      </trkpt>
      <trkpt lat="45.84702" lon="4.6904">
        <ele>228.50781</ele>
        <time>2022-08-09T15:17:25.000Z</time>
      </trkpt>
      <trkpt lat="45.84706" lon="4.69038">
        <ele>228.36833</ele>
        <time>2022-08-09T15:17:26.000Z</time>
      </trkpt>
      <trkpt lat="45.8471" lon="4.69036">
        <ele>228.20844</ele>
        <time>2022-08-09T15:17:27.000Z</time>
      </trkpt>
      <trkpt lat="45.84714" lon="4.69035">
        <ele>228.11433</ele>
        <time>2022-08-09T15:17:28.000Z</time>
      </trkpt>
      <trkpt lat="45.84718" lon="4.69033">
        <ele>227.75249</ele>
        <time>2022-08-09T15:17:29.000Z</time>
      </trkpt>
      <trkpt lat="45.84723" lon="4.69032">
        <ele>227.515</ele>
        <time>2022-08-09T15:17:30.000Z</time>
      </trkpt>
      <trkpt lat="45.84727" lon="4.69029">
        <ele>227.03318</ele>
        <time>2022-08-09T15:17:31.000Z</time>
      </trkpt>
      <trkpt lat="45.84731" lon="4.69027">
        <ele>226.55997</ele>
        <time>2022-08-09T15:17:32.000Z</time>
      </trkpt>
      <trkpt lat="45.84739" lon="4.69023">
        <ele>226.11375</ele>
        <time>2022-08-09T15:17:34.000Z</time>
      </trkpt>
      <trkpt lat="45.84743" lon="4.69021">
        <ele>225.97423</ele>
        <time>2022-08-09T15:17:35.000Z</time>
      </trkpt>
      <trkpt lat="45.84747" lon="4.69018">
        <ele>225.74105</ele>
        <time>2022-08-09T15:17:36.000Z</time>
      </trkpt>
      <trkpt lat="45.8475" lon="4.69014">
        <ele>225.31933</ele>
        <time>2022-08-09T15:17:37.000Z</time>
      </trkpt>
      <trkpt lat="45.84754" lon="4.6901">
        <ele>224.7906</ele>
        <time>2022-08-09T15:17:38.000Z</time>
      </trkpt>
      <trkpt lat="45.8476" lon="4.69006">
        <ele>224.29666</ele>
        <time>2022-08-09T15:17:39.000Z</time>
      </trkpt>
      <trkpt lat="45.84764" lon="4.69001">
        <ele>223.86339</ele>
        <time>2022-08-09T15:17:40.000Z</time>
      </trkpt>
      <trkpt lat="45.84767" lon="4.68998">
        <ele>223.57979</ele>
        <time>2022-08-09T15:17:41.000Z</time>
      </trkpt>
      <trkpt lat="45.8477" lon="4.68995">
        <ele>223.31324</ele>
        <time>2022-08-09T15:17:42.000Z</time>
      </trkpt>
      <trkpt lat="45.84773" lon="4.68992">
        <ele>222.98579</ele>
        <time>2022-08-09T15:17:43.000Z</time>
      </trkpt>
      <trkpt lat="45.84776" lon="4.68989">
        <ele>222.73451</ele>
        <time>2022-08-09T15:17:44.000Z</time>
      </trkpt>
      <trkpt lat="45.8478" lon="4.68986">
        <ele>222.36479</ele>
        <time>2022-08-09T15:17:45.000Z</time>
      </trkpt>
      <trkpt lat="45.84785" lon="4.68981">
        <ele>221.86332</ele>
        <time>2022-08-09T15:17:46.000Z</time>
      </trkpt>
      <trkpt lat="45.84788" lon="4.68978">
        <ele>221.52921</ele>
        <time>2022-08-09T15:17:47.000Z</time>
      </trkpt>
      <trkpt lat="45.84792" lon="4.68974">
        <ele>221.14306</ele>
        <time>2022-08-09T15:17:48.000Z</time>
      </trkpt>
      <trkpt lat="45.84795" lon="4.6897">
        <ele>220.76962</ele>
        <time>2022-08-09T15:17:49.000Z</time>
      </trkpt>
      <trkpt lat="45.84798" lon="4.68967">
        <ele>220.49386</ele>
        <time>2022-08-09T15:17:50.000Z</time>
      </trkpt>
      <trkpt lat="45.84802" lon="4.68964">
        <ele>220.21811</ele>
        <time>2022-08-09T15:17:51.000Z</time>
      </trkpt>
      <trkpt lat="45.84805" lon="4.6896">
        <ele>219.90597</ele>
        <time>2022-08-09T15:17:52.000Z</time>
      </trkpt>
      <trkpt lat="45.84809" lon="4.68957">
        <ele>219.51493</ele>
        <time>2022-08-09T15:17:53.000Z</time>
      </trkpt>
      <trkpt lat="45.84812" lon="4.68954">
        <ele>219.09754</ele>
        <time>2022-08-09T15:17:54.000Z</time>
      </trkpt>
      <trkpt lat="45.84816" lon="4.68951">
        <ele>218.67333</ele>
        <time>2022-08-09T15:17:55.000Z</time>
      </trkpt>
      <trkpt lat="45.84819" lon="4.68949">
        <ele>218.28729</ele>
        <time>2022-08-09T15:17:56.000Z</time>
      </trkpt>
      <trkpt lat="45.84822" lon="4.68946">
        <ele>217.94354</ele>
        <time>2022-08-09T15:17:57.000Z</time>
      </trkpt>
      <trkpt lat="45.84825" lon="4.68944">
        <ele>217.68496</ele>
        <time>2022-08-09T15:17:58.000Z</time>
      </trkpt>
      <trkpt lat="45.84827" lon="4.68942">
        <ele>217.4968</ele>
        <time>2022-08-09T15:17:59.000Z</time>
      </trkpt>
      <trkpt lat="45.8483" lon="4.6894">
        <ele>217.33309</ele>
        <time>2022-08-09T15:18:00.000Z</time>
      </trkpt>
      <trkpt lat="45.84832" lon="4.68938">
        <ele>217.22087</ele>
        <time>2022-08-09T15:18:01.000Z</time>
      </trkpt>
      <trkpt lat="45.84833" lon="4.68936">
        <ele>217.12625</ele>
        <time>2022-08-09T15:18:02.000Z</time>
      </trkpt>
      <trkpt lat="45.84835" lon="4.68935">
        <ele>217.05959</ele>
        <time>2022-08-09T15:18:03.000Z</time>
      </trkpt>
      <trkpt lat="45.84838" lon="4.68932">
        <ele>216.97842</ele>
        <time>2022-08-09T15:18:05.000Z</time>
      </trkpt>
      <trkpt lat="45.84841" lon="4.68929">
        <ele>216.85285</ele>
        <time>2022-08-09T15:18:07.000Z</time>
      </trkpt>
      <trkpt lat="45.84843" lon="4.68927">
        <ele>216.77885</ele>
        <time>2022-08-09T15:18:08.000Z</time>
      </trkpt>
      <trkpt lat="45.84846" lon="4.68924">
        <ele>216.70028</ele>
        <time>2022-08-09T15:18:09.000Z</time>
      </trkpt>
      <trkpt lat="45.8485" lon="4.68922">
        <ele>216.62452</ele>
        <time>2022-08-09T15:18:10.000Z</time>
      </trkpt>
      <trkpt lat="45.84855" lon="4.68919">
        <ele>216.56465</ele>
        <time>2022-08-09T15:18:11.000Z</time>
      </trkpt>
      <trkpt lat="45.84859" lon="4.68917">
        <ele>216.46717</ele>
        <time>2022-08-09T15:18:12.000Z</time>
      </trkpt>
      <trkpt lat="45.84863" lon="4.68914">
        <ele>216.21729</ele>
        <time>2022-08-09T15:18:13.000Z</time>
      </trkpt>
      <trkpt lat="45.84868" lon="4.68909">
        <ele>215.78011</ele>
        <time>2022-08-09T15:18:14.000Z</time>
      </trkpt>
      <trkpt lat="45.84872" lon="4.68907">
        <ele>215.45005</ele>
        <time>2022-08-09T15:18:15.000Z</time>
      </trkpt>
      <trkpt lat="45.84876" lon="4.68904">
        <ele>215.15852</ele>
        <time>2022-08-09T15:18:16.000Z</time>
      </trkpt>
      <trkpt lat="45.84881" lon="4.689">
        <ele>214.95861</ele>
        <time>2022-08-09T15:18:17.000Z</time>
      </trkpt>
      <trkpt lat="45.84886" lon="4.68897">
        <ele>214.95156</ele>
        <time>2022-08-09T15:18:18.000Z</time>
      </trkpt>
      <trkpt lat="45.84894" lon="4.68892">
        <ele>214.90617</ele>
        <time>2022-08-09T15:18:20.000Z</time>
      </trkpt>
      <trkpt lat="45.84898" lon="4.6889">
        <ele>214.75801</ele>
        <time>2022-08-09T15:18:21.000Z</time>
      </trkpt>
      <trkpt lat="45.84901" lon="4.68887">
        <ele>214.60465</ele>
        <time>2022-08-09T15:18:22.000Z</time>
      </trkpt>
      <trkpt lat="45.84903" lon="4.68884">
        <ele>214.5034</ele>
        <time>2022-08-09T15:18:23.000Z</time>
      </trkpt>
      <trkpt lat="45.84906" lon="4.68878">
        <ele>214.25518</ele>
        <time>2022-08-09T15:18:24.000Z</time>
      </trkpt>
      <trkpt lat="45.84909" lon="4.68875">
        <ele>214.09803</ele>
        <time>2022-08-09T15:18:25.000Z</time>
      </trkpt>
      <trkpt lat="45.84912" lon="4.68872">
        <ele>213.89085</ele>
        <time>2022-08-09T15:18:26.000Z</time>
      </trkpt>
      <trkpt lat="45.84916" lon="4.68868">
        <ele>213.57295</ele>
        <time>2022-08-09T15:18:27.000Z</time>
      </trkpt>
      <trkpt lat="45.8492" lon="4.68864">
        <ele>213.34213</ele>
        <time>2022-08-09T15:18:28.000Z</time>
      </trkpt>
      <trkpt lat="45.84924" lon="4.68861">
        <ele>213.31341</ele>
        <time>2022-08-09T15:18:29.000Z</time>
      </trkpt>
      <trkpt lat="45.84929" lon="4.68857">
        <ele>213.51112</ele>
        <time>2022-08-09T15:18:30.000Z</time>
      </trkpt>
      <trkpt lat="45.84932" lon="4.68853">
        <ele>213.87478</ele>
        <time>2022-08-09T15:18:31.000Z</time>
      </trkpt>
      <trkpt lat="45.84937" lon="4.68851">
        <ele>214.05532</ele>
        <time>2022-08-09T15:18:32.000Z</time>
      </trkpt>
      <trkpt lat="45.8494" lon="4.68851">
        <ele>213.93139</ele>
        <time>2022-08-09T15:18:33.000Z</time>
      </trkpt>
      <trkpt lat="45.84943" lon="4.68846">
        <ele>213.65984</ele>
        <time>2022-08-09T15:18:34.000Z</time>
      </trkpt>
      <trkpt lat="45.84947" lon="4.68843">
        <ele>213.06052</ele>
        <time>2022-08-09T15:18:35.000Z</time>
      </trkpt>
      <trkpt lat="45.84951" lon="4.6884">
        <ele>212.47592</ele>
        <time>2022-08-09T15:18:36.000Z</time>
      </trkpt>
      <trkpt lat="45.84956" lon="4.68837">
        <ele>212.22535</ele>
        <time>2022-08-09T15:18:37.000Z</time>
      </trkpt>
      <trkpt lat="45.8496" lon="4.68833">
        <ele>212.54756</ele>
        <time>2022-08-09T15:18:38.000Z</time>
      </trkpt>
      <trkpt lat="45.84964" lon="4.68828">
        <ele>213.12333</ele>
        <time>2022-08-09T15:18:39.000Z</time>
      </trkpt>
      <trkpt lat="45.84968" lon="4.68824">
        <ele>213.29417</ele>
        <time>2022-08-09T15:18:40.000Z</time>
      </trkpt>
      <trkpt lat="45.84973" lon="4.68819">
        <ele>212.83723</ele>
        <time>2022-08-09T15:18:41.000Z</time>
      </trkpt>
      <trkpt lat="45.84977" lon="4.68815">
        <ele>212.43833</ele>
        <time>2022-08-09T15:18:42.000Z</time>
      </trkpt>
      <trkpt lat="45.84981" lon="4.6881">
        <ele>212.37116</ele>
        <time>2022-08-09T15:18:43.000Z</time>
      </trkpt>
      <trkpt lat="45.84985" lon="4.68804">
        <ele>212.92243</ele>
        <time>2022-08-09T15:18:44.000Z</time>
      </trkpt>
      <trkpt lat="45.8499" lon="4.68798">
        <ele>213.81673</ele>
        <time>2022-08-09T15:18:45.000Z</time>
      </trkpt>
      <trkpt lat="45.84994" lon="4.68791">
        <ele>214.55173</ele>
        <time>2022-08-09T15:18:46.000Z</time>
      </trkpt>
      <trkpt lat="45.84998" lon="4.68786">
        <ele>214.82519</ele>
        <time>2022-08-09T15:18:47.000Z</time>
      </trkpt>
      <trkpt lat="45.85001" lon="4.6878">
        <ele>214.83144</ele>
        <time>2022-08-09T15:18:48.000Z</time>
      </trkpt>
      <trkpt lat="45.85005" lon="4.68772">
        <ele>214.83372</ele>
        <time>2022-08-09T15:18:49.000Z</time>
      </trkpt>
      <trkpt lat="45.85008" lon="4.68764">
        <ele>215.01086</ele>
        <time>2022-08-09T15:18:50.000Z</time>
      </trkpt>
      <trkpt lat="45.85011" lon="4.68757">
        <ele>215.68331</ele>
        <time>2022-08-09T15:18:51.000Z</time>
      </trkpt>
      <trkpt lat="45.85014" lon="4.68749">
        <ele>216.596</ele>
        <time>2022-08-09T15:18:52.000Z</time>
      </trkpt>
      <trkpt lat="45.85016" lon="4.68743">
        <ele>217.57876</ele>
        <time>2022-08-09T15:18:53.000Z</time>
      </trkpt>
      <trkpt lat="45.85019" lon="4.68737">
        <ele>218.38966</ele>
        <time>2022-08-09T15:18:54.000Z</time>
      </trkpt>
      <trkpt lat="45.85021" lon="4.68731">
        <ele>219.05668</ele>
        <time>2022-08-09T15:18:55.000Z</time>
      </trkpt>
      <trkpt lat="45.85023" lon="4.68725">
        <ele>219.40242</ele>
        <time>2022-08-09T15:18:56.000Z</time>
      </trkpt>
      <trkpt lat="45.85025" lon="4.68719">
        <ele>219.35564</ele>
        <time>2022-08-09T15:18:57.000Z</time>
      </trkpt>
      <trkpt lat="45.85028" lon="4.68713">
        <ele>218.98409</ele>
        <time>2022-08-09T15:18:58.000Z</time>
      </trkpt>
      <trkpt lat="45.85029" lon="4.68708">
        <ele>218.38644</ele>
        <time>2022-08-09T15:18:59.000Z</time>
      </trkpt>
      <trkpt lat="45.85032" lon="4.68702">
        <ele>217.84773</ele>
        <time>2022-08-09T15:19:00.000Z</time>
      </trkpt>
      <trkpt lat="45.85034" lon="4.68697">
        <ele>217.50622</ele>
        <time>2022-08-09T15:19:01.000Z</time>
      </trkpt>
      <trkpt lat="45.85036" lon="4.68692">
        <ele>217.49305</ele>
        <time>2022-08-09T15:19:02.000Z</time>
      </trkpt>
      <trkpt lat="45.85037" lon="4.68687">
        <ele>217.71854</ele>
        <time>2022-08-09T15:19:03.000Z</time>
      </trkpt>
      <trkpt lat="45.85037" lon="4.68687">
        <ele>217.71854</ele>
        <time>2022-08-09T15:19:03.000Z</time>
      </trkpt>
      <trkpt lat="45.8504" lon="4.68682">
        <ele>218.29282</ele>
        <time>2022-08-09T15:19:04.000Z</time>
      </trkpt>
      <trkpt lat="45.85041" lon="4.68678">
        <ele>218.71721</ele>
        <time>2022-08-09T15:19:05.000Z</time>
      </trkpt>
      <trkpt lat="45.8504" lon="4.68675">
        <ele>218.89919</ele>
        <time>2022-08-09T15:19:06.000Z</time>
      </trkpt>
      <trkpt lat="45.85038" lon="4.68671">
        <ele>219.26163</ele>
        <time>2022-08-09T15:19:07.000Z</time>
      </trkpt>
      <trkpt lat="45.85035" lon="4.68669">
        <ele>219.597</ele>
        <time>2022-08-09T15:19:08.000Z</time>
      </trkpt>
      <trkpt lat="45.85032" lon="4.68668">
        <ele>219.82249</ele>
        <time>2022-08-09T15:19:09.000Z</time>
      </trkpt>
      <trkpt lat="45.85028" lon="4.68668">
        <ele>219.9882</ele>
        <time>2022-08-09T15:19:10.000Z</time>
      </trkpt>
      <trkpt lat="45.85025" lon="4.68668">
        <ele>220.18262</ele>
        <time>2022-08-09T15:19:11.000Z</time>
      </trkpt>
      <trkpt lat="45.85022" lon="4.68668">
        <ele>220.31322</ele>
        <time>2022-08-09T15:19:12.000Z</time>
      </trkpt>
      <trkpt lat="45.85019" lon="4.68669">
        <ele>220.40706</ele>
        <time>2022-08-09T15:19:13.000Z</time>
      </trkpt>
      <trkpt lat="45.85016" lon="4.68669">
        <ele>220.55057</ele>
        <time>2022-08-09T15:19:14.000Z</time>
      </trkpt>
      <trkpt lat="45.85013" lon="4.68669">
        <ele>220.67011</ele>
        <time>2022-08-09T15:19:15.000Z</time>
      </trkpt>
      <trkpt lat="45.8501" lon="4.68669">
        <ele>220.76358</ele>
        <time>2022-08-09T15:19:16.000Z</time>
      </trkpt>
      <trkpt lat="45.85007" lon="4.68669">
        <ele>220.8075</ele>
        <time>2022-08-09T15:19:17.000Z</time>
      </trkpt>
      <trkpt lat="45.85005" lon="4.68669">
        <ele>220.81922</ele>
        <time>2022-08-09T15:19:18.000Z</time>
      </trkpt>
      <trkpt lat="45.85002" lon="4.6867">
        <ele>220.79782</ele>
        <time>2022-08-09T15:19:19.000Z</time>
      </trkpt>
      <trkpt lat="45.84999" lon="4.6867">
        <ele>220.75191</ele>
        <time>2022-08-09T15:19:20.000Z</time>
      </trkpt>
      <trkpt lat="45.84996" lon="4.6867">
        <ele>220.7043</ele>
        <time>2022-08-09T15:19:21.000Z</time>
      </trkpt>
      <trkpt lat="45.84992" lon="4.68669">
        <ele>220.65182</ele>
        <time>2022-08-09T15:19:22.000Z</time>
      </trkpt>
      <trkpt lat="45.84989" lon="4.68668">
        <ele>220.59142</ele>
        <time>2022-08-09T15:19:23.000Z</time>
      </trkpt>
      <trkpt lat="45.84985" lon="4.68668">
        <ele>220.52835</ele>
        <time>2022-08-09T15:19:24.000Z</time>
      </trkpt>
      <trkpt lat="45.84981" lon="4.68668">
        <ele>220.43692</ele>
        <time>2022-08-09T15:19:25.000Z</time>
      </trkpt>
      <trkpt lat="45.84977" lon="4.68667">
        <ele>220.34654</ele>
        <time>2022-08-09T15:19:26.000Z</time>
      </trkpt>
      <trkpt lat="45.84973" lon="4.68667">
        <ele>220.23449</ele>
        <time>2022-08-09T15:19:27.000Z</time>
      </trkpt>
      <trkpt lat="45.84969" lon="4.68667">
        <ele>220.09797</ele>
        <time>2022-08-09T15:19:28.000Z</time>
      </trkpt>
      <trkpt lat="45.84965" lon="4.68667">
        <ele>219.92958</ele>
        <time>2022-08-09T15:19:29.000Z</time>
      </trkpt>
      <trkpt lat="45.8496" lon="4.68667">
        <ele>219.71638</ele>
        <time>2022-08-09T15:19:30.000Z</time>
      </trkpt>
      <trkpt lat="45.84956" lon="4.68667">
        <ele>219.44845</ele>
        <time>2022-08-09T15:19:31.000Z</time>
      </trkpt>
      <trkpt lat="45.84951" lon="4.68667">
        <ele>219.12383</ele>
        <time>2022-08-09T15:19:32.000Z</time>
      </trkpt>
      <trkpt lat="45.84946" lon="4.68667">
        <ele>218.87531</ele>
        <time>2022-08-09T15:19:33.000Z</time>
      </trkpt>
      <trkpt lat="45.84941" lon="4.68668">
        <ele>218.63929</ele>
        <time>2022-08-09T15:19:34.000Z</time>
      </trkpt>
      <trkpt lat="45.84935" lon="4.68667">
        <ele>218.47496</ele>
        <time>2022-08-09T15:19:35.000Z</time>
      </trkpt>
      <trkpt lat="45.84929" lon="4.68667">
        <ele>218.33496</ele>
        <time>2022-08-09T15:19:36.000Z</time>
      </trkpt>
      <trkpt lat="45.84924" lon="4.68667">
        <ele>218.24623</ele>
        <time>2022-08-09T15:19:37.000Z</time>
      </trkpt>
      <trkpt lat="45.84918" lon="4.68666">
        <ele>218.17388</ele>
        <time>2022-08-09T15:19:38.000Z</time>
      </trkpt>
      <trkpt lat="45.84912" lon="4.68665">
        <ele>218.04157</ele>
        <time>2022-08-09T15:19:39.000Z</time>
      </trkpt>
      <trkpt lat="45.84906" lon="4.68664">
        <ele>217.87745</ele>
        <time>2022-08-09T15:19:40.000Z</time>
      </trkpt>
      <trkpt lat="45.849" lon="4.68664">
        <ele>217.70548</ele>
        <time>2022-08-09T15:19:41.000Z</time>
      </trkpt>
      <trkpt lat="45.84895" lon="4.68663">
        <ele>217.54509</ele>
        <time>2022-08-09T15:19:42.000Z</time>
      </trkpt>
      <trkpt lat="45.84889" lon="4.68663">
        <ele>217.39185</ele>
        <time>2022-08-09T15:19:43.000Z</time>
      </trkpt>
      <trkpt lat="45.84882" lon="4.68663">
        <ele>217.20466</ele>
        <time>2022-08-09T15:19:44.000Z</time>
      </trkpt>
      <trkpt lat="45.84875" lon="4.68664">
        <ele>216.9131</ele>
        <time>2022-08-09T15:19:45.000Z</time>
      </trkpt>
      <trkpt lat="45.84863" lon="4.68671">
        <ele>215.87941</ele>
        <time>2022-08-09T15:19:47.000Z</time>
      </trkpt>
      <trkpt lat="45.84856" lon="4.68675">
        <ele>215.31345</ele>
        <time>2022-08-09T15:19:48.000Z</time>
      </trkpt>
      <trkpt lat="45.84848" lon="4.68679">
        <ele>214.78748</ele>
        <time>2022-08-09T15:19:49.000Z</time>
      </trkpt>
      <trkpt lat="45.84842" lon="4.68681">
        <ele>214.40351</ele>
        <time>2022-08-09T15:19:50.000Z</time>
      </trkpt>
      <trkpt lat="45.84835" lon="4.68683">
        <ele>213.97571</ele>
        <time>2022-08-09T15:19:51.000Z</time>
      </trkpt>
      <trkpt lat="45.84827" lon="4.68686">
        <ele>213.64482</ele>
        <time>2022-08-09T15:19:52.000Z</time>
      </trkpt>
      <trkpt lat="45.8482" lon="4.68687">
        <ele>213.51977</ele>
        <time>2022-08-09T15:19:53.000Z</time>
      </trkpt>
      <trkpt lat="45.84814" lon="4.68691">
        <ele>213.42341</ele>
        <time>2022-08-09T15:19:54.000Z</time>
      </trkpt>
      <trkpt lat="45.84807" lon="4.68694">
        <ele>213.43699</ele>
        <time>2022-08-09T15:19:55.000Z</time>
      </trkpt>
      <trkpt lat="45.848" lon="4.68697">
        <ele>213.59441</ele>
        <time>2022-08-09T15:19:56.000Z</time>
      </trkpt>
      <trkpt lat="45.84794" lon="4.68698">
        <ele>213.91569</ele>
        <time>2022-08-09T15:19:57.000Z</time>
      </trkpt>
      <trkpt lat="45.84781" lon="4.687">
        <ele>214.98323</ele>
        <time>2022-08-09T15:19:59.000Z</time>
      </trkpt>
      <trkpt lat="45.84775" lon="4.68702">
        <ele>215.68184</ele>
        <time>2022-08-09T15:20:00.000Z</time>
      </trkpt>
      <trkpt lat="45.8477" lon="4.68704">
        <ele>216.21315</ele>
        <time>2022-08-09T15:20:01.000Z</time>
      </trkpt>
      <trkpt lat="45.84765" lon="4.68708">
        <ele>216.71979</ele>
        <time>2022-08-09T15:20:02.000Z</time>
      </trkpt>
      <trkpt lat="45.84759" lon="4.68711">
        <ele>217.2667</ele>
        <time>2022-08-09T15:20:03.000Z</time>
      </trkpt>
      <trkpt lat="45.84755" lon="4.68715">
        <ele>217.62412</ele>
        <time>2022-08-09T15:20:04.000Z</time>
      </trkpt>
      <trkpt lat="45.84752" lon="4.68721">
        <ele>217.99701</ele>
        <time>2022-08-09T15:20:05.000Z</time>
      </trkpt>
      <trkpt lat="45.8475" lon="4.68728">
        <ele>218.29577</ele>
        <time>2022-08-09T15:20:06.000Z</time>
      </trkpt>
      <trkpt lat="45.84748" lon="4.68731">
        <ele>218.5072</ele>
        <time>2022-08-09T15:20:07.000Z</time>
      </trkpt>
      <trkpt lat="45.84745" lon="4.68736">
        <ele>218.71449</ele>
        <time>2022-08-09T15:20:08.000Z</time>
      </trkpt>
      <trkpt lat="45.84743" lon="4.6874">
        <ele>218.87465</ele>
        <time>2022-08-09T15:20:09.000Z</time>
      </trkpt>
      <trkpt lat="45.84741" lon="4.68745">
        <ele>218.99677</ele>
        <time>2022-08-09T15:20:10.000Z</time>
      </trkpt>
      <trkpt lat="45.84738" lon="4.68751">
        <ele>219.02875</ele>
        <time>2022-08-09T15:20:11.000Z</time>
      </trkpt>
      <trkpt lat="45.84736" lon="4.68756">
        <ele>219.07103</ele>
        <time>2022-08-09T15:20:12.000Z</time>
      </trkpt>
      <trkpt lat="45.84732" lon="4.68761">
        <ele>219.21452</ele>
        <time>2022-08-09T15:20:13.000Z</time>
      </trkpt>
      <trkpt lat="45.84728" lon="4.68765">
        <ele>219.35016</ele>
        <time>2022-08-09T15:20:14.000Z</time>
      </trkpt>
      <trkpt lat="45.84725" lon="4.68771">
        <ele>219.53236</ele>
        <time>2022-08-09T15:20:15.000Z</time>
      </trkpt>
      <trkpt lat="45.84721" lon="4.68776">
        <ele>219.71936</ele>
        <time>2022-08-09T15:20:16.000Z</time>
      </trkpt>
      <trkpt lat="45.84718" lon="4.68781">
        <ele>219.89362</ele>
        <time>2022-08-09T15:20:17.000Z</time>
      </trkpt>
      <trkpt lat="45.84714" lon="4.68786">
        <ele>220.02212</ele>
        <time>2022-08-09T15:20:18.000Z</time>
      </trkpt>
      <trkpt lat="45.8471" lon="4.6879">
        <ele>220.11537</ele>
        <time>2022-08-09T15:20:19.000Z</time>
      </trkpt>
      <trkpt lat="45.84705" lon="4.6879">
        <ele>220.60709</ele>
        <time>2022-08-09T15:20:20.000Z</time>
      </trkpt>
      <trkpt lat="45.84701" lon="4.6879">
        <ele>221.07267</ele>
        <time>2022-08-09T15:20:21.000Z</time>
      </trkpt>
      <trkpt lat="45.84696" lon="4.68791">
        <ele>221.61148</ele>
        <time>2022-08-09T15:20:22.000Z</time>
      </trkpt>
      <trkpt lat="45.84692" lon="4.68785">
        <ele>222.07961</ele>
        <time>2022-08-09T15:20:23.000Z</time>
      </trkpt>
      <trkpt lat="45.84688" lon="4.6878">
        <ele>222.64575</ele>
        <time>2022-08-09T15:20:24.000Z</time>
      </trkpt>
      <trkpt lat="45.84684" lon="4.68777">
        <ele>223.23045</ele>
        <time>2022-08-09T15:20:25.000Z</time>
      </trkpt>
      <trkpt lat="45.8468" lon="4.68774">
        <ele>223.86262</ele>
        <time>2022-08-09T15:20:26.000Z</time>
      </trkpt>
      <trkpt lat="45.84673" lon="4.68765">
        <ele>224.90463</ele>
        <time>2022-08-09T15:20:28.000Z</time>
      </trkpt>
      <trkpt lat="45.84669" lon="4.68761">
        <ele>225.37141</ele>
        <time>2022-08-09T15:20:29.000Z</time>
      </trkpt>
      <trkpt lat="45.84666" lon="4.68758">
        <ele>225.77546</ele>
        <time>2022-08-09T15:20:30.000Z</time>
      </trkpt>
      <trkpt lat="45.84662" lon="4.68756">
        <ele>226.18382</ele>
        <time>2022-08-09T15:20:31.000Z</time>
      </trkpt>
      <trkpt lat="45.84659" lon="4.68753">
        <ele>226.46005</ele>
        <time>2022-08-09T15:20:32.000Z</time>
      </trkpt>
      <trkpt lat="45.84655" lon="4.6875">
        <ele>226.91759</ele>
        <time>2022-08-09T15:20:33.000Z</time>
      </trkpt>
      <trkpt lat="45.84646" lon="4.68745">
        <ele>228.10177</ele>
        <time>2022-08-09T15:20:35.000Z</time>
      </trkpt>
      <trkpt lat="45.84642" lon="4.68742">
        <ele>228.75445</ele>
        <time>2022-08-09T15:20:36.000Z</time>
      </trkpt>
      <trkpt lat="45.84639" lon="4.6874">
        <ele>229.21752</ele>
        <time>2022-08-09T15:20:37.000Z</time>
      </trkpt>
      <trkpt lat="45.84636" lon="4.68737">
        <ele>229.7791</ele>
        <time>2022-08-09T15:20:38.000Z</time>
      </trkpt>
      <trkpt lat="45.84634" lon="4.68734">
        <ele>230.32906</ele>
        <time>2022-08-09T15:20:39.000Z</time>
      </trkpt>
      <trkpt lat="45.8463" lon="4.68731">
        <ele>230.97676</ele>
        <time>2022-08-09T15:20:40.000Z</time>
      </trkpt>
      <trkpt lat="45.8463" lon="4.68727">
        <ele>231.26785</ele>
        <time>2022-08-09T15:20:41.000Z</time>
      </trkpt>
      <trkpt lat="45.84628" lon="4.68724">
        <ele>231.7903</ele>
        <time>2022-08-09T15:20:42.000Z</time>
      </trkpt>
      <trkpt lat="45.84625" lon="4.6872">
        <ele>232.29104</ele>
        <time>2022-08-09T15:20:43.000Z</time>
      </trkpt>
      <trkpt lat="45.84623" lon="4.68717">
        <ele>232.85636</ele>
        <time>2022-08-09T15:20:44.000Z</time>
      </trkpt>
      <trkpt lat="45.84621" lon="4.68714">
        <ele>233.30504</ele>
        <time>2022-08-09T15:20:45.000Z</time>
      </trkpt>
      <trkpt lat="45.84618" lon="4.68711">
        <ele>233.87696</ele>
        <time>2022-08-09T15:20:46.000Z</time>
      </trkpt>
      <trkpt lat="45.84616" lon="4.68707">
        <ele>234.41347</ele>
        <time>2022-08-09T15:20:47.000Z</time>
      </trkpt>
      <trkpt lat="45.84613" lon="4.68704">
        <ele>234.94823</ele>
        <time>2022-08-09T15:20:48.000Z</time>
      </trkpt>
      <trkpt lat="45.84609" lon="4.68697">
        <ele>235.80114</ele>
        <time>2022-08-09T15:20:50.000Z</time>
      </trkpt>
      <trkpt lat="45.84608" lon="4.68693">
        <ele>236.17476</ele>
        <time>2022-08-09T15:20:51.000Z</time>
      </trkpt>
      <trkpt lat="45.84606" lon="4.68689">
        <ele>236.5144</ele>
        <time>2022-08-09T15:20:52.000Z</time>
      </trkpt>
      <trkpt lat="45.84605" lon="4.68685">
        <ele>236.87155</ele>
        <time>2022-08-09T15:20:53.000Z</time>
      </trkpt>
      <trkpt lat="45.84603" lon="4.68681">
        <ele>237.27731</ele>
        <time>2022-08-09T15:20:54.000Z</time>
      </trkpt>
      <trkpt lat="45.84602" lon="4.68678">
        <ele>237.57717</ele>
        <time>2022-08-09T15:20:55.000Z</time>
      </trkpt>
      <trkpt lat="45.84601" lon="4.68674">
        <ele>237.95017</ele>
        <time>2022-08-09T15:20:56.000Z</time>
      </trkpt>
      <trkpt lat="45.84599" lon="4.6867">
        <ele>238.4361</ele>
        <time>2022-08-09T15:20:57.000Z</time>
      </trkpt>
      <trkpt lat="45.84598" lon="4.68667">
        <ele>238.89789</ele>
        <time>2022-08-09T15:20:58.000Z</time>
      </trkpt>
      <trkpt lat="45.84596" lon="4.68664">
        <ele>239.358</ele>
        <time>2022-08-09T15:20:59.000Z</time>
      </trkpt>
      <trkpt lat="45.84593" lon="4.68662">
        <ele>239.91</ele>
        <time>2022-08-09T15:21:00.000Z</time>
      </trkpt>
      <trkpt lat="45.8459" lon="4.6866">
        <ele>240.44778</ele>
        <time>2022-08-09T15:21:01.000Z</time>
      </trkpt>
      <trkpt lat="45.84587" lon="4.68658">
        <ele>240.98724</ele>
        <time>2022-08-09T15:21:02.000Z</time>
      </trkpt>
      <trkpt lat="45.84583" lon="4.68657">
        <ele>241.49575</ele>
        <time>2022-08-09T15:21:03.000Z</time>
      </trkpt>
      <trkpt lat="45.8458" lon="4.68656">
        <ele>241.99602</ele>
        <time>2022-08-09T15:21:04.000Z</time>
      </trkpt>
      <trkpt lat="45.84577" lon="4.68655">
        <ele>242.38941</ele>
        <time>2022-08-09T15:21:05.000Z</time>
      </trkpt>
      <trkpt lat="45.84575" lon="4.68653">
        <ele>242.71228</ele>
        <time>2022-08-09T15:21:06.000Z</time>
      </trkpt>
      <trkpt lat="45.84572" lon="4.68652">
        <ele>243.03318</ele>
        <time>2022-08-09T15:21:07.000Z</time>
      </trkpt>
      <trkpt lat="45.84569" lon="4.6865">
        <ele>243.32568</ele>
        <time>2022-08-09T15:21:08.000Z</time>
      </trkpt>
      <trkpt lat="45.84567" lon="4.68648">
        <ele>243.60315</ele>
        <time>2022-08-09T15:21:09.000Z</time>
      </trkpt>
      <trkpt lat="45.84564" lon="4.68646">
        <ele>243.89668</ele>
        <time>2022-08-09T15:21:10.000Z</time>
      </trkpt>
      <trkpt lat="45.84561" lon="4.68644">
        <ele>244.1842</ele>
        <time>2022-08-09T15:21:11.000Z</time>
      </trkpt>
      <trkpt lat="45.84559" lon="4.68641">
        <ele>244.43035</ele>
        <time>2022-08-09T15:21:12.000Z</time>
      </trkpt>
      <trkpt lat="45.84556" lon="4.68639">
        <ele>244.64942</ele>
        <time>2022-08-09T15:21:13.000Z</time>
      </trkpt>
      <trkpt lat="45.84553" lon="4.68636">
        <ele>244.8406</ele>
        <time>2022-08-09T15:21:14.000Z</time>
      </trkpt>
      <trkpt lat="45.84551" lon="4.68633">
        <ele>245.00544</ele>
        <time>2022-08-09T15:21:15.000Z</time>
      </trkpt>
      <trkpt lat="45.84549" lon="4.6863">
        <ele>245.12542</ele>
        <time>2022-08-09T15:21:16.000Z</time>
      </trkpt>
      <trkpt lat="45.84546" lon="4.68625">
        <ele>245.20953</ele>
        <time>2022-08-09T15:21:17.000Z</time>
      </trkpt>
      <trkpt lat="45.84544" lon="4.68622">
        <ele>245.26517</ele>
        <time>2022-08-09T15:21:18.000Z</time>
      </trkpt>
      <trkpt lat="45.84543" lon="4.68618">
        <ele>245.29507</ele>
        <time>2022-08-09T15:21:19.000Z</time>
      </trkpt>
      <trkpt lat="45.84539" lon="4.68613">
        <ele>245.40109</ele>
        <time>2022-08-09T15:21:21.000Z</time>
      </trkpt>
      <trkpt lat="45.84537" lon="4.6861">
        <ele>245.43185</ele>
        <time>2022-08-09T15:21:22.000Z</time>
      </trkpt>
      <trkpt lat="45.84535" lon="4.68607">
        <ele>245.48843</ele>
        <time>2022-08-09T15:21:23.000Z</time>
      </trkpt>
      <trkpt lat="45.84533" lon="4.68605">
        <ele>245.54338</ele>
        <time>2022-08-09T15:21:24.000Z</time>
      </trkpt>
      <trkpt lat="45.84528" lon="4.686">
        <ele>245.69196</ele>
        <time>2022-08-09T15:21:26.000Z</time>
      </trkpt>
      <trkpt lat="45.84526" lon="4.68598">
        <ele>245.7599</ele>
        <time>2022-08-09T15:21:27.000Z</time>
      </trkpt>
      <trkpt lat="45.84524" lon="4.68597">
        <ele>245.82053</ele>
        <time>2022-08-09T15:21:28.000Z</time>
      </trkpt>
      <trkpt lat="45.84522" lon="4.68596">
        <ele>245.89016</ele>
        <time>2022-08-09T15:21:29.000Z</time>
      </trkpt>
      <trkpt lat="45.8452" lon="4.68595">
        <ele>245.99692</ele>
        <time>2022-08-09T15:21:31.000Z</time>
      </trkpt>
      <trkpt lat="45.84518" lon="4.68593">
        <ele>246.03959</ele>
        <time>2022-08-09T15:21:33.000Z</time>
      </trkpt>
      <trkpt lat="45.84515" lon="4.68588">
        <ele>246.03983</ele>
        <time>2022-08-09T15:26:41.000Z</time>
      </trkpt>
      <trkpt lat="45.84514" lon="4.68585">
        <ele>245.96318</ele>
        <time>2022-08-09T15:26:43.000Z</time>
      </trkpt>
      <trkpt lat="45.84513" lon="4.68579">
        <ele>245.88209</ele>
        <time>2022-08-09T15:26:44.000Z</time>
      </trkpt>
      <trkpt lat="45.84512" lon="4.68577">
        <ele>245.83648</ele>
        <time>2022-08-09T15:26:45.000Z</time>
      </trkpt>
      <trkpt lat="45.8451" lon="4.68575">
        <ele>245.91326</ele>
        <time>2022-08-09T15:26:48.000Z</time>
      </trkpt>
      <trkpt lat="45.84507" lon="4.68576">
        <ele>246.10684</ele>
        <time>2022-08-09T15:26:51.000Z</time>
      </trkpt>
      <trkpt lat="45.84505" lon="4.68574">
        <ele>246.14631</ele>
        <time>2022-08-09T15:26:53.000Z</time>
      </trkpt>
      <trkpt lat="45.84502" lon="4.6857">
        <ele>246.23055</ele>
        <time>2022-08-09T15:26:55.000Z</time>
      </trkpt>
      <trkpt lat="45.84499" lon="4.68569">
        <ele>246.36033</ele>
        <time>2022-08-09T15:26:57.000Z</time>
      </trkpt>
      <trkpt lat="45.84497" lon="4.68569">
        <ele>246.48646</ele>
        <time>2022-08-09T15:27:00.000Z</time>
      </trkpt>
      <trkpt lat="45.84495" lon="4.68571">
        <ele>246.69093</ele>
        <time>2022-08-09T15:27:28.000Z</time>
      </trkpt>
      <trkpt lat="45.84493" lon="4.68571">
        <ele>246.79949</ele>
        <time>2022-08-09T15:27:29.000Z</time>
      </trkpt>
      <trkpt lat="45.8449" lon="4.68572">
        <ele>246.95059</ele>
        <time>2022-08-09T15:27:31.000Z</time>
      </trkpt>
      <trkpt lat="45.84488" lon="4.6857">
        <ele>247.00128</ele>
        <time>2022-08-09T15:27:43.000Z</time>
      </trkpt>
      <trkpt lat="45.84487" lon="4.68569">
        <ele>247.04819</ele>
        <time>2022-08-09T15:27:45.000Z</time>
      </trkpt>
      <trkpt lat="45.84485" lon="4.68569">
        <ele>247.14499</ele>
        <time>2022-08-09T15:27:50.000Z</time>
      </trkpt>
      <trkpt lat="45.84482" lon="4.68568">
        <ele>247.26496</ele>
        <time>2022-08-09T15:27:52.000Z</time>
      </trkpt>
      <trkpt lat="45.8448" lon="4.68567">
        <ele>247.31648</ele>
        <time>2022-08-09T15:27:53.000Z</time>
      </trkpt>
      <trkpt lat="45.84479" lon="4.68565">
        <ele>247.35197</ele>
        <time>2022-08-09T15:27:54.000Z</time>
      </trkpt>
      <trkpt lat="45.84477" lon="4.68563">
        <ele>247.35787</ele>
        <time>2022-08-09T15:27:55.000Z</time>
      </trkpt>
      <trkpt lat="45.84475" lon="4.68561">
        <ele>247.38958</ele>
        <time>2022-08-09T15:27:56.000Z</time>
      </trkpt>
      <trkpt lat="45.84473" lon="4.68558">
        <ele>247.41189</ele>
        <time>2022-08-09T15:27:57.000Z</time>
      </trkpt>
      <trkpt lat="45.84471" lon="4.68555">
        <ele>247.43018</ele>
        <time>2022-08-09T15:27:58.000Z</time>
      </trkpt>
      <trkpt lat="45.84468" lon="4.68552">
        <ele>247.40643</ele>
        <time>2022-08-09T15:27:59.000Z</time>
      </trkpt>
      <trkpt lat="45.84466" lon="4.68547">
        <ele>247.29993</ele>
        <time>2022-08-09T15:28:00.000Z</time>
      </trkpt>
      <trkpt lat="45.84464" lon="4.68544">
        <ele>247.17746</ele>
        <time>2022-08-09T15:28:01.000Z</time>
      </trkpt>
      <trkpt lat="45.84463" lon="4.68541">
        <ele>247.05833</ele>
        <time>2022-08-09T15:28:02.000Z</time>
      </trkpt>
      <trkpt lat="45.84464" lon="4.68539">
        <ele>246.88215</ele>
        <time>2022-08-09T15:28:04.000Z</time>
      </trkpt>
      <trkpt lat="45.84463" lon="4.68536">
        <ele>246.72945</ele>
        <time>2022-08-09T15:28:17.000Z</time>
      </trkpt>
      <trkpt lat="45.84461" lon="4.68534">
        <ele>246.66344</ele>
        <time>2022-08-09T15:28:43.000Z</time>
      </trkpt>
      <trkpt lat="45.84459" lon="4.68531">
        <ele>246.57323</ele>
        <time>2022-08-09T15:28:44.000Z</time>
      </trkpt>
      <trkpt lat="45.84457" lon="4.68529">
        <ele>246.49537</ele>
        <time>2022-08-09T15:28:45.000Z</time>
      </trkpt>
      <trkpt lat="45.84454" lon="4.68526">
        <ele>246.3911</ele>
        <time>2022-08-09T15:28:46.000Z</time>
      </trkpt>
      <trkpt lat="45.84452" lon="4.68523">
        <ele>246.26792</ele>
        <time>2022-08-09T15:28:47.000Z</time>
      </trkpt>
      <trkpt lat="45.8445" lon="4.6852">
        <ele>246.18665</ele>
        <time>2022-08-09T15:28:48.000Z</time>
      </trkpt>
      <trkpt lat="45.84449" lon="4.68518">
        <ele>246.10226</ele>
        <time>2022-08-09T15:28:49.000Z</time>
      </trkpt>
      <trkpt lat="45.84447" lon="4.68515">
        <ele>246.01126</ele>
        <time>2022-08-09T15:28:50.000Z</time>
      </trkpt>
      <trkpt lat="45.84446" lon="4.68512">
        <ele>245.85687</ele>
        <time>2022-08-09T15:28:51.000Z</time>
      </trkpt>
      <trkpt lat="45.84445" lon="4.68509">
        <ele>245.67843</ele>
        <time>2022-08-09T15:28:52.000Z</time>
      </trkpt>
      <trkpt lat="45.84443" lon="4.68505">
        <ele>245.52591</ele>
        <time>2022-08-09T15:28:53.000Z</time>
      </trkpt>
      <trkpt lat="45.84441" lon="4.68502">
        <ele>245.36414</ele>
        <time>2022-08-09T15:28:54.000Z</time>
      </trkpt>
      <trkpt lat="45.84439" lon="4.68497">
        <ele>245.15479</ele>
        <time>2022-08-09T15:28:55.000Z</time>
      </trkpt>
      <trkpt lat="45.84437" lon="4.68492">
        <ele>244.90837</ele>
        <time>2022-08-09T15:28:56.000Z</time>
      </trkpt>
      <trkpt lat="45.84436" lon="4.68489">
        <ele>244.70606</ele>
        <time>2022-08-09T15:28:57.000Z</time>
      </trkpt>
      <trkpt lat="45.84434" lon="4.68485">
        <ele>244.54468</ele>
        <time>2022-08-09T15:28:58.000Z</time>
      </trkpt>
      <trkpt lat="45.84432" lon="4.68481">
        <ele>244.38734</ele>
        <time>2022-08-09T15:28:59.000Z</time>
      </trkpt>
      <trkpt lat="45.84429" lon="4.68478">
        <ele>244.30553</ele>
        <time>2022-08-09T15:29:00.000Z</time>
      </trkpt>
      <trkpt lat="45.84426" lon="4.68474">
        <ele>244.25564</ele>
        <time>2022-08-09T15:29:01.000Z</time>
      </trkpt>
      <trkpt lat="45.84423" lon="4.68472">
        <ele>244.24383</ele>
        <time>2022-08-09T15:29:02.000Z</time>
      </trkpt>
      <trkpt lat="45.84422" lon="4.6847">
        <ele>244.23802</ele>
        <time>2022-08-09T15:29:03.000Z</time>
      </trkpt>
      <trkpt lat="45.8442" lon="4.68468">
        <ele>244.21896</ele>
        <time>2022-08-09T15:29:04.000Z</time>
      </trkpt>
      <trkpt lat="45.84419" lon="4.68466">
        <ele>244.18692</ele>
        <time>2022-08-09T15:29:05.000Z</time>
      </trkpt>
      <trkpt lat="45.84417" lon="4.68465">
        <ele>244.19059</ele>
        <time>2022-08-09T15:29:06.000Z</time>
      </trkpt>
      <trkpt lat="45.84414" lon="4.68463">
        <ele>244.23264</ele>
        <time>2022-08-09T15:29:07.000Z</time>
      </trkpt>
      <trkpt lat="45.84412" lon="4.68461">
        <ele>244.28809</ele>
        <time>2022-08-09T15:29:08.000Z</time>
      </trkpt>
      <trkpt lat="45.84409" lon="4.68457">
        <ele>244.20785</ele>
        <time>2022-08-09T15:29:09.000Z</time>
      </trkpt>
      <trkpt lat="45.84407" lon="4.68453">
        <ele>244.11191</ele>
        <time>2022-08-09T15:29:10.000Z</time>
      </trkpt>
      <trkpt lat="45.84404" lon="4.68449">
        <ele>244.04283</ele>
        <time>2022-08-09T15:29:11.000Z</time>
      </trkpt>
      <trkpt lat="45.844" lon="4.68444">
        <ele>243.9762</ele>
        <time>2022-08-09T15:29:12.000Z</time>
      </trkpt>
      <trkpt lat="45.84398" lon="4.68441">
        <ele>243.88485</ele>
        <time>2022-08-09T15:29:13.000Z</time>
      </trkpt>
      <trkpt lat="45.84396" lon="4.68438">
        <ele>243.81917</ele>
        <time>2022-08-09T15:29:14.000Z</time>
      </trkpt>
      <trkpt lat="45.84393" lon="4.68434">
        <ele>243.70969</ele>
        <time>2022-08-09T15:29:15.000Z</time>
      </trkpt>
      <trkpt lat="45.84391" lon="4.68431">
        <ele>243.64629</ele>
        <time>2022-08-09T15:29:16.000Z</time>
      </trkpt>
      <trkpt lat="45.84389" lon="4.68428">
        <ele>243.59706</ele>
        <time>2022-08-09T15:29:17.000Z</time>
      </trkpt>
      <trkpt lat="45.84386" lon="4.68426">
        <ele>243.57635</ele>
        <time>2022-08-09T15:29:18.000Z</time>
      </trkpt>
      <trkpt lat="45.84383" lon="4.68423">
        <ele>243.52188</ele>
        <time>2022-08-09T15:29:19.000Z</time>
      </trkpt>
      <trkpt lat="45.8438" lon="4.68419">
        <ele>243.44552</ele>
        <time>2022-08-09T15:29:20.000Z</time>
      </trkpt>
      <trkpt lat="45.84378" lon="4.68416">
        <ele>243.33774</ele>
        <time>2022-08-09T15:29:21.000Z</time>
      </trkpt>
      <trkpt lat="45.84376" lon="4.68414">
        <ele>243.26854</ele>
        <time>2022-08-09T15:29:22.000Z</time>
      </trkpt>
      <trkpt lat="45.84375" lon="4.68413">
        <ele>243.28199</ele>
        <time>2022-08-09T15:29:23.000Z</time>
      </trkpt>
      <trkpt lat="45.84371" lon="4.6841">
        <ele>243.28447</ele>
        <time>2022-08-09T15:29:25.000Z</time>
      </trkpt>
      <trkpt lat="45.8437" lon="4.68409">
        <ele>243.25051</ele>
        <time>2022-08-09T15:29:26.000Z</time>
      </trkpt>
      <trkpt lat="45.84367" lon="4.68405">
        <ele>243.18822</ele>
        <time>2022-08-09T15:29:28.000Z</time>
      </trkpt>
      <trkpt lat="45.84365" lon="4.68404">
        <ele>243.17006</ele>
        <time>2022-08-09T15:29:29.000Z</time>
      </trkpt>
      <trkpt lat="45.84364" lon="4.68403">
        <ele>243.18143</ele>
        <time>2022-08-09T15:29:30.000Z</time>
      </trkpt>
      <trkpt lat="45.8436" lon="4.68401">
        <ele>243.23589</ele>
        <time>2022-08-09T15:29:31.000Z</time>
      </trkpt>
      <trkpt lat="45.84356" lon="4.68397">
        <ele>243.24875</ele>
        <time>2022-08-09T15:29:32.000Z</time>
      </trkpt>
      <trkpt lat="45.84353" lon="4.68394">
        <ele>243.25579</ele>
        <time>2022-08-09T15:29:33.000Z</time>
      </trkpt>
      <trkpt lat="45.8435" lon="4.68391">
        <ele>243.24339</ele>
        <time>2022-08-09T15:29:34.000Z</time>
      </trkpt>
      <trkpt lat="45.84347" lon="4.68388">
        <ele>243.21515</ele>
        <time>2022-08-09T15:29:35.000Z</time>
      </trkpt>
      <trkpt lat="45.84343" lon="4.68385">
        <ele>243.22965</ele>
        <time>2022-08-09T15:29:36.000Z</time>
      </trkpt>
      <trkpt lat="45.84339" lon="4.68382">
        <ele>243.24835</ele>
        <time>2022-08-09T15:29:37.000Z</time>
      </trkpt>
      <trkpt lat="45.84335" lon="4.68378">
        <ele>243.26454</ele>
        <time>2022-08-09T15:29:38.000Z</time>
      </trkpt>
      <trkpt lat="45.84332" lon="4.68375">
        <ele>243.25245</ele>
        <time>2022-08-09T15:29:39.000Z</time>
      </trkpt>
      <trkpt lat="45.84328" lon="4.68372">
        <ele>243.23839</ele>
        <time>2022-08-09T15:29:40.000Z</time>
      </trkpt>
      <trkpt lat="45.84325" lon="4.68368">
        <ele>243.21783</ele>
        <time>2022-08-09T15:29:41.000Z</time>
      </trkpt>
      <trkpt lat="45.84321" lon="4.68365">
        <ele>243.21617</ele>
        <time>2022-08-09T15:29:42.000Z</time>
      </trkpt>
      <trkpt lat="45.84318" lon="4.68363">
        <ele>243.24824</ele>
        <time>2022-08-09T15:29:43.000Z</time>
      </trkpt>
      <trkpt lat="45.84315" lon="4.68361">
        <ele>243.31919</ele>
        <time>2022-08-09T15:29:44.000Z</time>
      </trkpt>
      <trkpt lat="45.84312" lon="4.68359">
        <ele>243.4009</ele>
        <time>2022-08-09T15:29:45.000Z</time>
      </trkpt>
      <trkpt lat="45.84309" lon="4.68357">
        <ele>243.47589</ele>
        <time>2022-08-09T15:29:46.000Z</time>
      </trkpt>
      <trkpt lat="45.84305" lon="4.68355">
        <ele>243.51002</ele>
        <time>2022-08-09T15:29:47.000Z</time>
      </trkpt>
      <trkpt lat="45.84302" lon="4.68352">
        <ele>243.51446</ele>
        <time>2022-08-09T15:29:48.000Z</time>
      </trkpt>
      <trkpt lat="45.84299" lon="4.6835">
        <ele>243.51363</ele>
        <time>2022-08-09T15:29:49.000Z</time>
      </trkpt>
      <trkpt lat="45.84296" lon="4.68348">
        <ele>243.54412</ele>
        <time>2022-08-09T15:29:50.000Z</time>
      </trkpt>
      <trkpt lat="45.84294" lon="4.68346">
        <ele>243.59189</ele>
        <time>2022-08-09T15:29:51.000Z</time>
      </trkpt>
      <trkpt lat="45.84291" lon="4.68345">
        <ele>243.65236</ele>
        <time>2022-08-09T15:29:52.000Z</time>
      </trkpt>
      <trkpt lat="45.84288" lon="4.68343">
        <ele>243.72798</ele>
        <time>2022-08-09T15:29:53.000Z</time>
      </trkpt>
      <trkpt lat="45.84286" lon="4.68342">
        <ele>243.82898</ele>
        <time>2022-08-09T15:29:54.000Z</time>
      </trkpt>
      <trkpt lat="45.84284" lon="4.68342">
        <ele>243.96025</ele>
        <time>2022-08-09T15:29:55.000Z</time>
      </trkpt>
      <trkpt lat="45.84281" lon="4.68343">
        <ele>244.18259</ele>
        <time>2022-08-09T15:29:56.000Z</time>
      </trkpt>
      <trkpt lat="45.84278" lon="4.68343">
        <ele>244.43775</ele>
        <time>2022-08-09T15:29:57.000Z</time>
      </trkpt>
      <trkpt lat="45.84276" lon="4.68344">
        <ele>244.6546</ele>
        <time>2022-08-09T15:29:58.000Z</time>
      </trkpt>
      <trkpt lat="45.84274" lon="4.68344">
        <ele>244.84672</ele>
        <time>2022-08-09T15:29:59.000Z</time>
      </trkpt>
      <trkpt lat="45.84271" lon="4.68345">
        <ele>245.09264</ele>
        <time>2022-08-09T15:30:00.000Z</time>
      </trkpt>
      <trkpt lat="45.84265" lon="4.68346">
        <ele>245.70575</ele>
        <time>2022-08-09T15:30:02.000Z</time>
      </trkpt>
      <trkpt lat="45.84262" lon="4.68346">
        <ele>245.94786</ele>
        <time>2022-08-09T15:30:03.000Z</time>
      </trkpt>
      <trkpt lat="45.84259" lon="4.68346">
        <ele>246.12365</ele>
        <time>2022-08-09T15:30:06.000Z</time>
      </trkpt>
      <trkpt lat="45.84257" lon="4.68346">
        <ele>246.28732</ele>
        <time>2022-08-09T15:30:07.000Z</time>
      </trkpt>
      <trkpt lat="45.84255" lon="4.68346">
        <ele>246.42096</ele>
        <time>2022-08-09T15:30:08.000Z</time>
      </trkpt>
      <trkpt lat="45.84252" lon="4.68345">
        <ele>246.60742</ele>
        <time>2022-08-09T15:30:09.000Z</time>
      </trkpt>
      <trkpt lat="45.84249" lon="4.68346">
        <ele>246.8025</ele>
        <time>2022-08-09T15:30:10.000Z</time>
      </trkpt>
      <trkpt lat="45.84247" lon="4.68346">
        <ele>247.01276</ele>
        <time>2022-08-09T15:30:11.000Z</time>
      </trkpt>
      <trkpt lat="45.84244" lon="4.68346">
        <ele>247.22972</ele>
        <time>2022-08-09T15:30:12.000Z</time>
      </trkpt>
      <trkpt lat="45.8424" lon="4.68346">
        <ele>247.47414</ele>
        <time>2022-08-09T15:30:13.000Z</time>
      </trkpt>
      <trkpt lat="45.84236" lon="4.68346">
        <ele>247.70473</ele>
        <time>2022-08-09T15:30:14.000Z</time>
      </trkpt>
      <trkpt lat="45.84232" lon="4.68345">
        <ele>247.85017</ele>
        <time>2022-08-09T15:30:15.000Z</time>
      </trkpt>
      <trkpt lat="45.84229" lon="4.68343">
        <ele>247.908</ele>
        <time>2022-08-09T15:30:16.000Z</time>
      </trkpt>
      <trkpt lat="45.84226" lon="4.68342">
        <ele>248.00301</ele>
        <time>2022-08-09T15:30:17.000Z</time>
      </trkpt>
      <trkpt lat="45.84222" lon="4.68342">
        <ele>248.17023</ele>
        <time>2022-08-09T15:30:18.000Z</time>
      </trkpt>
      <trkpt lat="45.84218" lon="4.68341">
        <ele>248.35957</ele>
        <time>2022-08-09T15:30:19.000Z</time>
      </trkpt>
      <trkpt lat="45.84214" lon="4.68341">
        <ele>248.52674</ele>
        <time>2022-08-09T15:30:20.000Z</time>
      </trkpt>
      <trkpt lat="45.8421" lon="4.6834">
        <ele>248.65487</ele>
        <time>2022-08-09T15:30:21.000Z</time>
      </trkpt>
      <trkpt lat="45.84206" lon="4.68339">
        <ele>248.74704</ele>
        <time>2022-08-09T15:30:22.000Z</time>
      </trkpt>
      <trkpt lat="45.84202" lon="4.68338">
        <ele>248.83925</ele>
        <time>2022-08-09T15:30:23.000Z</time>
      </trkpt>
      <trkpt lat="45.84197" lon="4.68336">
        <ele>248.8927</ele>
        <time>2022-08-09T15:30:24.000Z</time>
      </trkpt>
      <trkpt lat="45.84193" lon="4.68334">
        <ele>248.90377</ele>
        <time>2022-08-09T15:30:25.000Z</time>
      </trkpt>
      <trkpt lat="45.84189" lon="4.68332">
        <ele>248.91913</ele>
        <time>2022-08-09T15:30:26.000Z</time>
      </trkpt>
      <trkpt lat="45.84186" lon="4.6833">
        <ele>248.86866</ele>
        <time>2022-08-09T15:30:27.000Z</time>
      </trkpt>
      <trkpt lat="45.84183" lon="4.68328">
        <ele>248.79889</ele>
        <time>2022-08-09T15:30:28.000Z</time>
      </trkpt>
      <trkpt lat="45.8418" lon="4.68326">
        <ele>248.74645</ele>
        <time>2022-08-09T15:30:29.000Z</time>
      </trkpt>
      <trkpt lat="45.84178" lon="4.68324">
        <ele>248.72098</ele>
        <time>2022-08-09T15:30:30.000Z</time>
      </trkpt>
      <trkpt lat="45.84175" lon="4.68322">
        <ele>248.66951</ele>
        <time>2022-08-09T15:30:31.000Z</time>
      </trkpt>
      <trkpt lat="45.84173" lon="4.68321">
        <ele>248.6479</ele>
        <time>2022-08-09T15:30:32.000Z</time>
      </trkpt>
      <trkpt lat="45.8417" lon="4.68318">
        <ele>248.60108</ele>
        <time>2022-08-09T15:30:33.000Z</time>
      </trkpt>
      <trkpt lat="45.84166" lon="4.68316">
        <ele>248.55546</ele>
        <time>2022-08-09T15:30:34.000Z</time>
      </trkpt>
      <trkpt lat="45.84163" lon="4.68313">
        <ele>248.57229</ele>
        <time>2022-08-09T15:30:35.000Z</time>
      </trkpt>
      <trkpt lat="45.84159" lon="4.68311">
        <ele>248.66127</ele>
        <time>2022-08-09T15:30:36.000Z</time>
      </trkpt>
      <trkpt lat="45.84156" lon="4.6831">
        <ele>248.80267</ele>
        <time>2022-08-09T15:30:37.000Z</time>
      </trkpt>
      <trkpt lat="45.84152" lon="4.68308">
        <ele>248.94388</ele>
        <time>2022-08-09T15:30:38.000Z</time>
      </trkpt>
      <trkpt lat="45.8415" lon="4.68307">
        <ele>249.08534</ele>
        <time>2022-08-09T15:30:39.000Z</time>
      </trkpt>
      <trkpt lat="45.84147" lon="4.68305">
        <ele>249.11795</ele>
        <time>2022-08-09T15:30:40.000Z</time>
      </trkpt>
      <trkpt lat="45.84144" lon="4.68303">
        <ele>249.15166</ele>
        <time>2022-08-09T15:30:41.000Z</time>
      </trkpt>
      <trkpt lat="45.84141" lon="4.68301">
        <ele>249.1726</ele>
        <time>2022-08-09T15:30:42.000Z</time>
      </trkpt>
      <trkpt lat="45.84137" lon="4.68299">
        <ele>249.24783</ele>
        <time>2022-08-09T15:30:43.000Z</time>
      </trkpt>
      <trkpt lat="45.84133" lon="4.68296">
        <ele>249.27269</ele>
        <time>2022-08-09T15:30:44.000Z</time>
      </trkpt>
      <trkpt lat="45.84131" lon="4.68294">
        <ele>249.24603</ele>
        <time>2022-08-09T15:30:45.000Z</time>
      </trkpt>
      <trkpt lat="45.84129" lon="4.68293">
        <ele>249.20527</ele>
        <time>2022-08-09T15:30:46.000Z</time>
      </trkpt>
      <trkpt lat="45.84127" lon="4.68291">
        <ele>249.15246</ele>
        <time>2022-08-09T15:30:47.000Z</time>
      </trkpt>
      <trkpt lat="45.84124" lon="4.6829">
        <ele>249.22298</ele>
        <time>2022-08-09T15:30:48.000Z</time>
      </trkpt>
      <trkpt lat="45.84122" lon="4.68289">
        <ele>249.24402</ele>
        <time>2022-08-09T15:30:49.000Z</time>
      </trkpt>
      <trkpt lat="45.8412" lon="4.68288">
        <ele>249.27398</ele>
        <time>2022-08-09T15:30:50.000Z</time>
      </trkpt>
      <trkpt lat="45.84118" lon="4.68287">
        <ele>249.35787</ele>
        <time>2022-08-09T15:30:51.000Z</time>
      </trkpt>
      <trkpt lat="45.84116" lon="4.68287">
        <ele>249.47785</ele>
        <time>2022-08-09T15:30:52.000Z</time>
      </trkpt>
      <trkpt lat="45.84112" lon="4.68285">
        <ele>249.55841</ele>
        <time>2022-08-09T15:30:54.000Z</time>
      </trkpt>
      <trkpt lat="45.8411" lon="4.68285">
        <ele>249.66543</ele>
        <time>2022-08-09T15:30:55.000Z</time>
      </trkpt>
      <trkpt lat="45.84107" lon="4.68284">
        <ele>249.81129</ele>
        <time>2022-08-09T15:30:56.000Z</time>
      </trkpt>
      <trkpt lat="45.84104" lon="4.68282">
        <ele>249.98832</ele>
        <time>2022-08-09T15:30:57.000Z</time>
      </trkpt>
      <trkpt lat="45.841" lon="4.68281">
        <ele>250.20273</ele>
        <time>2022-08-09T15:30:58.000Z</time>
      </trkpt>
      <trkpt lat="45.84096" lon="4.6828">
        <ele>250.39259</ele>
        <time>2022-08-09T15:30:59.000Z</time>
      </trkpt>
      <trkpt lat="45.84094" lon="4.68279">
        <ele>250.53306</ele>
        <time>2022-08-09T15:31:00.000Z</time>
      </trkpt>
      <trkpt lat="45.84091" lon="4.68278">
        <ele>250.68649</ele>
        <time>2022-08-09T15:31:01.000Z</time>
      </trkpt>
      <trkpt lat="45.84088" lon="4.68277">
        <ele>250.85837</ele>
        <time>2022-08-09T15:31:02.000Z</time>
      </trkpt>
      <trkpt lat="45.84085" lon="4.68276">
        <ele>251.00343</ele>
        <time>2022-08-09T15:31:03.000Z</time>
      </trkpt>
      <trkpt lat="45.84081" lon="4.68275">
        <ele>251.14997</ele>
        <time>2022-08-09T15:31:04.000Z</time>
      </trkpt>
      <trkpt lat="45.84077" lon="4.68274">
        <ele>251.31479</ele>
        <time>2022-08-09T15:31:05.000Z</time>
      </trkpt>
      <trkpt lat="45.84072" lon="4.68273">
        <ele>251.50611</ele>
        <time>2022-08-09T15:31:06.000Z</time>
      </trkpt>
      <trkpt lat="45.84069" lon="4.68272">
        <ele>251.67419</ele>
        <time>2022-08-09T15:31:07.000Z</time>
      </trkpt>
      <trkpt lat="45.84065" lon="4.68271">
        <ele>251.83063</ele>
        <time>2022-08-09T15:31:08.000Z</time>
      </trkpt>
      <trkpt lat="45.84061" lon="4.6827">
        <ele>251.9854</ele>
        <time>2022-08-09T15:31:09.000Z</time>
      </trkpt>
      <trkpt lat="45.84058" lon="4.68269">
        <ele>252.11437</ele>
        <time>2022-08-09T15:31:10.000Z</time>
      </trkpt>
      <trkpt lat="45.84054" lon="4.68268">
        <ele>252.26495</ele>
        <time>2022-08-09T15:31:11.000Z</time>
      </trkpt>
      <trkpt lat="45.84051" lon="4.68268">
        <ele>252.41166</ele>
        <time>2022-08-09T15:31:12.000Z</time>
      </trkpt>
      <trkpt lat="45.84046" lon="4.68267">
        <ele>252.56624</ele>
        <time>2022-08-09T15:31:13.000Z</time>
      </trkpt>
      <trkpt lat="45.8404" lon="4.68265">
        <ele>252.70069</ele>
        <time>2022-08-09T15:31:15.000Z</time>
      </trkpt>
      <trkpt lat="45.84037" lon="4.68264">
        <ele>252.74759</ele>
        <time>2022-08-09T15:31:16.000Z</time>
      </trkpt>
      <trkpt lat="45.84034" lon="4.68263">
        <ele>252.80136</ele>
        <time>2022-08-09T15:31:17.000Z</time>
      </trkpt>
      <trkpt lat="45.8403" lon="4.68262">
        <ele>252.86345</ele>
        <time>2022-08-09T15:31:18.000Z</time>
      </trkpt>
      <trkpt lat="45.84028" lon="4.68261">
        <ele>252.95893</ele>
        <time>2022-08-09T15:31:19.000Z</time>
      </trkpt>
      <trkpt lat="45.84025" lon="4.68261">
        <ele>253.0557</ele>
        <time>2022-08-09T15:31:20.000Z</time>
      </trkpt>
      <trkpt lat="45.84022" lon="4.68261">
        <ele>253.13824</ele>
        <time>2022-08-09T15:31:21.000Z</time>
      </trkpt>
      <trkpt lat="45.84019" lon="4.6826">
        <ele>253.19569</ele>
        <time>2022-08-09T15:31:22.000Z</time>
      </trkpt>
      <trkpt lat="45.84015" lon="4.68259">
        <ele>253.22272</ele>
        <time>2022-08-09T15:31:23.000Z</time>
      </trkpt>
      <trkpt lat="45.84011" lon="4.68259">
        <ele>253.23347</ele>
        <time>2022-08-09T15:31:24.000Z</time>
      </trkpt>
      <trkpt lat="45.84007" lon="4.68258">
        <ele>253.23001</ele>
        <time>2022-08-09T15:31:25.000Z</time>
      </trkpt>
      <trkpt lat="45.84004" lon="4.68257">
        <ele>253.25704</ele>
        <time>2022-08-09T15:31:26.000Z</time>
      </trkpt>
      <trkpt lat="45.84" lon="4.68257">
        <ele>253.3187</ele>
        <time>2022-08-09T15:31:27.000Z</time>
      </trkpt>
      <trkpt lat="45.83996" lon="4.68257">
        <ele>253.40166</ele>
        <time>2022-08-09T15:31:28.000Z</time>
      </trkpt>
      <trkpt lat="45.83991" lon="4.68256">
        <ele>253.46353</ele>
        <time>2022-08-09T15:31:29.000Z</time>
      </trkpt>
      <trkpt lat="45.83987" lon="4.68256">
        <ele>253.49466</ele>
        <time>2022-08-09T15:31:30.000Z</time>
      </trkpt>
      <trkpt lat="45.83982" lon="4.68255">
        <ele>253.47787</ele>
        <time>2022-08-09T15:31:31.000Z</time>
      </trkpt>
      <trkpt lat="45.83974" lon="4.68255">
        <ele>253.40403</ele>
        <time>2022-08-09T15:31:33.000Z</time>
      </trkpt>
      <trkpt lat="45.8397" lon="4.68255">
        <ele>253.34808</ele>
        <time>2022-08-09T15:31:34.000Z</time>
      </trkpt>
      <trkpt lat="45.83966" lon="4.68255">
        <ele>253.27721</ele>
        <time>2022-08-09T15:31:35.000Z</time>
      </trkpt>
      <trkpt lat="45.83962" lon="4.68256">
        <ele>253.29193</ele>
        <time>2022-08-09T15:31:36.000Z</time>
      </trkpt>
      <trkpt lat="45.83959" lon="4.68257">
        <ele>253.29251</ele>
        <time>2022-08-09T15:31:37.000Z</time>
      </trkpt>
      <trkpt lat="45.83956" lon="4.68257">
        <ele>253.32125</ele>
        <time>2022-08-09T15:31:38.000Z</time>
      </trkpt>
      <trkpt lat="45.83947" lon="4.68258">
        <ele>253.07076</ele>
        <time>2022-08-09T15:31:40.000Z</time>
      </trkpt>
      <trkpt lat="45.83943" lon="4.68257">
        <ele>252.94239</ele>
        <time>2022-08-09T15:31:41.000Z</time>
      </trkpt>
      <trkpt lat="45.83938" lon="4.68257">
        <ele>252.85405</ele>
        <time>2022-08-09T15:31:42.000Z</time>
      </trkpt>
      <trkpt lat="45.83934" lon="4.68257">
        <ele>252.85861</ele>
        <time>2022-08-09T15:31:43.000Z</time>
      </trkpt>
      <trkpt lat="45.83929" lon="4.68257">
        <ele>252.96276</ele>
        <time>2022-08-09T15:31:44.000Z</time>
      </trkpt>
      <trkpt lat="45.83925" lon="4.68257">
        <ele>253.10717</ele>
        <time>2022-08-09T15:31:45.000Z</time>
      </trkpt>
      <trkpt lat="45.83921" lon="4.68257">
        <ele>253.26436</ele>
        <time>2022-08-09T15:31:46.000Z</time>
      </trkpt>
      <trkpt lat="45.83917" lon="4.68257">
        <ele>253.4146</ele>
        <time>2022-08-09T15:31:47.000Z</time>
      </trkpt>
      <trkpt lat="45.83914" lon="4.68257">
        <ele>253.52594</ele>
        <time>2022-08-09T15:31:48.000Z</time>
      </trkpt>
      <trkpt lat="45.83912" lon="4.68257">
        <ele>253.61075</ele>
        <time>2022-08-09T15:31:49.000Z</time>
      </trkpt>
      <trkpt lat="45.83909" lon="4.68258">
        <ele>253.73225</ele>
        <time>2022-08-09T15:31:51.000Z</time>
      </trkpt>
      <trkpt lat="45.83906" lon="4.68258">
        <ele>253.79546</ele>
        <time>2022-08-09T15:31:53.000Z</time>
      </trkpt>
      <trkpt lat="45.83902" lon="4.68258">
        <ele>253.9066</ele>
        <time>2022-08-09T15:31:55.000Z</time>
      </trkpt>
      <trkpt lat="45.83897" lon="4.68259">
        <ele>254.05731</ele>
        <time>2022-08-09T15:31:58.000Z</time>
      </trkpt>
      <trkpt lat="45.83894" lon="4.68259">
        <ele>254.09421</ele>
        <time>2022-08-09T15:31:59.000Z</time>
      </trkpt>
      <trkpt lat="45.83889" lon="4.68259">
        <ele>254.17199</ele>
        <time>2022-08-09T15:32:01.000Z</time>
      </trkpt>
      <trkpt lat="45.83885" lon="4.68259">
        <ele>254.17424</ele>
        <time>2022-08-09T15:32:02.000Z</time>
      </trkpt>
      <trkpt lat="45.83882" lon="4.68259">
        <ele>254.15934</ele>
        <time>2022-08-09T15:32:03.000Z</time>
      </trkpt>
      <trkpt lat="45.83879" lon="4.68259">
        <ele>254.12727</ele>
        <time>2022-08-09T15:32:04.000Z</time>
      </trkpt>
      <trkpt lat="45.83876" lon="4.68259">
        <ele>254.12501</ele>
        <time>2022-08-09T15:32:05.000Z</time>
      </trkpt>
      <trkpt lat="45.83872" lon="4.68259">
        <ele>254.19156</ele>
        <time>2022-08-09T15:32:06.000Z</time>
      </trkpt>
      <trkpt lat="45.83865" lon="4.6826">
        <ele>254.58732</ele>
        <time>2022-08-09T15:32:08.000Z</time>
      </trkpt>
      <trkpt lat="45.83861" lon="4.6826">
        <ele>254.8673</ele>
        <time>2022-08-09T15:32:09.000Z</time>
      </trkpt>
      <trkpt lat="45.83856" lon="4.6826">
        <ele>255.12166</ele>
        <time>2022-08-09T15:32:10.000Z</time>
      </trkpt>
      <trkpt lat="45.83852" lon="4.6826">
        <ele>255.3695</ele>
        <time>2022-08-09T15:32:11.000Z</time>
      </trkpt>
      <trkpt lat="45.83847" lon="4.68259">
        <ele>255.56727</ele>
        <time>2022-08-09T15:32:12.000Z</time>
      </trkpt>
      <trkpt lat="45.83842" lon="4.68258">
        <ele>255.65142</ele>
        <time>2022-08-09T15:32:13.000Z</time>
      </trkpt>
      <trkpt lat="45.83831" lon="4.68257">
        <ele>255.51972</ele>
        <time>2022-08-09T15:32:15.000Z</time>
      </trkpt>
      <trkpt lat="45.83827" lon="4.68259">
        <ele>255.84227</ele>
        <time>2022-08-09T15:32:16.000Z</time>
      </trkpt>
      <trkpt lat="45.83822" lon="4.68262">
        <ele>256.38796</ele>
        <time>2022-08-09T15:32:17.000Z</time>
      </trkpt>
      <trkpt lat="45.83816" lon="4.68269">
        <ele>256.99301</ele>
        <time>2022-08-09T15:32:19.000Z</time>
      </trkpt>
      <trkpt lat="45.83812" lon="4.68273">
        <ele>257.07339</ele>
        <time>2022-08-09T15:32:20.000Z</time>
      </trkpt>
      <trkpt lat="45.83808" lon="4.68277">
        <ele>257.2963</ele>
        <time>2022-08-09T15:32:21.000Z</time>
      </trkpt>
      <trkpt lat="45.83804" lon="4.68281">
        <ele>257.76403</ele>
        <time>2022-08-09T15:32:22.000Z</time>
      </trkpt>
      <trkpt lat="45.83802" lon="4.68286">
        <ele>258.54304</ele>
        <time>2022-08-09T15:32:23.000Z</time>
      </trkpt>
      <trkpt lat="45.83798" lon="4.68291">
        <ele>259.37182</ele>
        <time>2022-08-09T15:32:24.000Z</time>
      </trkpt>
      <trkpt lat="45.83794" lon="4.68295">
        <ele>259.83725</ele>
        <time>2022-08-09T15:32:25.000Z</time>
      </trkpt>
      <trkpt lat="45.8379" lon="4.68301">
        <ele>259.87441</ele>
        <time>2022-08-09T15:32:26.000Z</time>
      </trkpt>
      <trkpt lat="45.83786" lon="4.68306">
        <ele>259.93227</ele>
        <time>2022-08-09T15:32:27.000Z</time>
      </trkpt>
      <trkpt lat="45.83783" lon="4.68311">
        <ele>260.30015</ele>
        <time>2022-08-09T15:32:28.000Z</time>
      </trkpt>
      <trkpt lat="45.83779" lon="4.68317">
        <ele>261.02888</ele>
        <time>2022-08-09T15:32:29.000Z</time>
      </trkpt>
      <trkpt lat="45.83776" lon="4.68323">
        <ele>261.82428</ele>
        <time>2022-08-09T15:32:30.000Z</time>
      </trkpt>
      <trkpt lat="45.83772" lon="4.68329">
        <ele>262.36317</ele>
        <time>2022-08-09T15:32:31.000Z</time>
      </trkpt>
      <trkpt lat="45.83769" lon="4.68335">
        <ele>262.64929</ele>
        <time>2022-08-09T15:32:32.000Z</time>
      </trkpt>
      <trkpt lat="45.83761" lon="4.68344">
        <ele>263.02387</ele>
        <time>2022-08-09T15:32:34.000Z</time>
      </trkpt>
      <trkpt lat="45.83756" lon="4.68349">
        <ele>263.61245</ele>
        <time>2022-08-09T15:32:35.000Z</time>
      </trkpt>
      <trkpt lat="45.83753" lon="4.68355">
        <ele>264.39453</ele>
        <time>2022-08-09T15:32:36.000Z</time>
      </trkpt>
      <trkpt lat="45.8375" lon="4.68361">
        <ele>264.92384</ele>
        <time>2022-08-09T15:32:37.000Z</time>
      </trkpt>
      <trkpt lat="45.83732" lon="4.68387">
        <ele>267.07046</ele>
        <time>2022-08-09T15:32:43.000Z</time>
      </trkpt>
      <trkpt lat="45.83731" lon="4.68391">
        <ele>267.51945</ele>
        <time>2022-08-09T15:32:44.000Z</time>
      </trkpt>
      <trkpt lat="45.83727" lon="4.68394">
        <ele>267.75043</ele>
        <time>2022-08-09T15:32:45.000Z</time>
      </trkpt>
      <trkpt lat="45.83724" lon="4.68397">
        <ele>267.9517</ele>
        <time>2022-08-09T15:32:46.000Z</time>
      </trkpt>
      <trkpt lat="45.83722" lon="4.68401">
        <ele>268.318</ele>
        <time>2022-08-09T15:32:47.000Z</time>
      </trkpt>
      <trkpt lat="45.8372" lon="4.68404">
        <ele>268.51713</ele>
        <time>2022-08-09T15:32:48.000Z</time>
      </trkpt>
      <trkpt lat="45.83718" lon="4.68407">
        <ele>268.84137</ele>
        <time>2022-08-09T15:32:49.000Z</time>
      </trkpt>
      <trkpt lat="45.83716" lon="4.68411">
        <ele>269.2542</ele>
        <time>2022-08-09T15:32:50.000Z</time>
      </trkpt>
      <trkpt lat="45.83714" lon="4.68415">
        <ele>269.73521</ele>
        <time>2022-08-09T15:32:51.000Z</time>
      </trkpt>
      <trkpt lat="45.83713" lon="4.68419">
        <ele>270.20134</ele>
        <time>2022-08-09T15:32:52.000Z</time>
      </trkpt>
      <trkpt lat="45.83711" lon="4.68423">
        <ele>270.58275</ele>
        <time>2022-08-09T15:32:53.000Z</time>
      </trkpt>
      <trkpt lat="45.83709" lon="4.68426">
        <ele>270.82644</ele>
        <time>2022-08-09T15:32:54.000Z</time>
      </trkpt>
      <trkpt lat="45.83707" lon="4.6843">
        <ele>271.00748</ele>
        <time>2022-08-09T15:32:55.000Z</time>
      </trkpt>
      <trkpt lat="45.83705" lon="4.68434">
        <ele>271.15246</ele>
        <time>2022-08-09T15:32:56.000Z</time>
      </trkpt>
      <trkpt lat="45.83703" lon="4.68438">
        <ele>271.2803</ele>
        <time>2022-08-09T15:32:57.000Z</time>
      </trkpt>
      <trkpt lat="45.83702" lon="4.68442">
        <ele>271.41026</ele>
        <time>2022-08-09T15:32:58.000Z</time>
      </trkpt>
      <trkpt lat="45.83698" lon="4.68449">
        <ele>271.57456</ele>
        <time>2022-08-09T15:33:00.000Z</time>
      </trkpt>
      <trkpt lat="45.83696" lon="4.68451">
        <ele>271.55631</ele>
        <time>2022-08-09T15:33:01.000Z</time>
      </trkpt>
      <trkpt lat="45.83695" lon="4.68452">
        <ele>271.49757</ele>
        <time>2022-08-09T15:33:02.000Z</time>
      </trkpt>
      <trkpt lat="45.83693" lon="4.68452">
        <ele>271.3752</ele>
        <time>2022-08-09T15:33:03.000Z</time>
      </trkpt>
      <trkpt lat="45.8369" lon="4.68451">
        <ele>271.19404</ele>
        <time>2022-08-09T15:33:04.000Z</time>
      </trkpt>
      <trkpt lat="45.83688" lon="4.6845">
        <ele>270.95565</ele>
        <time>2022-08-09T15:33:05.000Z</time>
      </trkpt>
      <trkpt lat="45.83683" lon="4.68445">
        <ele>270.42621</ele>
        <time>2022-08-09T15:33:07.000Z</time>
      </trkpt>
      <trkpt lat="45.83681" lon="4.68442">
        <ele>270.24439</ele>
        <time>2022-08-09T15:33:08.000Z</time>
      </trkpt>
      <trkpt lat="45.83678" lon="4.68438">
        <ele>270.2107</ele>
        <time>2022-08-09T15:33:09.000Z</time>
      </trkpt>
      <trkpt lat="45.83676" lon="4.68435">
        <ele>270.34406</ele>
        <time>2022-08-09T15:33:10.000Z</time>
      </trkpt>
      <trkpt lat="45.83672" lon="4.68427">
        <ele>270.82125</ele>
        <time>2022-08-09T15:33:12.000Z</time>
      </trkpt>
      <trkpt lat="45.8367" lon="4.68424">
        <ele>270.90652</ele>
        <time>2022-08-09T15:33:13.000Z</time>
      </trkpt>
      <trkpt lat="45.83669" lon="4.6842">
        <ele>270.75925</ele>
        <time>2022-08-09T15:33:14.000Z</time>
      </trkpt>
      <trkpt lat="45.83667" lon="4.68417">
        <ele>270.41936</ele>
        <time>2022-08-09T15:33:15.000Z</time>
      </trkpt>
      <trkpt lat="45.83666" lon="4.68415">
        <ele>269.96698</ele>
        <time>2022-08-09T15:33:16.000Z</time>
      </trkpt>
      <trkpt lat="45.83665" lon="4.68412">
        <ele>269.46995</ele>
        <time>2022-08-09T15:33:17.000Z</time>
      </trkpt>
      <trkpt lat="45.83662" lon="4.68409">
        <ele>268.3969</ele>
        <time>2022-08-09T15:33:19.000Z</time>
      </trkpt>
      <trkpt lat="45.8366" lon="4.68405">
        <ele>267.21469</ele>
        <time>2022-08-09T15:33:21.000Z</time>
      </trkpt>
      <trkpt lat="45.83659" lon="4.68403">
        <ele>266.61059</ele>
        <time>2022-08-09T15:33:22.000Z</time>
      </trkpt>
      <trkpt lat="45.83658" lon="4.684">
        <ele>266.02317</ele>
        <time>2022-08-09T15:33:23.000Z</time>
      </trkpt>
      <trkpt lat="45.83656" lon="4.68398">
        <ele>265.56588</ele>
        <time>2022-08-09T15:33:24.000Z</time>
      </trkpt>
      <trkpt lat="45.83655" lon="4.68395">
        <ele>265.20485</ele>
        <time>2022-08-09T15:33:25.000Z</time>
      </trkpt>
      <trkpt lat="45.83652" lon="4.68391">
        <ele>264.94614</ele>
        <time>2022-08-09T15:33:27.000Z</time>
      </trkpt>
      <trkpt lat="45.8365" lon="4.68388">
        <ele>264.92008</ele>
        <time>2022-08-09T15:33:28.000Z</time>
      </trkpt>
      <trkpt lat="45.83649" lon="4.68385">
        <ele>264.91027</ele>
        <time>2022-08-09T15:33:29.000Z</time>
      </trkpt>
      <trkpt lat="45.83648" lon="4.68382">
        <ele>264.8985</ele>
        <time>2022-08-09T15:33:30.000Z</time>
      </trkpt>
      <trkpt lat="45.83647" lon="4.68379">
        <ele>264.86489</ele>
        <time>2022-08-09T15:33:31.000Z</time>
      </trkpt>
      <trkpt lat="45.83646" lon="4.68376">
        <ele>264.82164</ele>
        <time>2022-08-09T15:33:32.000Z</time>
      </trkpt>
      <trkpt lat="45.83646" lon="4.68374">
        <ele>264.72893</ele>
        <time>2022-08-09T15:33:34.000Z</time>
      </trkpt>
      <trkpt lat="45.83645" lon="4.6837">
        <ele>264.76047</ele>
        <time>2022-08-09T15:34:10.000Z</time>
      </trkpt>
      <trkpt lat="45.83643" lon="4.68367">
        <ele>264.8729</ele>
        <time>2022-08-09T15:34:11.000Z</time>
      </trkpt>
      <trkpt lat="45.83641" lon="4.68364">
        <ele>265.13748</ele>
        <time>2022-08-09T15:34:12.000Z</time>
      </trkpt>
      <trkpt lat="45.83638" lon="4.68361">
        <ele>265.60876</ele>
        <time>2022-08-09T15:34:13.000Z</time>
      </trkpt>
      <trkpt lat="45.83634" lon="4.68354">
        <ele>267.33156</ele>
        <time>2022-08-09T15:34:15.000Z</time>
      </trkpt>
      <trkpt lat="45.83631" lon="4.6835">
        <ele>268.42233</ele>
        <time>2022-08-09T15:34:16.000Z</time>
      </trkpt>
      <trkpt lat="45.83629" lon="4.68346">
        <ele>269.42078</ele>
        <time>2022-08-09T15:34:17.000Z</time>
      </trkpt>
      <trkpt lat="45.83624" lon="4.68337">
        <ele>270.53132</ele>
        <time>2022-08-09T15:34:19.000Z</time>
      </trkpt>
      <trkpt lat="45.83622" lon="4.68332">
        <ele>270.65451</ele>
        <time>2022-08-09T15:34:20.000Z</time>
      </trkpt>
      <trkpt lat="45.83618" lon="4.68323">
        <ele>270.73062</ele>
        <time>2022-08-09T15:34:22.000Z</time>
      </trkpt>
      <trkpt lat="45.83615" lon="4.68319">
        <ele>270.83553</ele>
        <time>2022-08-09T15:34:23.000Z</time>
      </trkpt>
      <trkpt lat="45.83613" lon="4.68314">
        <ele>270.95751</ele>
        <time>2022-08-09T15:34:24.000Z</time>
      </trkpt>
      <trkpt lat="45.83611" lon="4.6831">
        <ele>271.07934</ele>
        <time>2022-08-09T15:34:25.000Z</time>
      </trkpt>
      <trkpt lat="45.83609" lon="4.68305">
        <ele>271.17328</ele>
        <time>2022-08-09T15:34:26.000Z</time>
      </trkpt>
      <trkpt lat="45.83607" lon="4.68301">
        <ele>271.23005</ele>
        <time>2022-08-09T15:34:27.000Z</time>
      </trkpt>
      <trkpt lat="45.83605" lon="4.68298">
        <ele>271.251</ele>
        <time>2022-08-09T15:34:28.000Z</time>
      </trkpt>
      <trkpt lat="45.83603" lon="4.68295">
        <ele>271.24486</ele>
        <time>2022-08-09T15:34:29.000Z</time>
      </trkpt>
      <trkpt lat="45.83597" lon="4.68291">
        <ele>271.2502</ele>
        <time>2022-08-09T15:34:31.000Z</time>
      </trkpt>
      <trkpt lat="45.83594" lon="4.68291">
        <ele>271.31898</ele>
        <time>2022-08-09T15:34:32.000Z</time>
      </trkpt>
      <trkpt lat="45.83591" lon="4.68292">
        <ele>271.44119</ele>
        <time>2022-08-09T15:34:33.000Z</time>
      </trkpt>
      <trkpt lat="45.83589" lon="4.68294">
        <ele>271.58042</ele>
        <time>2022-08-09T15:34:34.000Z</time>
      </trkpt>
      <trkpt lat="45.83587" lon="4.68296">
        <ele>271.67944</ele>
        <time>2022-08-09T15:34:35.000Z</time>
      </trkpt>
      <trkpt lat="45.83585" lon="4.68299">
        <ele>271.73546</ele>
        <time>2022-08-09T15:34:36.000Z</time>
      </trkpt>
      <trkpt lat="45.83584" lon="4.68303">
        <ele>271.71286</ele>
        <time>2022-08-09T15:34:37.000Z</time>
      </trkpt>
      <trkpt lat="45.83582" lon="4.68307">
        <ele>271.59273</ele>
        <time>2022-08-09T15:34:38.000Z</time>
      </trkpt>
      <trkpt lat="45.83581" lon="4.68312">
        <ele>271.37163</ele>
        <time>2022-08-09T15:34:39.000Z</time>
      </trkpt>
      <trkpt lat="45.83581" lon="4.68318">
        <ele>271.08821</ele>
        <time>2022-08-09T15:34:40.000Z</time>
      </trkpt>
      <trkpt lat="45.83581" lon="4.68324">
        <ele>270.86346</ele>
        <time>2022-08-09T15:34:41.000Z</time>
      </trkpt>
      <trkpt lat="45.83582" lon="4.68331">
        <ele>270.7594</ele>
        <time>2022-08-09T15:34:42.000Z</time>
      </trkpt>
      <trkpt lat="45.83585" lon="4.68342">
        <ele>270.78319</ele>
        <time>2022-08-09T15:34:43.000Z</time>
      </trkpt>
      <trkpt lat="45.83586" lon="4.68355">
        <ele>270.70623</ele>
        <time>2022-08-09T15:34:45.000Z</time>
      </trkpt>
      <trkpt lat="45.83586" lon="4.68363">
        <ele>270.70249</ele>
        <time>2022-08-09T15:34:46.000Z</time>
      </trkpt>
      <trkpt lat="45.83586" lon="4.6837">
        <ele>270.74435</ele>
        <time>2022-08-09T15:34:47.000Z</time>
      </trkpt>
      <trkpt lat="45.83585" lon="4.68378">
        <ele>270.74728</ele>
        <time>2022-08-09T15:34:48.000Z</time>
      </trkpt>
      <trkpt lat="45.83584" lon="4.68383">
        <ele>270.60759</ele>
        <time>2022-08-09T15:34:49.000Z</time>
      </trkpt>
      <trkpt lat="45.83582" lon="4.68387">
        <ele>270.33837</ele>
        <time>2022-08-09T15:34:50.000Z</time>
      </trkpt>
      <trkpt lat="45.83578" lon="4.6839">
        <ele>269.87211</ele>
        <time>2022-08-09T15:34:51.000Z</time>
      </trkpt>
      <trkpt lat="45.83576" lon="4.68394">
        <ele>269.99708</ele>
        <time>2022-08-09T15:34:52.000Z</time>
      </trkpt>
      <trkpt lat="45.83573" lon="4.68398">
        <ele>270.38945</ele>
        <time>2022-08-09T15:34:53.000Z</time>
      </trkpt>
      <trkpt lat="45.83571" lon="4.68402">
        <ele>271.01293</ele>
        <time>2022-08-09T15:34:54.000Z</time>
      </trkpt>
      <trkpt lat="45.83567" lon="4.68407">
        <ele>271.61568</ele>
        <time>2022-08-09T15:34:55.000Z</time>
      </trkpt>
      <trkpt lat="45.83565" lon="4.68412">
        <ele>271.90379</ele>
        <time>2022-08-09T15:34:56.000Z</time>
      </trkpt>
      <trkpt lat="45.83563" lon="4.68415">
        <ele>271.91024</ele>
        <time>2022-08-09T15:34:57.000Z</time>
      </trkpt>
      <trkpt lat="45.8356" lon="4.68419">
        <ele>271.57638</ele>
        <time>2022-08-09T15:34:58.000Z</time>
      </trkpt>
      <trkpt lat="45.83558" lon="4.68422">
        <ele>271.08929</ele>
        <time>2022-08-09T15:34:59.000Z</time>
      </trkpt>
      <trkpt lat="45.83555" lon="4.68426">
        <ele>270.63505</ele>
        <time>2022-08-09T15:35:00.000Z</time>
      </trkpt>
      <trkpt lat="45.83553" lon="4.68429">
        <ele>270.25134</ele>
        <time>2022-08-09T15:35:01.000Z</time>
      </trkpt>
      <trkpt lat="45.8355" lon="4.68432">
        <ele>270.03854</ele>
        <time>2022-08-09T15:35:02.000Z</time>
      </trkpt>
      <trkpt lat="45.83548" lon="4.68435">
        <ele>270.08485</ele>
        <time>2022-08-09T15:35:03.000Z</time>
      </trkpt>
      <trkpt lat="45.83545" lon="4.68438">
        <ele>270.3443</ele>
        <time>2022-08-09T15:35:04.000Z</time>
      </trkpt>
      <trkpt lat="45.83542" lon="4.68441">
        <ele>270.82397</ele>
        <time>2022-08-09T15:35:05.000Z</time>
      </trkpt>
      <trkpt lat="45.83539" lon="4.68444">
        <ele>271.49171</ele>
        <time>2022-08-09T15:35:06.000Z</time>
      </trkpt>
      <trkpt lat="45.83535" lon="4.68446">
        <ele>272.16685</ele>
        <time>2022-08-09T15:35:07.000Z</time>
      </trkpt>
      <trkpt lat="45.83532" lon="4.68448">
        <ele>272.77536</ele>
        <time>2022-08-09T15:35:08.000Z</time>
      </trkpt>
      <trkpt lat="45.83529" lon="4.6845">
        <ele>273.18551</ele>
        <time>2022-08-09T15:35:09.000Z</time>
      </trkpt>
      <trkpt lat="45.83525" lon="4.68452">
        <ele>273.30311</ele>
        <time>2022-08-09T15:35:10.000Z</time>
      </trkpt>
      <trkpt lat="45.83522" lon="4.68454">
        <ele>273.1444</ele>
        <time>2022-08-09T15:35:11.000Z</time>
      </trkpt>
      <trkpt lat="45.83518" lon="4.68455">
        <ele>272.85134</ele>
        <time>2022-08-09T15:35:12.000Z</time>
      </trkpt>
      <trkpt lat="45.83514" lon="4.68457">
        <ele>272.56127</ele>
        <time>2022-08-09T15:35:13.000Z</time>
      </trkpt>
      <trkpt lat="45.83511" lon="4.68459">
        <ele>272.41481</ele>
        <time>2022-08-09T15:35:14.000Z</time>
      </trkpt>
      <trkpt lat="45.83507" lon="4.68461">
        <ele>272.49521</ele>
        <time>2022-08-09T15:35:15.000Z</time>
      </trkpt>
      <trkpt lat="45.83504" lon="4.68464">
        <ele>272.83464</ele>
        <time>2022-08-09T15:35:16.000Z</time>
      </trkpt>
      <trkpt lat="45.835" lon="4.68466">
        <ele>273.34313</ele>
        <time>2022-08-09T15:35:17.000Z</time>
      </trkpt>
      <trkpt lat="45.83497" lon="4.68469">
        <ele>273.8608</ele>
        <time>2022-08-09T15:35:18.000Z</time>
      </trkpt>
      <trkpt lat="45.83493" lon="4.68472">
        <ele>274.27369</ele>
        <time>2022-08-09T15:35:19.000Z</time>
      </trkpt>
      <trkpt lat="45.8349" lon="4.68474">
        <ele>274.51593</ele>
        <time>2022-08-09T15:35:20.000Z</time>
      </trkpt>
      <trkpt lat="45.83486" lon="4.68477">
        <ele>274.57398</ele>
        <time>2022-08-09T15:35:21.000Z</time>
      </trkpt>
      <trkpt lat="45.83483" lon="4.68479">
        <ele>274.52806</ele>
        <time>2022-08-09T15:35:22.000Z</time>
      </trkpt>
      <trkpt lat="45.83479" lon="4.68481">
        <ele>274.43046</ele>
        <time>2022-08-09T15:35:23.000Z</time>
      </trkpt>
      <trkpt lat="45.83476" lon="4.68483">
        <ele>274.24358</ele>
        <time>2022-08-09T15:35:24.000Z</time>
      </trkpt>
      <trkpt lat="45.83473" lon="4.68485">
        <ele>274.06354</ele>
        <time>2022-08-09T15:35:25.000Z</time>
      </trkpt>
      <trkpt lat="45.8347" lon="4.68488">
        <ele>273.95626</ele>
        <time>2022-08-09T15:35:26.000Z</time>
      </trkpt>
      <trkpt lat="45.83467" lon="4.6849">
        <ele>273.99782</ele>
        <time>2022-08-09T15:35:27.000Z</time>
      </trkpt>
      <trkpt lat="45.83464" lon="4.68492">
        <ele>274.20245</ele>
        <time>2022-08-09T15:35:28.000Z</time>
      </trkpt>
      <trkpt lat="45.83461" lon="4.68494">
        <ele>274.6014</ele>
        <time>2022-08-09T15:35:29.000Z</time>
      </trkpt>
      <trkpt lat="45.83457" lon="4.68496">
        <ele>275.1403</ele>
        <time>2022-08-09T15:35:30.000Z</time>
      </trkpt>
      <trkpt lat="45.83453" lon="4.68498">
        <ele>275.7917</ele>
        <time>2022-08-09T15:35:31.000Z</time>
      </trkpt>
      <trkpt lat="45.83449" lon="4.685">
        <ele>276.52633</ele>
        <time>2022-08-09T15:35:32.000Z</time>
      </trkpt>
      <trkpt lat="45.83446" lon="4.68501">
        <ele>277.19642</ele>
        <time>2022-08-09T15:35:33.000Z</time>
      </trkpt>
      <trkpt lat="45.83442" lon="4.68503">
        <ele>277.7586</ele>
        <time>2022-08-09T15:35:34.000Z</time>
      </trkpt>
      <trkpt lat="45.83433" lon="4.68507">
        <ele>278.26082</ele>
        <time>2022-08-09T15:35:36.000Z</time>
      </trkpt>
      <trkpt lat="45.83429" lon="4.68509">
        <ele>277.84294</ele>
        <time>2022-08-09T15:35:37.000Z</time>
      </trkpt>
      <trkpt lat="45.8342" lon="4.68513">
        <ele>276.26205</ele>
        <time>2022-08-09T15:35:39.000Z</time>
      </trkpt>
      <trkpt lat="45.83413" lon="4.68515">
        <ele>275.54982</ele>
        <time>2022-08-09T15:35:40.000Z</time>
      </trkpt>
      <trkpt lat="45.83409" lon="4.68517">
        <ele>275.64241</ele>
        <time>2022-08-09T15:35:41.000Z</time>
      </trkpt>
      <trkpt lat="45.83406" lon="4.6852">
        <ele>276.10625</ele>
        <time>2022-08-09T15:35:42.000Z</time>
      </trkpt>
      <trkpt lat="45.83403" lon="4.68523">
        <ele>276.79851</ele>
        <time>2022-08-09T15:35:43.000Z</time>
      </trkpt>
      <trkpt lat="45.83394" lon="4.68528">
        <ele>278.75095</ele>
        <time>2022-08-09T15:35:45.000Z</time>
      </trkpt>
      <trkpt lat="45.8339" lon="4.68529">
        <ele>279.3611</ele>
        <time>2022-08-09T15:35:46.000Z</time>
      </trkpt>
      <trkpt lat="45.83387" lon="4.68532">
        <ele>279.76287</ele>
        <time>2022-08-09T15:35:47.000Z</time>
      </trkpt>
      <trkpt lat="45.83382" lon="4.68533">
        <ele>279.64487</ele>
        <time>2022-08-09T15:35:48.000Z</time>
      </trkpt>
      <trkpt lat="45.83378" lon="4.68535">
        <ele>279.29265</ele>
        <time>2022-08-09T15:35:49.000Z</time>
      </trkpt>
      <trkpt lat="45.83376" lon="4.68537">
        <ele>279.00618</ele>
        <time>2022-08-09T15:35:50.000Z</time>
      </trkpt>
      <trkpt lat="45.83372" lon="4.68539">
        <ele>278.54346</ele>
        <time>2022-08-09T15:35:51.000Z</time>
      </trkpt>
      <trkpt lat="45.83366" lon="4.68543">
        <ele>278.10939</ele>
        <time>2022-08-09T15:35:53.000Z</time>
      </trkpt>
      <trkpt lat="45.83363" lon="4.68544">
        <ele>278.14172</ele>
        <time>2022-08-09T15:35:54.000Z</time>
      </trkpt>
      <trkpt lat="45.8336" lon="4.68546">
        <ele>278.28118</ele>
        <time>2022-08-09T15:35:55.000Z</time>
      </trkpt>
      <trkpt lat="45.83353" lon="4.68547">
        <ele>278.73958</ele>
        <time>2022-08-09T15:35:57.000Z</time>
      </trkpt>
      <trkpt lat="45.8335" lon="4.68547">
        <ele>278.94571</ele>
        <time>2022-08-09T15:35:58.000Z</time>
      </trkpt>
      <trkpt lat="45.83347" lon="4.68546">
        <ele>279.08463</ele>
        <time>2022-08-09T15:35:59.000Z</time>
      </trkpt>
      <trkpt lat="45.83344" lon="4.68545">
        <ele>279.17093</ele>
        <time>2022-08-09T15:36:00.000Z</time>
      </trkpt>
      <trkpt lat="45.83341" lon="4.68543">
        <ele>279.3476</ele>
        <time>2022-08-09T15:36:01.000Z</time>
      </trkpt>
      <trkpt lat="45.83338" lon="4.68541">
        <ele>279.58461</ele>
        <time>2022-08-09T15:36:02.000Z</time>
      </trkpt>
      <trkpt lat="45.83336" lon="4.68538">
        <ele>279.82134</ele>
        <time>2022-08-09T15:36:03.000Z</time>
      </trkpt>
      <trkpt lat="45.83334" lon="4.68536">
        <ele>280.05558</ele>
        <time>2022-08-09T15:36:04.000Z</time>
      </trkpt>
      <trkpt lat="45.83332" lon="4.68534">
        <ele>280.29729</ele>
        <time>2022-08-09T15:36:05.000Z</time>
      </trkpt>
      <trkpt lat="45.8333" lon="4.68532">
        <ele>280.49083</ele>
        <time>2022-08-09T15:36:06.000Z</time>
      </trkpt>
      <trkpt lat="45.83328" lon="4.6853">
        <ele>280.64233</ele>
        <time>2022-08-09T15:36:07.000Z</time>
      </trkpt>
      <trkpt lat="45.83326" lon="4.68529">
        <ele>280.73448</ele>
        <time>2022-08-09T15:36:08.000Z</time>
      </trkpt>
      <trkpt lat="45.83323" lon="4.68528">
        <ele>280.81744</ele>
        <time>2022-08-09T15:36:10.000Z</time>
      </trkpt>
      <trkpt lat="45.83321" lon="4.68528">
        <ele>280.78023</ele>
        <time>2022-08-09T15:36:12.000Z</time>
      </trkpt>
      <trkpt lat="45.83318" lon="4.68529">
        <ele>280.54114</ele>
        <time>2022-08-09T15:36:15.000Z</time>
      </trkpt>
      <trkpt lat="45.83318" lon="4.68529">
        <ele>280.54114</ele>
        <time>2022-08-09T15:36:15.000Z</time>
      </trkpt>
      <trkpt lat="45.83315" lon="4.6853">
        <ele>280.26257</ele>
        <time>2022-08-09T15:36:17.000Z</time>
      </trkpt>
      <trkpt lat="45.83313" lon="4.68531">
        <ele>279.88948</ele>
        <time>2022-08-09T15:36:19.000Z</time>
      </trkpt>
      <trkpt lat="45.83311" lon="4.68532">
        <ele>279.44994</ele>
        <time>2022-08-09T15:36:22.000Z</time>
      </trkpt>
      <trkpt lat="45.83309" lon="4.68533">
        <ele>278.90306</ele>
        <time>2022-08-09T15:36:25.000Z</time>
      </trkpt>
      <trkpt lat="45.83307" lon="4.68534">
        <ele>278.55412</ele>
        <time>2022-08-09T15:36:27.000Z</time>
      </trkpt>
      <trkpt lat="45.83305" lon="4.68535">
        <ele>278.16586</ele>
        <time>2022-08-09T15:36:30.000Z</time>
      </trkpt>
      <trkpt lat="45.83303" lon="4.68538">
        <ele>277.81787</ele>
        <time>2022-08-09T15:36:36.000Z</time>
      </trkpt>
      <trkpt lat="45.83304" lon="4.68542">
        <ele>277.7533</ele>
        <time>2022-08-09T15:36:42.000Z</time>
      </trkpt>
      <trkpt lat="45.83305" lon="4.68545">
        <ele>277.90733</ele>
        <time>2022-08-09T15:36:43.000Z</time>
      </trkpt>
      <trkpt lat="45.83307" lon="4.6855">
        <ele>278.51777</ele>
        <time>2022-08-09T15:36:45.000Z</time>
      </trkpt>
      <trkpt lat="45.83309" lon="4.68554">
        <ele>278.88982</ele>
        <time>2022-08-09T15:36:46.000Z</time>
      </trkpt>
      <trkpt lat="45.83311" lon="4.68558">
        <ele>279.1514</ele>
        <time>2022-08-09T15:36:47.000Z</time>
      </trkpt>
      <trkpt lat="45.83312" lon="4.68562">
        <ele>279.16473</ele>
        <time>2022-08-09T15:36:48.000Z</time>
      </trkpt>
      <trkpt lat="45.83314" lon="4.68567">
        <ele>278.87607</ele>
        <time>2022-08-09T15:36:49.000Z</time>
      </trkpt>
      <trkpt lat="45.83316" lon="4.68571">
        <ele>278.40539</ele>
        <time>2022-08-09T15:36:50.000Z</time>
      </trkpt>
      <trkpt lat="45.83318" lon="4.68576">
        <ele>277.92672</ele>
        <time>2022-08-09T15:36:51.000Z</time>
      </trkpt>
      <trkpt lat="45.83321" lon="4.68584">
        <ele>277.68018</ele>
        <time>2022-08-09T15:36:53.000Z</time>
      </trkpt>
      <trkpt lat="45.83322" lon="4.6859">
        <ele>278.00967</ele>
        <time>2022-08-09T15:36:55.000Z</time>
      </trkpt>
      <trkpt lat="45.83323" lon="4.68594">
        <ele>278.26623</ele>
        <time>2022-08-09T15:36:56.000Z</time>
      </trkpt>
      <trkpt lat="45.83324" lon="4.68597">
        <ele>278.54017</ele>
        <time>2022-08-09T15:36:57.000Z</time>
      </trkpt>
      <trkpt lat="45.83325" lon="4.68601">
        <ele>278.80351</ele>
        <time>2022-08-09T15:36:58.000Z</time>
      </trkpt>
      <trkpt lat="45.83326" lon="4.68604">
        <ele>279.05457</ele>
        <time>2022-08-09T15:36:59.000Z</time>
      </trkpt>
      <trkpt lat="45.83327" lon="4.68607">
        <ele>279.25785</ele>
        <time>2022-08-09T15:37:00.000Z</time>
      </trkpt>
      <trkpt lat="45.83328" lon="4.68611">
        <ele>279.46989</ele>
        <time>2022-08-09T15:37:01.000Z</time>
      </trkpt>
      <trkpt lat="45.83329" lon="4.68617">
        <ele>279.8556</ele>
        <time>2022-08-09T15:37:02.000Z</time>
      </trkpt>
      <trkpt lat="45.83335" lon="4.68639">
        <ele>281.62585</ele>
        <time>2022-08-09T15:37:08.000Z</time>
      </trkpt>
      <trkpt lat="45.83336" lon="4.68644">
        <ele>281.40181</ele>
        <time>2022-08-09T15:37:09.000Z</time>
      </trkpt>
      <trkpt lat="45.83336" lon="4.68649">
        <ele>280.77935</ele>
        <time>2022-08-09T15:37:10.000Z</time>
      </trkpt>
      <trkpt lat="45.83337" lon="4.68653">
        <ele>279.96161</ele>
        <time>2022-08-09T15:37:11.000Z</time>
      </trkpt>
      <trkpt lat="45.83338" lon="4.68658">
        <ele>279.06651</ele>
        <time>2022-08-09T15:37:12.000Z</time>
      </trkpt>
      <trkpt lat="45.83339" lon="4.68662">
        <ele>278.15072</ele>
        <time>2022-08-09T15:37:13.000Z</time>
      </trkpt>
      <trkpt lat="45.8334" lon="4.68666">
        <ele>277.37534</ele>
        <time>2022-08-09T15:37:14.000Z</time>
      </trkpt>
      <trkpt lat="45.83341" lon="4.68669">
        <ele>276.74779</ele>
        <time>2022-08-09T15:37:15.000Z</time>
      </trkpt>
      <trkpt lat="45.83343" lon="4.68673">
        <ele>276.31944</ele>
        <time>2022-08-09T15:37:16.000Z</time>
      </trkpt>
      <trkpt lat="45.83346" lon="4.68681">
        <ele>276.08738</ele>
        <time>2022-08-09T15:37:18.000Z</time>
      </trkpt>
      <trkpt lat="45.83348" lon="4.68685">
        <ele>276.22242</ele>
        <time>2022-08-09T15:37:19.000Z</time>
      </trkpt>
      <trkpt lat="45.83349" lon="4.68688">
        <ele>276.4092</ele>
        <time>2022-08-09T15:37:20.000Z</time>
      </trkpt>
      <trkpt lat="45.83351" lon="4.68691">
        <ele>276.60953</ele>
        <time>2022-08-09T15:37:21.000Z</time>
      </trkpt>
      <trkpt lat="45.83353" lon="4.68694">
        <ele>276.80921</ele>
        <time>2022-08-09T15:37:22.000Z</time>
      </trkpt>
      <trkpt lat="45.83355" lon="4.68698">
        <ele>276.94071</ele>
        <time>2022-08-09T15:37:23.000Z</time>
      </trkpt>
      <trkpt lat="45.83356" lon="4.68701">
        <ele>276.99354</ele>
        <time>2022-08-09T15:37:24.000Z</time>
      </trkpt>
      <trkpt lat="45.83358" lon="4.68704">
        <ele>276.96183</ele>
        <time>2022-08-09T15:37:25.000Z</time>
      </trkpt>
      <trkpt lat="45.83361" lon="4.68712">
        <ele>276.62846</ele>
        <time>2022-08-09T15:37:27.000Z</time>
      </trkpt>
      <trkpt lat="45.83363" lon="4.68716">
        <ele>276.34379</ele>
        <time>2022-08-09T15:37:28.000Z</time>
      </trkpt>
      <trkpt lat="45.83364" lon="4.68721">
        <ele>276.03657</ele>
        <time>2022-08-09T15:37:29.000Z</time>
      </trkpt>
      <trkpt lat="45.83366" lon="4.68726">
        <ele>275.76218</ele>
        <time>2022-08-09T15:37:30.000Z</time>
      </trkpt>
      <trkpt lat="45.83367" lon="4.6873">
        <ele>275.58088</ele>
        <time>2022-08-09T15:37:31.000Z</time>
      </trkpt>
      <trkpt lat="45.83369" lon="4.68734">
        <ele>275.50491</ele>
        <time>2022-08-09T15:37:32.000Z</time>
      </trkpt>
      <trkpt lat="45.8337" lon="4.68737">
        <ele>275.50041</ele>
        <time>2022-08-09T15:37:33.000Z</time>
      </trkpt>
      <trkpt lat="45.83372" lon="4.6874">
        <ele>275.53946</ele>
        <time>2022-08-09T15:37:34.000Z</time>
      </trkpt>
      <trkpt lat="45.83374" lon="4.68745">
        <ele>275.61708</ele>
        <time>2022-08-09T15:37:35.000Z</time>
      </trkpt>
      <trkpt lat="45.83375" lon="4.68749">
        <ele>275.66585</ele>
        <time>2022-08-09T15:37:36.000Z</time>
      </trkpt>
      <trkpt lat="45.83377" lon="4.68754">
        <ele>275.64207</ele>
        <time>2022-08-09T15:37:37.000Z</time>
      </trkpt>
      <trkpt lat="45.83379" lon="4.68758">
        <ele>275.50227</ele>
        <time>2022-08-09T15:37:38.000Z</time>
      </trkpt>
      <trkpt lat="45.83382" lon="4.68763">
        <ele>275.28336</ele>
        <time>2022-08-09T15:37:39.000Z</time>
      </trkpt>
      <trkpt lat="45.83384" lon="4.68767">
        <ele>275.05693</ele>
        <time>2022-08-09T15:37:40.000Z</time>
      </trkpt>
      <trkpt lat="45.83387" lon="4.68771">
        <ele>274.91208</ele>
        <time>2022-08-09T15:37:41.000Z</time>
      </trkpt>
      <trkpt lat="45.83389" lon="4.68775">
        <ele>274.91833</ele>
        <time>2022-08-09T15:37:42.000Z</time>
      </trkpt>
      <trkpt lat="45.83391" lon="4.68779">
        <ele>275.02019</ele>
        <time>2022-08-09T15:37:43.000Z</time>
      </trkpt>
      <trkpt lat="45.83393" lon="4.68783">
        <ele>275.16293</ele>
        <time>2022-08-09T15:37:44.000Z</time>
      </trkpt>
      <trkpt lat="45.83394" lon="4.68788">
        <ele>275.32196</ele>
        <time>2022-08-09T15:37:45.000Z</time>
      </trkpt>
      <trkpt lat="45.83396" lon="4.68793">
        <ele>275.44561</ele>
        <time>2022-08-09T15:37:46.000Z</time>
      </trkpt>
      <trkpt lat="45.83398" lon="4.68798">
        <ele>275.49598</ele>
        <time>2022-08-09T15:37:47.000Z</time>
      </trkpt>
      <trkpt lat="45.83399" lon="4.68803">
        <ele>275.44232</ele>
        <time>2022-08-09T15:37:48.000Z</time>
      </trkpt>
      <trkpt lat="45.834" lon="4.68809">
        <ele>275.29605</ele>
        <time>2022-08-09T15:37:49.000Z</time>
      </trkpt>
      <trkpt lat="45.83401" lon="4.68814">
        <ele>275.09172</ele>
        <time>2022-08-09T15:37:50.000Z</time>
      </trkpt>
      <trkpt lat="45.83403" lon="4.68824">
        <ele>274.56907</ele>
        <time>2022-08-09T15:37:52.000Z</time>
      </trkpt>
      <trkpt lat="45.83403" lon="4.68828">
        <ele>274.35694</ele>
        <time>2022-08-09T15:37:53.000Z</time>
      </trkpt>
      <trkpt lat="45.83404" lon="4.68831">
        <ele>274.19658</ele>
        <time>2022-08-09T15:37:54.000Z</time>
      </trkpt>
      <trkpt lat="45.83405" lon="4.68834">
        <ele>274.00225</ele>
        <time>2022-08-09T15:37:55.000Z</time>
      </trkpt>
      <trkpt lat="45.83406" lon="4.68837">
        <ele>273.79279</ele>
        <time>2022-08-09T15:37:56.000Z</time>
      </trkpt>
      <trkpt lat="45.83406" lon="4.6884">
        <ele>273.5437</ele>
        <time>2022-08-09T15:37:57.000Z</time>
      </trkpt>
      <trkpt lat="45.83408" lon="4.68848">
        <ele>272.90086</ele>
        <time>2022-08-09T15:37:59.000Z</time>
      </trkpt>
      <trkpt lat="45.83409" lon="4.68852">
        <ele>272.58064</ele>
        <time>2022-08-09T15:38:00.000Z</time>
      </trkpt>
      <trkpt lat="45.8341" lon="4.68857">
        <ele>272.30355</ele>
        <time>2022-08-09T15:38:01.000Z</time>
      </trkpt>
      <trkpt lat="45.83412" lon="4.68861">
        <ele>272.10037</ele>
        <time>2022-08-09T15:38:02.000Z</time>
      </trkpt>
      <trkpt lat="45.83413" lon="4.68865">
        <ele>272.02231</ele>
        <time>2022-08-09T15:38:03.000Z</time>
      </trkpt>
      <trkpt lat="45.83414" lon="4.68871">
        <ele>272.13483</ele>
        <time>2022-08-09T15:38:04.000Z</time>
      </trkpt>
      <trkpt lat="45.83415" lon="4.68876">
        <ele>272.39654</ele>
        <time>2022-08-09T15:38:05.000Z</time>
      </trkpt>
      <trkpt lat="45.83416" lon="4.6888">
        <ele>272.76955</ele>
        <time>2022-08-09T15:38:06.000Z</time>
      </trkpt>
      <trkpt lat="45.83417" lon="4.68885">
        <ele>273.22605</ele>
        <time>2022-08-09T15:38:07.000Z</time>
      </trkpt>
      <trkpt lat="45.83418" lon="4.68891">
        <ele>273.87764</ele>
        <time>2022-08-09T15:38:08.000Z</time>
      </trkpt>
      <trkpt lat="45.83419" lon="4.68897">
        <ele>274.5485</ele>
        <time>2022-08-09T15:38:09.000Z</time>
      </trkpt>
      <trkpt lat="45.8342" lon="4.68901">
        <ele>275.03251</ele>
        <time>2022-08-09T15:38:10.000Z</time>
      </trkpt>
      <trkpt lat="45.83421" lon="4.68904">
        <ele>275.43533</ele>
        <time>2022-08-09T15:38:11.000Z</time>
      </trkpt>
      <trkpt lat="45.83422" lon="4.68907">
        <ele>275.84478</ele>
        <time>2022-08-09T15:38:12.000Z</time>
      </trkpt>
      <trkpt lat="45.83423" lon="4.68911">
        <ele>276.33159</ele>
        <time>2022-08-09T15:38:13.000Z</time>
      </trkpt>
      <trkpt lat="45.83424" lon="4.68915">
        <ele>276.90894</ele>
        <time>2022-08-09T15:38:14.000Z</time>
      </trkpt>
      <trkpt lat="45.83426" lon="4.68919">
        <ele>277.47668</ele>
        <time>2022-08-09T15:38:15.000Z</time>
      </trkpt>
      <trkpt lat="45.83427" lon="4.68923">
        <ele>278.08758</ele>
        <time>2022-08-09T15:38:16.000Z</time>
      </trkpt>
      <trkpt lat="45.83428" lon="4.68927">
        <ele>278.67285</ele>
        <time>2022-08-09T15:38:17.000Z</time>
      </trkpt>
      <trkpt lat="45.83428" lon="4.68932">
        <ele>279.22403</ele>
        <time>2022-08-09T15:38:18.000Z</time>
      </trkpt>
      <trkpt lat="45.83428" lon="4.68937">
        <ele>279.72995</ele>
        <time>2022-08-09T15:38:19.000Z</time>
      </trkpt>
      <trkpt lat="45.83426" lon="4.68941">
        <ele>280.16825</ele>
        <time>2022-08-09T15:38:20.000Z</time>
      </trkpt>
      <trkpt lat="45.83425" lon="4.68946">
        <ele>280.59571</ele>
        <time>2022-08-09T15:38:21.000Z</time>
      </trkpt>
      <trkpt lat="45.83423" lon="4.6895">
        <ele>280.96972</ele>
        <time>2022-08-09T15:38:22.000Z</time>
      </trkpt>
      <trkpt lat="45.83421" lon="4.68954">
        <ele>281.31155</ele>
        <time>2022-08-09T15:38:23.000Z</time>
      </trkpt>
      <trkpt lat="45.83419" lon="4.68958">
        <ele>281.68383</ele>
        <time>2022-08-09T15:38:24.000Z</time>
      </trkpt>
      <trkpt lat="45.83416" lon="4.68962">
        <ele>282.09068</ele>
        <time>2022-08-09T15:38:25.000Z</time>
      </trkpt>
      <trkpt lat="45.83414" lon="4.68966">
        <ele>282.54003</ele>
        <time>2022-08-09T15:38:26.000Z</time>
      </trkpt>
      <trkpt lat="45.83412" lon="4.68974">
        <ele>283.35278</ele>
        <time>2022-08-09T15:38:28.000Z</time>
      </trkpt>
      <trkpt lat="45.8341" lon="4.68979">
        <ele>283.77454</ele>
        <time>2022-08-09T15:38:29.000Z</time>
      </trkpt>
      <trkpt lat="45.83409" lon="4.68984">
        <ele>284.19669</ele>
        <time>2022-08-09T15:38:30.000Z</time>
      </trkpt>
      <trkpt lat="45.83407" lon="4.68989">
        <ele>284.65136</ele>
        <time>2022-08-09T15:38:31.000Z</time>
      </trkpt>
      <trkpt lat="45.83405" lon="4.68994">
        <ele>285.13515</ele>
        <time>2022-08-09T15:38:32.000Z</time>
      </trkpt>
      <trkpt lat="45.83404" lon="4.68999">
        <ele>285.63134</ele>
        <time>2022-08-09T15:38:33.000Z</time>
      </trkpt>
      <trkpt lat="45.83404" lon="4.69004">
        <ele>286.13367</ele>
        <time>2022-08-09T15:38:34.000Z</time>
      </trkpt>
      <trkpt lat="45.83404" lon="4.69008">
        <ele>286.64001</ele>
        <time>2022-08-09T15:38:35.000Z</time>
      </trkpt>
      <trkpt lat="45.83402" lon="4.69013">
        <ele>287.10359</ele>
        <time>2022-08-09T15:38:36.000Z</time>
      </trkpt>
      <trkpt lat="45.83402" lon="4.69016">
        <ele>287.48086</ele>
        <time>2022-08-09T15:38:37.000Z</time>
      </trkpt>
      <trkpt lat="45.83401" lon="4.69019">
        <ele>287.84117</ele>
        <time>2022-08-09T15:38:38.000Z</time>
      </trkpt>
      <trkpt lat="45.834" lon="4.69023">
        <ele>288.23688</ele>
        <time>2022-08-09T15:38:39.000Z</time>
      </trkpt>
      <trkpt lat="45.834" lon="4.69026">
        <ele>288.57383</ele>
        <time>2022-08-09T15:38:40.000Z</time>
      </trkpt>
      <trkpt lat="45.83399" lon="4.69029">
        <ele>288.91414</ele>
        <time>2022-08-09T15:38:41.000Z</time>
      </trkpt>
      <trkpt lat="45.83397" lon="4.69033">
        <ele>289.36404</ele>
        <time>2022-08-09T15:38:42.000Z</time>
      </trkpt>
      <trkpt lat="45.83395" lon="4.69037">
        <ele>289.78801</ele>
        <time>2022-08-09T15:38:43.000Z</time>
      </trkpt>
      <trkpt lat="45.83392" lon="4.6904">
        <ele>290.19349</ele>
        <time>2022-08-09T15:38:44.000Z</time>
      </trkpt>
      <trkpt lat="45.8339" lon="4.69044">
        <ele>290.57077</ele>
        <time>2022-08-09T15:38:45.000Z</time>
      </trkpt>
      <trkpt lat="45.83387" lon="4.69048">
        <ele>290.8836</ele>
        <time>2022-08-09T15:38:46.000Z</time>
      </trkpt>
      <trkpt lat="45.83385" lon="4.69051">
        <ele>291.16717</ele>
        <time>2022-08-09T15:38:47.000Z</time>
      </trkpt>
      <trkpt lat="45.83382" lon="4.69054">
        <ele>291.45044</ele>
        <time>2022-08-09T15:38:48.000Z</time>
      </trkpt>
      <trkpt lat="45.8338" lon="4.69058">
        <ele>291.75291</ele>
        <time>2022-08-09T15:38:49.000Z</time>
      </trkpt>
      <trkpt lat="45.83378" lon="4.69063">
        <ele>292.07411</ele>
        <time>2022-08-09T15:38:50.000Z</time>
      </trkpt>
      <trkpt lat="45.83376" lon="4.69068">
        <ele>292.40772</ele>
        <time>2022-08-09T15:38:51.000Z</time>
      </trkpt>
      <trkpt lat="45.83375" lon="4.69073">
        <ele>292.73206</ele>
        <time>2022-08-09T15:38:52.000Z</time>
      </trkpt>
      <trkpt lat="45.83374" lon="4.69077">
        <ele>293.02289</ele>
        <time>2022-08-09T15:38:53.000Z</time>
      </trkpt>
      <trkpt lat="45.83374" lon="4.69082">
        <ele>293.32627</ele>
        <time>2022-08-09T15:38:54.000Z</time>
      </trkpt>
      <trkpt lat="45.83374" lon="4.69087">
        <ele>293.62865</ele>
        <time>2022-08-09T15:38:55.000Z</time>
      </trkpt>
      <trkpt lat="45.83374" lon="4.69093">
        <ele>293.92898</ele>
        <time>2022-08-09T15:38:56.000Z</time>
      </trkpt>
      <trkpt lat="45.83374" lon="4.69098">
        <ele>294.22504</ele>
        <time>2022-08-09T15:38:57.000Z</time>
      </trkpt>
      <trkpt lat="45.83374" lon="4.69104">
        <ele>294.51248</ele>
        <time>2022-08-09T15:38:58.000Z</time>
      </trkpt>
      <trkpt lat="45.83373" lon="4.69109">
        <ele>294.79334</ele>
        <time>2022-08-09T15:38:59.000Z</time>
      </trkpt>
      <trkpt lat="45.83373" lon="4.69114">
        <ele>295.04592</ele>
        <time>2022-08-09T15:39:00.000Z</time>
      </trkpt>
      <trkpt lat="45.83372" lon="4.69119">
        <ele>295.27042</ele>
        <time>2022-08-09T15:39:01.000Z</time>
      </trkpt>
      <trkpt lat="45.83372" lon="4.69124">
        <ele>295.47737</ele>
        <time>2022-08-09T15:39:02.000Z</time>
      </trkpt>
      <trkpt lat="45.83371" lon="4.6913">
        <ele>295.6764</ele>
        <time>2022-08-09T15:39:03.000Z</time>
      </trkpt>
      <trkpt lat="45.8337" lon="4.69135">
        <ele>295.84679</ele>
        <time>2022-08-09T15:39:04.000Z</time>
      </trkpt>
      <trkpt lat="45.83369" lon="4.6914">
        <ele>296.00555</ele>
        <time>2022-08-09T15:39:05.000Z</time>
      </trkpt>
      <trkpt lat="45.83369" lon="4.69146">
        <ele>296.13621</ele>
        <time>2022-08-09T15:39:06.000Z</time>
      </trkpt>
      <trkpt lat="45.83368" lon="4.69151">
        <ele>296.28118</ele>
        <time>2022-08-09T15:39:07.000Z</time>
      </trkpt>
      <trkpt lat="45.83368" lon="4.69158">
        <ele>296.45314</ele>
        <time>2022-08-09T15:39:08.000Z</time>
      </trkpt>
      <trkpt lat="45.83368" lon="4.69164">
        <ele>296.62474</ele>
        <time>2022-08-09T15:39:09.000Z</time>
      </trkpt>
      <trkpt lat="45.83368" lon="4.69169">
        <ele>296.75768</ele>
        <time>2022-08-09T15:39:10.000Z</time>
      </trkpt>
      <trkpt lat="45.83368" lon="4.69174">
        <ele>296.8826</ele>
        <time>2022-08-09T15:39:11.000Z</time>
      </trkpt>
      <trkpt lat="45.83368" lon="4.69179">
        <ele>297.02847</ele>
        <time>2022-08-09T15:39:12.000Z</time>
      </trkpt>
      <trkpt lat="45.83367" lon="4.69184">
        <ele>297.18735</ele>
        <time>2022-08-09T15:39:13.000Z</time>
      </trkpt>
      <trkpt lat="45.83366" lon="4.6919">
        <ele>297.35057</ele>
        <time>2022-08-09T15:39:14.000Z</time>
      </trkpt>
      <trkpt lat="45.83366" lon="4.69196">
        <ele>297.51651</ele>
        <time>2022-08-09T15:39:15.000Z</time>
      </trkpt>
      <trkpt lat="45.83366" lon="4.69201">
        <ele>297.66237</ele>
        <time>2022-08-09T15:39:16.000Z</time>
      </trkpt>
      <trkpt lat="45.83366" lon="4.69207">
        <ele>297.78643</ele>
        <time>2022-08-09T15:39:17.000Z</time>
      </trkpt>
      <trkpt lat="45.83366" lon="4.69212">
        <ele>297.89761</ele>
        <time>2022-08-09T15:39:18.000Z</time>
      </trkpt>
      <trkpt lat="45.83366" lon="4.69217">
        <ele>297.99416</ele>
        <time>2022-08-09T15:39:19.000Z</time>
      </trkpt>
      <trkpt lat="45.83366" lon="4.69222">
        <ele>298.07063</ele>
        <time>2022-08-09T15:39:20.000Z</time>
      </trkpt>
      <trkpt lat="45.83365" lon="4.69226">
        <ele>298.15395</ele>
        <time>2022-08-09T15:39:21.000Z</time>
      </trkpt>
      <trkpt lat="45.83364" lon="4.6923">
        <ele>298.21886</ele>
        <time>2022-08-09T15:39:22.000Z</time>
      </trkpt>
      <trkpt lat="45.83364" lon="4.69234">
        <ele>298.2692</ele>
        <time>2022-08-09T15:39:23.000Z</time>
      </trkpt>
      <trkpt lat="45.83363" lon="4.6924">
        <ele>298.33527</ele>
        <time>2022-08-09T15:39:25.000Z</time>
      </trkpt>
      <trkpt lat="45.83362" lon="4.69244">
        <ele>298.38009</ele>
        <time>2022-08-09T15:39:26.000Z</time>
      </trkpt>
      <trkpt lat="45.83361" lon="4.69248">
        <ele>298.4297</ele>
        <time>2022-08-09T15:39:27.000Z</time>
      </trkpt>
      <trkpt lat="45.8336" lon="4.69253">
        <ele>298.46822</ele>
        <time>2022-08-09T15:39:28.000Z</time>
      </trkpt>
      <trkpt lat="45.8336" lon="4.69258">
        <ele>298.514</ele>
        <time>2022-08-09T15:39:29.000Z</time>
      </trkpt>
      <trkpt lat="45.83358" lon="4.69264">
        <ele>298.60387</ele>
        <time>2022-08-09T15:39:30.000Z</time>
      </trkpt>
      <trkpt lat="45.83357" lon="4.69269">
        <ele>298.6832</ele>
        <time>2022-08-09T15:39:31.000Z</time>
      </trkpt>
      <trkpt lat="45.83356" lon="4.69272">
        <ele>298.74856</ele>
        <time>2022-08-09T15:39:32.000Z</time>
      </trkpt>
      <trkpt lat="45.83355" lon="4.69276">
        <ele>298.78815</ele>
        <time>2022-08-09T15:39:33.000Z</time>
      </trkpt>
      <trkpt lat="45.83355" lon="4.69279">
        <ele>298.81577</ele>
        <time>2022-08-09T15:39:34.000Z</time>
      </trkpt>
      <trkpt lat="45.83354" lon="4.69282">
        <ele>298.88431</ele>
        <time>2022-08-09T15:39:41.000Z</time>
      </trkpt>
      <trkpt lat="45.83352" lon="4.69282">
        <ele>298.99528</ele>
        <time>2022-08-09T15:45:05.000Z</time>
      </trkpt>
      <trkpt lat="45.83349" lon="4.69281">
        <ele>299.15725</ele>
        <time>2022-08-09T15:45:09.000Z</time>
      </trkpt>
      <trkpt lat="45.83347" lon="4.69281">
        <ele>299.25676</ele>
        <time>2022-08-09T15:45:12.000Z</time>
      </trkpt>
      <trkpt lat="45.83348" lon="4.6928">
        <ele>299.17233</ele>
        <time>2022-08-09T15:45:23.000Z</time>
      </trkpt>
      <trkpt lat="45.8335" lon="4.6928">
        <ele>299.07207</ele>
        <time>2022-08-09T15:45:26.000Z</time>
      </trkpt>
      <trkpt lat="45.83349" lon="4.69283">
        <ele>299.11798</ele>
        <time>2022-08-09T15:45:29.000Z</time>
      </trkpt>
      <trkpt lat="45.83349" lon="4.69287">
        <ele>299.11983</ele>
        <time>2022-08-09T15:45:31.000Z</time>
      </trkpt>
      <trkpt lat="45.83349" lon="4.6929">
        <ele>299.09064</ele>
        <time>2022-08-09T15:45:33.000Z</time>
      </trkpt>
      <trkpt lat="45.8335" lon="4.69292">
        <ele>299.06025</ele>
        <time>2022-08-09T15:45:35.000Z</time>
      </trkpt>
      <trkpt lat="45.8335" lon="4.69297">
        <ele>299.0346</ele>
        <time>2022-08-09T15:45:37.000Z</time>
      </trkpt>
      <trkpt lat="45.83349" lon="4.693">
        <ele>299.02642</ele>
        <time>2022-08-09T15:45:38.000Z</time>
      </trkpt>
      <trkpt lat="45.83349" lon="4.69305">
        <ele>299.00434</ele>
        <time>2022-08-09T15:45:39.000Z</time>
      </trkpt>
      <trkpt lat="45.83349" lon="4.69309">
        <ele>298.95288</ele>
        <time>2022-08-09T15:45:40.000Z</time>
      </trkpt>
      <trkpt lat="45.83348" lon="4.69314">
        <ele>298.89171</ele>
        <time>2022-08-09T15:45:41.000Z</time>
      </trkpt>
      <trkpt lat="45.83348" lon="4.69318">
        <ele>298.81999</ele>
        <time>2022-08-09T15:45:42.000Z</time>
      </trkpt>
      <trkpt lat="45.83348" lon="4.69323">
        <ele>298.71998</ele>
        <time>2022-08-09T15:45:43.000Z</time>
      </trkpt>
      <trkpt lat="45.83348" lon="4.69328">
        <ele>298.5784</ele>
        <time>2022-08-09T15:45:44.000Z</time>
      </trkpt>
      <trkpt lat="45.83348" lon="4.69333">
        <ele>298.40709</ele>
        <time>2022-08-09T15:45:45.000Z</time>
      </trkpt>
      <trkpt lat="45.83348" lon="4.69339">
        <ele>298.23133</ele>
        <time>2022-08-09T15:45:46.000Z</time>
      </trkpt>
      <trkpt lat="45.83348" lon="4.69344">
        <ele>298.08544</ele>
        <time>2022-08-09T15:45:47.000Z</time>
      </trkpt>
      <trkpt lat="45.83348" lon="4.6935">
        <ele>297.97939</ele>
        <time>2022-08-09T15:45:48.000Z</time>
      </trkpt>
      <trkpt lat="45.83348" lon="4.69355">
        <ele>297.86392</ele>
        <time>2022-08-09T15:45:49.000Z</time>
      </trkpt>
      <trkpt lat="45.83347" lon="4.69361">
        <ele>297.769</ele>
        <time>2022-08-09T15:45:50.000Z</time>
      </trkpt>
      <trkpt lat="45.83347" lon="4.69366">
        <ele>297.70915</ele>
        <time>2022-08-09T15:45:51.000Z</time>
      </trkpt>
      <trkpt lat="45.83346" lon="4.69371">
        <ele>297.66955</ele>
        <time>2022-08-09T15:45:52.000Z</time>
      </trkpt>
      <trkpt lat="45.83346" lon="4.69376">
        <ele>297.64244</ele>
        <time>2022-08-09T15:45:53.000Z</time>
      </trkpt>
      <trkpt lat="45.83345" lon="4.69381">
        <ele>297.61317</ele>
        <time>2022-08-09T15:45:54.000Z</time>
      </trkpt>
      <trkpt lat="45.83344" lon="4.69386">
        <ele>297.6298</ele>
        <time>2022-08-09T15:45:55.000Z</time>
      </trkpt>
      <trkpt lat="45.83344" lon="4.69392">
        <ele>297.64756</ele>
        <time>2022-08-09T15:45:56.000Z</time>
      </trkpt>
      <trkpt lat="45.83343" lon="4.69398">
        <ele>297.67971</ele>
        <time>2022-08-09T15:45:57.000Z</time>
      </trkpt>
      <trkpt lat="45.83342" lon="4.69404">
        <ele>297.70367</ele>
        <time>2022-08-09T15:45:58.000Z</time>
      </trkpt>
      <trkpt lat="45.83341" lon="4.6941">
        <ele>297.71143</ele>
        <time>2022-08-09T15:45:59.000Z</time>
      </trkpt>
      <trkpt lat="45.83341" lon="4.69415">
        <ele>297.68216</ele>
        <time>2022-08-09T15:46:00.000Z</time>
      </trkpt>
      <trkpt lat="45.8334" lon="4.6942">
        <ele>297.63885</ele>
        <time>2022-08-09T15:46:01.000Z</time>
      </trkpt>
      <trkpt lat="45.83339" lon="4.69425">
        <ele>297.62489</ele>
        <time>2022-08-09T15:46:02.000Z</time>
      </trkpt>
      <trkpt lat="45.83338" lon="4.69431">
        <ele>297.584</ele>
        <time>2022-08-09T15:46:03.000Z</time>
      </trkpt>
      <trkpt lat="45.83337" lon="4.69436">
        <ele>297.55274</ele>
        <time>2022-08-09T15:46:04.000Z</time>
      </trkpt>
      <trkpt lat="45.83336" lon="4.69441">
        <ele>297.53684</ele>
        <time>2022-08-09T15:46:05.000Z</time>
      </trkpt>
      <trkpt lat="45.83335" lon="4.69446">
        <ele>297.50311</ele>
        <time>2022-08-09T15:46:06.000Z</time>
      </trkpt>
      <trkpt lat="45.83334" lon="4.69452">
        <ele>297.45325</ele>
        <time>2022-08-09T15:46:07.000Z</time>
      </trkpt>
      <trkpt lat="45.83333" lon="4.69457">
        <ele>297.39397</ele>
        <time>2022-08-09T15:46:08.000Z</time>
      </trkpt>
      <trkpt lat="45.83333" lon="4.69462">
        <ele>297.3196</ele>
        <time>2022-08-09T15:46:09.000Z</time>
      </trkpt>
      <trkpt lat="45.83332" lon="4.69468">
        <ele>297.23636</ele>
        <time>2022-08-09T15:46:10.000Z</time>
      </trkpt>
      <trkpt lat="45.83332" lon="4.69473">
        <ele>297.14031</ele>
        <time>2022-08-09T15:46:11.000Z</time>
      </trkpt>
      <trkpt lat="45.83332" lon="4.69479">
        <ele>297.08194</ele>
        <time>2022-08-09T15:46:12.000Z</time>
      </trkpt>
      <trkpt lat="45.83333" lon="4.69484">
        <ele>297.03388</ele>
        <time>2022-08-09T15:46:13.000Z</time>
      </trkpt>
      <trkpt lat="45.83333" lon="4.69489">
        <ele>297.00041</ele>
        <time>2022-08-09T15:46:14.000Z</time>
      </trkpt>
      <trkpt lat="45.83333" lon="4.69495">
        <ele>296.96482</ele>
        <time>2022-08-09T15:46:15.000Z</time>
      </trkpt>
      <trkpt lat="45.83334" lon="4.695">
        <ele>296.91151</ele>
        <time>2022-08-09T15:46:16.000Z</time>
      </trkpt>
      <trkpt lat="45.83335" lon="4.69505">
        <ele>296.84812</ele>
        <time>2022-08-09T15:46:17.000Z</time>
      </trkpt>
      <trkpt lat="45.83336" lon="4.6951">
        <ele>296.78399</ele>
        <time>2022-08-09T15:46:18.000Z</time>
      </trkpt>
      <trkpt lat="45.83337" lon="4.69516">
        <ele>296.7288</ele>
        <time>2022-08-09T15:46:19.000Z</time>
      </trkpt>
      <trkpt lat="45.83337" lon="4.69522">
        <ele>296.67488</ele>
        <time>2022-08-09T15:46:20.000Z</time>
      </trkpt>
      <trkpt lat="45.83338" lon="4.69528">
        <ele>296.59758</ele>
        <time>2022-08-09T15:46:21.000Z</time>
      </trkpt>
      <trkpt lat="45.83339" lon="4.69535">
        <ele>296.52164</ele>
        <time>2022-08-09T15:46:22.000Z</time>
      </trkpt>
      <trkpt lat="45.8334" lon="4.6954">
        <ele>296.43703</ele>
        <time>2022-08-09T15:46:23.000Z</time>
      </trkpt>
      <trkpt lat="45.83341" lon="4.69546">
        <ele>296.35704</ele>
        <time>2022-08-09T15:46:24.000Z</time>
      </trkpt>
      <trkpt lat="45.83341" lon="4.69552">
        <ele>296.28786</ele>
        <time>2022-08-09T15:46:25.000Z</time>
      </trkpt>
      <trkpt lat="45.83342" lon="4.69557">
        <ele>296.20226</ele>
        <time>2022-08-09T15:46:26.000Z</time>
      </trkpt>
      <trkpt lat="45.83343" lon="4.69562">
        <ele>296.12236</ele>
        <time>2022-08-09T15:46:27.000Z</time>
      </trkpt>
      <trkpt lat="45.83344" lon="4.69567">
        <ele>296.04755</ele>
        <time>2022-08-09T15:46:28.000Z</time>
      </trkpt>
      <trkpt lat="45.83344" lon="4.69572">
        <ele>295.97522</ele>
        <time>2022-08-09T15:46:29.000Z</time>
      </trkpt>
      <trkpt lat="45.83345" lon="4.69577">
        <ele>295.89907</ele>
        <time>2022-08-09T15:46:30.000Z</time>
      </trkpt>
      <trkpt lat="45.83346" lon="4.69582">
        <ele>295.82348</ele>
        <time>2022-08-09T15:46:31.000Z</time>
      </trkpt>
      <trkpt lat="45.83346" lon="4.69586">
        <ele>295.75096</ele>
        <time>2022-08-09T15:46:32.000Z</time>
      </trkpt>
      <trkpt lat="45.83348" lon="4.69597">
        <ele>295.59449</ele>
        <time>2022-08-09T15:46:34.000Z</time>
      </trkpt>
      <trkpt lat="45.83349" lon="4.69603">
        <ele>295.52614</ele>
        <time>2022-08-09T15:46:35.000Z</time>
      </trkpt>
      <trkpt lat="45.8335" lon="4.69608">
        <ele>295.48462</ele>
        <time>2022-08-09T15:46:36.000Z</time>
      </trkpt>
      <trkpt lat="45.83351" lon="4.69614">
        <ele>295.47592</ele>
        <time>2022-08-09T15:46:37.000Z</time>
      </trkpt>
      <trkpt lat="45.83352" lon="4.6962">
        <ele>295.49647</ele>
        <time>2022-08-09T15:46:38.000Z</time>
      </trkpt>
      <trkpt lat="45.83353" lon="4.69626">
        <ele>295.53565</ele>
        <time>2022-08-09T15:46:39.000Z</time>
      </trkpt>
      <trkpt lat="45.83354" lon="4.69631">
        <ele>295.56817</ele>
        <time>2022-08-09T15:46:40.000Z</time>
      </trkpt>
      <trkpt lat="45.83355" lon="4.69635">
        <ele>295.56914</ele>
        <time>2022-08-09T15:46:41.000Z</time>
      </trkpt>
      <trkpt lat="45.83356" lon="4.6964">
        <ele>295.56682</ele>
        <time>2022-08-09T15:46:42.000Z</time>
      </trkpt>
      <trkpt lat="45.83357" lon="4.69645">
        <ele>295.56579</ele>
        <time>2022-08-09T15:46:43.000Z</time>
      </trkpt>
      <trkpt lat="45.83358" lon="4.69649">
        <ele>295.57675</ele>
        <time>2022-08-09T15:46:44.000Z</time>
      </trkpt>
      <trkpt lat="45.83359" lon="4.69654">
        <ele>295.58529</ele>
        <time>2022-08-09T15:46:45.000Z</time>
      </trkpt>
      <trkpt lat="45.8336" lon="4.6966">
        <ele>295.61233</ele>
        <time>2022-08-09T15:46:46.000Z</time>
      </trkpt>
      <trkpt lat="45.83361" lon="4.69666">
        <ele>295.6282</ele>
        <time>2022-08-09T15:46:47.000Z</time>
      </trkpt>
      <trkpt lat="45.83362" lon="4.69671">
        <ele>295.64863</ele>
        <time>2022-08-09T15:46:48.000Z</time>
      </trkpt>
      <trkpt lat="45.83363" lon="4.69676">
        <ele>295.64746</ele>
        <time>2022-08-09T15:46:49.000Z</time>
      </trkpt>
      <trkpt lat="45.83364" lon="4.69681">
        <ele>295.62386</ele>
        <time>2022-08-09T15:46:50.000Z</time>
      </trkpt>
      <trkpt lat="45.83365" lon="4.69686">
        <ele>295.5963</ele>
        <time>2022-08-09T15:46:51.000Z</time>
      </trkpt>
      <trkpt lat="45.83366" lon="4.69691">
        <ele>295.58962</ele>
        <time>2022-08-09T15:46:52.000Z</time>
      </trkpt>
      <trkpt lat="45.83367" lon="4.69696">
        <ele>295.58141</ele>
        <time>2022-08-09T15:46:53.000Z</time>
      </trkpt>
      <trkpt lat="45.83368" lon="4.69699">
        <ele>295.57981</ele>
        <time>2022-08-09T15:46:54.000Z</time>
      </trkpt>
      <trkpt lat="45.83369" lon="4.69702">
        <ele>295.5628</ele>
        <time>2022-08-09T15:46:55.000Z</time>
      </trkpt>
      <trkpt lat="45.8337" lon="4.69706">
        <ele>295.53663</ele>
        <time>2022-08-09T15:46:56.000Z</time>
      </trkpt>
      <trkpt lat="45.83371" lon="4.69709">
        <ele>295.52105</ele>
        <time>2022-08-09T15:46:57.000Z</time>
      </trkpt>
      <trkpt lat="45.83373" lon="4.69713">
        <ele>295.5118</ele>
        <time>2022-08-09T15:46:58.000Z</time>
      </trkpt>
      <trkpt lat="45.83374" lon="4.69719">
        <ele>295.54512</ele>
        <time>2022-08-09T15:46:59.000Z</time>
      </trkpt>
      <trkpt lat="45.83374" lon="4.69725">
        <ele>295.60723</ele>
        <time>2022-08-09T15:47:00.000Z</time>
      </trkpt>
      <trkpt lat="45.83375" lon="4.69732">
        <ele>295.66955</ele>
        <time>2022-08-09T15:47:01.000Z</time>
      </trkpt>
      <trkpt lat="45.83376" lon="4.69738">
        <ele>295.72278</ele>
        <time>2022-08-09T15:47:02.000Z</time>
      </trkpt>
      <trkpt lat="45.83377" lon="4.69743">
        <ele>295.76465</ele>
        <time>2022-08-09T15:47:03.000Z</time>
      </trkpt>
      <trkpt lat="45.83378" lon="4.69748">
        <ele>295.81168</ele>
        <time>2022-08-09T15:47:04.000Z</time>
      </trkpt>
      <trkpt lat="45.83379" lon="4.69754">
        <ele>295.87065</ele>
        <time>2022-08-09T15:47:05.000Z</time>
      </trkpt>
      <trkpt lat="45.8338" lon="4.6976">
        <ele>295.93108</ele>
        <time>2022-08-09T15:47:06.000Z</time>
      </trkpt>
      <trkpt lat="45.83381" lon="4.69765">
        <ele>295.99812</ele>
        <time>2022-08-09T15:47:07.000Z</time>
      </trkpt>
      <trkpt lat="45.83382" lon="4.6977">
        <ele>296.05388</ele>
        <time>2022-08-09T15:47:08.000Z</time>
      </trkpt>
      <trkpt lat="45.83383" lon="4.69774">
        <ele>296.11161</ele>
        <time>2022-08-09T15:47:09.000Z</time>
      </trkpt>
      <trkpt lat="45.83384" lon="4.69779">
        <ele>296.16198</ele>
        <time>2022-08-09T15:47:10.000Z</time>
      </trkpt>
      <trkpt lat="45.83385" lon="4.69783">
        <ele>296.18296</ele>
        <time>2022-08-09T15:47:11.000Z</time>
      </trkpt>
      <trkpt lat="45.83386" lon="4.69787">
        <ele>296.21843</ele>
        <time>2022-08-09T15:47:12.000Z</time>
      </trkpt>
      <trkpt lat="45.83386" lon="4.69791">
        <ele>296.25791</ele>
        <time>2022-08-09T15:47:13.000Z</time>
      </trkpt>
      <trkpt lat="45.83387" lon="4.69795">
        <ele>296.29291</ele>
        <time>2022-08-09T15:47:14.000Z</time>
      </trkpt>
      <trkpt lat="45.83388" lon="4.69799">
        <ele>296.32193</ele>
        <time>2022-08-09T15:47:15.000Z</time>
      </trkpt>
      <trkpt lat="45.83389" lon="4.69802">
        <ele>296.35495</ele>
        <time>2022-08-09T15:47:16.000Z</time>
      </trkpt>
      <trkpt lat="45.83389" lon="4.69807">
        <ele>296.37948</ele>
        <time>2022-08-09T15:47:17.000Z</time>
      </trkpt>
      <trkpt lat="45.8339" lon="4.69811">
        <ele>296.40924</ele>
        <time>2022-08-09T15:47:18.000Z</time>
      </trkpt>
      <trkpt lat="45.83391" lon="4.69815">
        <ele>296.43415</ele>
        <time>2022-08-09T15:47:19.000Z</time>
      </trkpt>
      <trkpt lat="45.83392" lon="4.6982">
        <ele>296.45424</ele>
        <time>2022-08-09T15:47:20.000Z</time>
      </trkpt>
      <trkpt lat="45.83394" lon="4.6983">
        <ele>296.58181</ele>
        <time>2022-08-09T15:47:22.000Z</time>
      </trkpt>
      <trkpt lat="45.83394" lon="4.69834">
        <ele>296.68541</ele>
        <time>2022-08-09T15:47:23.000Z</time>
      </trkpt>
      <trkpt lat="45.83395" lon="4.69839">
        <ele>296.79836</ele>
        <time>2022-08-09T15:47:24.000Z</time>
      </trkpt>
      <trkpt lat="45.83396" lon="4.69845">
        <ele>296.94363</ele>
        <time>2022-08-09T15:47:26.000Z</time>
      </trkpt>
      <trkpt lat="45.83397" lon="4.6985">
        <ele>297.07993</ele>
        <time>2022-08-09T15:47:28.000Z</time>
      </trkpt>
      <trkpt lat="45.83396" lon="4.69853">
        <ele>297.20016</ele>
        <time>2022-08-09T15:47:29.000Z</time>
      </trkpt>
      <trkpt lat="45.83396" lon="4.69858">
        <ele>297.34582</ele>
        <time>2022-08-09T15:47:30.000Z</time>
      </trkpt>
      <trkpt lat="45.83396" lon="4.69863">
        <ele>297.48576</ele>
        <time>2022-08-09T15:47:31.000Z</time>
      </trkpt>
      <trkpt lat="45.83395" lon="4.69867">
        <ele>297.6038</ele>
        <time>2022-08-09T15:47:32.000Z</time>
      </trkpt>
      <trkpt lat="45.83393" lon="4.69872">
        <ele>297.72021</ele>
        <time>2022-08-09T15:47:33.000Z</time>
      </trkpt>
      <trkpt lat="45.83391" lon="4.69876">
        <ele>297.84615</ele>
        <time>2022-08-09T15:47:34.000Z</time>
      </trkpt>
      <trkpt lat="45.83388" lon="4.6988">
        <ele>297.96552</ele>
        <time>2022-08-09T15:47:35.000Z</time>
      </trkpt>
      <trkpt lat="45.83387" lon="4.69885">
        <ele>298.07284</ele>
        <time>2022-08-09T15:47:36.000Z</time>
      </trkpt>
      <trkpt lat="45.83386" lon="4.6989">
        <ele>298.14893</ele>
        <time>2022-08-09T15:47:37.000Z</time>
      </trkpt>
      <trkpt lat="45.83386" lon="4.69902">
        <ele>298.26538</ele>
        <time>2022-08-09T15:47:39.000Z</time>
      </trkpt>
      <trkpt lat="45.83391" lon="4.69912">
        <ele>298.32021</ele>
        <time>2022-08-09T15:47:41.000Z</time>
      </trkpt>
      <trkpt lat="45.83394" lon="4.69917">
        <ele>298.28726</ele>
        <time>2022-08-09T15:47:42.000Z</time>
      </trkpt>
      <trkpt lat="45.83397" lon="4.69921">
        <ele>298.1622</ele>
        <time>2022-08-09T15:47:43.000Z</time>
      </trkpt>
      <trkpt lat="45.83404" lon="4.69924">
        <ele>297.65906</ele>
        <time>2022-08-09T15:47:44.000Z</time>
      </trkpt>
      <trkpt lat="45.83405" lon="4.69932">
        <ele>297.60154</ele>
        <time>2022-08-09T15:47:45.000Z</time>
      </trkpt>
      <trkpt lat="45.83405" lon="4.69939">
        <ele>297.60863</ele>
        <time>2022-08-09T15:47:46.000Z</time>
      </trkpt>
      <trkpt lat="45.83405" lon="4.69945">
        <ele>297.6305</ele>
        <time>2022-08-09T15:47:47.000Z</time>
      </trkpt>
      <trkpt lat="45.83405" lon="4.6995">
        <ele>297.66822</ele>
        <time>2022-08-09T15:47:48.000Z</time>
      </trkpt>
      <trkpt lat="45.83404" lon="4.69958">
        <ele>297.75503</ele>
        <time>2022-08-09T15:47:49.000Z</time>
      </trkpt>
      <trkpt lat="45.83403" lon="4.69963">
        <ele>297.93326</ele>
        <time>2022-08-09T15:47:50.000Z</time>
      </trkpt>
      <trkpt lat="45.83403" lon="4.69966">
        <ele>298.11948</ele>
        <time>2022-08-09T15:47:51.000Z</time>
      </trkpt>
      <trkpt lat="45.83402" lon="4.69971">
        <ele>298.33219</ele>
        <time>2022-08-09T15:47:52.000Z</time>
      </trkpt>
      <trkpt lat="45.83401" lon="4.69975">
        <ele>298.57654</ele>
        <time>2022-08-09T15:47:53.000Z</time>
      </trkpt>
      <trkpt lat="45.834" lon="4.69979">
        <ele>298.86326</ele>
        <time>2022-08-09T15:47:54.000Z</time>
      </trkpt>
      <trkpt lat="45.834" lon="4.69985">
        <ele>299.13575</ele>
        <time>2022-08-09T15:47:55.000Z</time>
      </trkpt>
      <trkpt lat="45.83399" lon="4.6999">
        <ele>299.48327</ele>
        <time>2022-08-09T15:47:56.000Z</time>
      </trkpt>
      <trkpt lat="45.83398" lon="4.69995">
        <ele>299.74079</ele>
        <time>2022-08-09T15:47:57.000Z</time>
      </trkpt>
      <trkpt lat="45.83398" lon="4.70001">
        <ele>299.9558</ele>
        <time>2022-08-09T15:47:58.000Z</time>
      </trkpt>
      <trkpt lat="45.83398" lon="4.70006">
        <ele>300.13858</ele>
        <time>2022-08-09T15:47:59.000Z</time>
      </trkpt>
      <trkpt lat="45.83396" lon="4.70016">
        <ele>300.49551</ele>
        <time>2022-08-09T15:48:01.000Z</time>
      </trkpt>
      <trkpt lat="45.83396" lon="4.70021">
        <ele>300.65222</ele>
        <time>2022-08-09T15:48:02.000Z</time>
      </trkpt>
      <trkpt lat="45.83395" lon="4.70026">
        <ele>300.79688</ele>
        <time>2022-08-09T15:48:03.000Z</time>
      </trkpt>
      <trkpt lat="45.83395" lon="4.70031">
        <ele>300.9118</ele>
        <time>2022-08-09T15:48:04.000Z</time>
      </trkpt>
      <trkpt lat="45.83394" lon="4.70036">
        <ele>301.00264</ele>
        <time>2022-08-09T15:48:05.000Z</time>
      </trkpt>
      <trkpt lat="45.83394" lon="4.70041">
        <ele>301.08947</ele>
        <time>2022-08-09T15:48:06.000Z</time>
      </trkpt>
      <trkpt lat="45.83393" lon="4.70046">
        <ele>301.17823</ele>
        <time>2022-08-09T15:48:07.000Z</time>
      </trkpt>
      <trkpt lat="45.83393" lon="4.70051">
        <ele>301.30002</ele>
        <time>2022-08-09T15:48:08.000Z</time>
      </trkpt>
      <trkpt lat="45.83392" lon="4.70056">
        <ele>301.46763</ele>
        <time>2022-08-09T15:48:09.000Z</time>
      </trkpt>
      <trkpt lat="45.83391" lon="4.70062">
        <ele>301.6992</ele>
        <time>2022-08-09T15:48:10.000Z</time>
      </trkpt>
      <trkpt lat="45.83391" lon="4.70068">
        <ele>301.98321</ele>
        <time>2022-08-09T15:48:11.000Z</time>
      </trkpt>
      <trkpt lat="45.8339" lon="4.70079">
        <ele>302.63034</ele>
        <time>2022-08-09T15:48:13.000Z</time>
      </trkpt>
      <trkpt lat="45.8339" lon="4.70085">
        <ele>302.93351</ele>
        <time>2022-08-09T15:48:14.000Z</time>
      </trkpt>
      <trkpt lat="45.83389" lon="4.70091">
        <ele>303.14609</ele>
        <time>2022-08-09T15:48:15.000Z</time>
      </trkpt>
      <trkpt lat="45.83388" lon="4.70097">
        <ele>303.23393</ele>
        <time>2022-08-09T15:48:16.000Z</time>
      </trkpt>
      <trkpt lat="45.83388" lon="4.70103">
        <ele>303.24979</ele>
        <time>2022-08-09T15:48:17.000Z</time>
      </trkpt>
      <trkpt lat="45.83387" lon="4.70109">
        <ele>303.23286</ele>
        <time>2022-08-09T15:48:18.000Z</time>
      </trkpt>
      <trkpt lat="45.83386" lon="4.70115">
        <ele>303.22005</ele>
        <time>2022-08-09T15:48:19.000Z</time>
      </trkpt>
      <trkpt lat="45.83385" lon="4.7012">
        <ele>303.28361</ele>
        <time>2022-08-09T15:48:20.000Z</time>
      </trkpt>
      <trkpt lat="45.83384" lon="4.70126">
        <ele>303.47381</ele>
        <time>2022-08-09T15:48:21.000Z</time>
      </trkpt>
      <trkpt lat="45.83383" lon="4.70132">
        <ele>303.73519</ele>
        <time>2022-08-09T15:48:22.000Z</time>
      </trkpt>
      <trkpt lat="45.83382" lon="4.70139">
        <ele>304.05343</ele>
        <time>2022-08-09T15:48:23.000Z</time>
      </trkpt>
      <trkpt lat="45.8338" lon="4.70145">
        <ele>304.29436</ele>
        <time>2022-08-09T15:48:24.000Z</time>
      </trkpt>
      <trkpt lat="45.83378" lon="4.70151">
        <ele>304.43764</ele>
        <time>2022-08-09T15:48:25.000Z</time>
      </trkpt>
      <trkpt lat="45.83376" lon="4.70157">
        <ele>304.42278</ele>
        <time>2022-08-09T15:48:26.000Z</time>
      </trkpt>
      <trkpt lat="45.83375" lon="4.70163">
        <ele>304.29614</ele>
        <time>2022-08-09T15:48:27.000Z</time>
      </trkpt>
      <trkpt lat="45.83373" lon="4.70171">
        <ele>304.02322</ele>
        <time>2022-08-09T15:48:28.000Z</time>
      </trkpt>
      <trkpt lat="45.83371" lon="4.70176">
        <ele>303.87091</ele>
        <time>2022-08-09T15:48:29.000Z</time>
      </trkpt>
      <trkpt lat="45.83369" lon="4.70182">
        <ele>303.72327</ele>
        <time>2022-08-09T15:48:30.000Z</time>
      </trkpt>
      <trkpt lat="45.83367" lon="4.70188">
        <ele>303.689</ele>
        <time>2022-08-09T15:48:31.000Z</time>
      </trkpt>
      <trkpt lat="45.83365" lon="4.70194">
        <ele>303.74566</ele>
        <time>2022-08-09T15:48:32.000Z</time>
      </trkpt>
      <trkpt lat="45.83363" lon="4.70201">
        <ele>303.85223</ele>
        <time>2022-08-09T15:48:33.000Z</time>
      </trkpt>
      <trkpt lat="45.8336" lon="4.70212">
        <ele>304.07668</ele>
        <time>2022-08-09T15:48:35.000Z</time>
      </trkpt>
      <trkpt lat="45.83358" lon="4.70218">
        <ele>304.19745</ele>
        <time>2022-08-09T15:48:36.000Z</time>
      </trkpt>
      <trkpt lat="45.83355" lon="4.70223">
        <ele>304.29501</ele>
        <time>2022-08-09T15:48:37.000Z</time>
      </trkpt>
      <trkpt lat="45.83353" lon="4.70229">
        <ele>304.34271</ele>
        <time>2022-08-09T15:48:38.000Z</time>
      </trkpt>
      <trkpt lat="45.83349" lon="4.70242">
        <ele>304.22596</ele>
        <time>2022-08-09T15:48:40.000Z</time>
      </trkpt>
      <trkpt lat="45.83346" lon="4.70248">
        <ele>304.16128</ele>
        <time>2022-08-09T15:48:41.000Z</time>
      </trkpt>
      <trkpt lat="45.83344" lon="4.70255">
        <ele>304.14718</ele>
        <time>2022-08-09T15:48:42.000Z</time>
      </trkpt>
      <trkpt lat="45.83341" lon="4.70261">
        <ele>304.26734</ele>
        <time>2022-08-09T15:48:43.000Z</time>
      </trkpt>
      <trkpt lat="45.83339" lon="4.70267">
        <ele>304.40488</ele>
        <time>2022-08-09T15:48:44.000Z</time>
      </trkpt>
      <trkpt lat="45.83336" lon="4.70272">
        <ele>304.59992</ele>
        <time>2022-08-09T15:48:45.000Z</time>
      </trkpt>
      <trkpt lat="45.83334" lon="4.70279">
        <ele>304.66861</ele>
        <time>2022-08-09T15:48:46.000Z</time>
      </trkpt>
      <trkpt lat="45.83332" lon="4.70286">
        <ele>304.7316</ele>
        <time>2022-08-09T15:48:47.000Z</time>
      </trkpt>
      <trkpt lat="45.8333" lon="4.70293">
        <ele>304.70831</ele>
        <time>2022-08-09T15:48:48.000Z</time>
      </trkpt>
      <trkpt lat="45.83329" lon="4.70299">
        <ele>304.61773</ele>
        <time>2022-08-09T15:48:49.000Z</time>
      </trkpt>
      <trkpt lat="45.83327" lon="4.70307">
        <ele>304.49663</ele>
        <time>2022-08-09T15:48:50.000Z</time>
      </trkpt>
      <trkpt lat="45.83326" lon="4.70314">
        <ele>304.43064</ele>
        <time>2022-08-09T15:48:51.000Z</time>
      </trkpt>
      <trkpt lat="45.83324" lon="4.7032">
        <ele>304.44341</ele>
        <time>2022-08-09T15:48:52.000Z</time>
      </trkpt>
      <trkpt lat="45.83322" lon="4.70325">
        <ele>304.49469</ele>
        <time>2022-08-09T15:48:53.000Z</time>
      </trkpt>
      <trkpt lat="45.83321" lon="4.7033">
        <ele>304.56713</ele>
        <time>2022-08-09T15:48:54.000Z</time>
      </trkpt>
      <trkpt lat="45.8332" lon="4.70334">
        <ele>304.65376</ele>
        <time>2022-08-09T15:48:55.000Z</time>
      </trkpt>
      <trkpt lat="45.8332" lon="4.7034">
        <ele>304.73662</ele>
        <time>2022-08-09T15:48:56.000Z</time>
      </trkpt>
      <trkpt lat="45.83321" lon="4.70342">
        <ele>304.75191</ele>
        <time>2022-08-09T15:48:57.000Z</time>
      </trkpt>
      <trkpt lat="45.83322" lon="4.70347">
        <ele>304.79305</ele>
        <time>2022-08-09T15:48:58.000Z</time>
      </trkpt>
      <trkpt lat="45.83322" lon="4.70352">
        <ele>304.85144</ele>
        <time>2022-08-09T15:48:59.000Z</time>
      </trkpt>
      <trkpt lat="45.83324" lon="4.70357">
        <ele>304.90325</ele>
        <time>2022-08-09T15:49:00.000Z</time>
      </trkpt>
      <trkpt lat="45.83325" lon="4.70362">
        <ele>304.95991</ele>
        <time>2022-08-09T15:49:01.000Z</time>
      </trkpt>
      <trkpt lat="45.83325" lon="4.70368">
        <ele>305.02865</ele>
        <time>2022-08-09T15:49:02.000Z</time>
      </trkpt>
      <trkpt lat="45.83327" lon="4.70378">
        <ele>305.18388</ele>
        <time>2022-08-09T15:49:04.000Z</time>
      </trkpt>
      <trkpt lat="45.83328" lon="4.70384">
        <ele>305.25341</ele>
        <time>2022-08-09T15:49:05.000Z</time>
      </trkpt>
      <trkpt lat="45.83329" lon="4.70391">
        <ele>305.30249</ele>
        <time>2022-08-09T15:49:06.000Z</time>
      </trkpt>
      <trkpt lat="45.8333" lon="4.70397">
        <ele>305.3427</ele>
        <time>2022-08-09T15:49:07.000Z</time>
      </trkpt>
      <trkpt lat="45.83331" lon="4.70403">
        <ele>305.39433</ele>
        <time>2022-08-09T15:49:08.000Z</time>
      </trkpt>
      <trkpt lat="45.83332" lon="4.70409">
        <ele>305.46675</ele>
        <time>2022-08-09T15:49:09.000Z</time>
      </trkpt>
      <trkpt lat="45.83334" lon="4.70421">
        <ele>305.51714</ele>
        <time>2022-08-09T15:49:11.000Z</time>
      </trkpt>
      <trkpt lat="45.83335" lon="4.70427">
        <ele>305.57781</ele>
        <time>2022-08-09T15:49:12.000Z</time>
      </trkpt>
      <trkpt lat="45.83335" lon="4.70435">
        <ele>305.69833</ele>
        <time>2022-08-09T15:49:13.000Z</time>
      </trkpt>
      <trkpt lat="45.83336" lon="4.70441">
        <ele>305.72451</ele>
        <time>2022-08-09T15:49:14.000Z</time>
      </trkpt>
      <trkpt lat="45.83338" lon="4.70446">
        <ele>305.65301</ele>
        <time>2022-08-09T15:49:15.000Z</time>
      </trkpt>
      <trkpt lat="45.83339" lon="4.70452">
        <ele>305.68559</ele>
        <time>2022-08-09T15:49:16.000Z</time>
      </trkpt>
      <trkpt lat="45.8334" lon="4.70458">
        <ele>305.67569</ele>
        <time>2022-08-09T15:49:17.000Z</time>
      </trkpt>
      <trkpt lat="45.8334" lon="4.70465">
        <ele>305.77662</ele>
        <time>2022-08-09T15:49:18.000Z</time>
      </trkpt>
      <trkpt lat="45.8334" lon="4.70472">
        <ele>305.83911</ele>
        <time>2022-08-09T15:49:19.000Z</time>
      </trkpt>
      <trkpt lat="45.83342" lon="4.70488">
        <ele>305.98851</ele>
        <time>2022-08-09T15:49:21.000Z</time>
      </trkpt>
      <trkpt lat="45.83342" lon="4.70495">
        <ele>306.03189</ele>
        <time>2022-08-09T15:49:22.000Z</time>
      </trkpt>
      <trkpt lat="45.83342" lon="4.70504">
        <ele>306.11237</ele>
        <time>2022-08-09T15:49:23.000Z</time>
      </trkpt>
      <trkpt lat="45.83343" lon="4.70511">
        <ele>306.14685</ele>
        <time>2022-08-09T15:49:24.000Z</time>
      </trkpt>
      <trkpt lat="45.83344" lon="4.70519">
        <ele>306.09467</ele>
        <time>2022-08-09T15:49:25.000Z</time>
      </trkpt>
      <trkpt lat="45.83344" lon="4.70526">
        <ele>306.04616</ele>
        <time>2022-08-09T15:49:26.000Z</time>
      </trkpt>
      <trkpt lat="45.83345" lon="4.70541">
        <ele>306.05717</ele>
        <time>2022-08-09T15:49:28.000Z</time>
      </trkpt>
      <trkpt lat="45.83345" lon="4.70549">
        <ele>306.10669</ele>
        <time>2022-08-09T15:49:29.000Z</time>
      </trkpt>
      <trkpt lat="45.83345" lon="4.70563">
        <ele>306.3289</ele>
        <time>2022-08-09T15:49:31.000Z</time>
      </trkpt>
      <trkpt lat="45.83346" lon="4.70571">
        <ele>306.39895</ele>
        <time>2022-08-09T15:49:32.000Z</time>
      </trkpt>
      <trkpt lat="45.83346" lon="4.70578">
        <ele>306.46765</ele>
        <time>2022-08-09T15:49:33.000Z</time>
      </trkpt>
      <trkpt lat="45.83349" lon="4.70593">
        <ele>306.55513</ele>
        <time>2022-08-09T15:49:35.000Z</time>
      </trkpt>
      <trkpt lat="45.83349" lon="4.70601">
        <ele>306.63452</ele>
        <time>2022-08-09T15:49:36.000Z</time>
      </trkpt>
      <trkpt lat="45.83349" lon="4.70608">
        <ele>306.67696</ele>
        <time>2022-08-09T15:49:37.000Z</time>
      </trkpt>
      <trkpt lat="45.83349" lon="4.70616">
        <ele>306.68169</ele>
        <time>2022-08-09T15:49:38.000Z</time>
      </trkpt>
      <trkpt lat="45.83349" lon="4.70632">
        <ele>306.7231</ele>
        <time>2022-08-09T15:49:40.000Z</time>
      </trkpt>
      <trkpt lat="45.83347" lon="4.70641">
        <ele>306.9256</ele>
        <time>2022-08-09T15:49:41.000Z</time>
      </trkpt>
      <trkpt lat="45.83347" lon="4.70648">
        <ele>307.14661</ele>
        <time>2022-08-09T15:49:42.000Z</time>
      </trkpt>
      <trkpt lat="45.83346" lon="4.70655">
        <ele>307.4358</ele>
        <time>2022-08-09T15:49:43.000Z</time>
      </trkpt>
      <trkpt lat="45.83346" lon="4.70666">
        <ele>307.79844</ele>
        <time>2022-08-09T15:49:44.000Z</time>
      </trkpt>
      <trkpt lat="45.83345" lon="4.70676">
        <ele>308.12219</ele>
        <time>2022-08-09T15:49:45.000Z</time>
      </trkpt>
      <trkpt lat="45.83344" lon="4.70685">
        <ele>308.4302</ele>
        <time>2022-08-09T15:49:46.000Z</time>
      </trkpt>
      <trkpt lat="45.83344" lon="4.70692">
        <ele>308.65668</ele>
        <time>2022-08-09T15:49:47.000Z</time>
      </trkpt>
      <trkpt lat="45.83342" lon="4.70699">
        <ele>308.86673</ele>
        <time>2022-08-09T15:49:48.000Z</time>
      </trkpt>
      <trkpt lat="45.83342" lon="4.70706">
        <ele>308.97347</ele>
        <time>2022-08-09T15:49:49.000Z</time>
      </trkpt>
      <trkpt lat="45.83341" lon="4.70713">
        <ele>309.02276</ele>
        <time>2022-08-09T15:49:50.000Z</time>
      </trkpt>
      <trkpt lat="45.8334" lon="4.70721">
        <ele>308.98919</ele>
        <time>2022-08-09T15:49:51.000Z</time>
      </trkpt>
      <trkpt lat="45.8334" lon="4.70729">
        <ele>308.92328</ele>
        <time>2022-08-09T15:49:52.000Z</time>
      </trkpt>
      <trkpt lat="45.83339" lon="4.70736">
        <ele>308.89474</ele>
        <time>2022-08-09T15:49:53.000Z</time>
      </trkpt>
      <trkpt lat="45.83338" lon="4.70744">
        <ele>308.85907</ele>
        <time>2022-08-09T15:49:54.000Z</time>
      </trkpt>
      <trkpt lat="45.83338" lon="4.70752">
        <ele>308.812</ele>
        <time>2022-08-09T15:49:55.000Z</time>
      </trkpt>
      <trkpt lat="45.83337" lon="4.70761">
        <ele>308.74816</ele>
        <time>2022-08-09T15:49:56.000Z</time>
      </trkpt>
      <trkpt lat="45.83336" lon="4.70769">
        <ele>308.66556</ele>
        <time>2022-08-09T15:49:57.000Z</time>
      </trkpt>
      <trkpt lat="45.83336" lon="4.70778">
        <ele>308.56571</ele>
        <time>2022-08-09T15:49:58.000Z</time>
      </trkpt>
      <trkpt lat="45.83336" lon="4.70794">
        <ele>308.36683</ele>
        <time>2022-08-09T15:50:00.000Z</time>
      </trkpt>
      <trkpt lat="45.83335" lon="4.70802">
        <ele>308.26485</ele>
        <time>2022-08-09T15:50:01.000Z</time>
      </trkpt>
      <trkpt lat="45.83335" lon="4.70811">
        <ele>308.1295</ele>
        <time>2022-08-09T15:50:02.000Z</time>
      </trkpt>
      <trkpt lat="45.83336" lon="4.70819">
        <ele>307.98794</ele>
        <time>2022-08-09T15:50:03.000Z</time>
      </trkpt>
      <trkpt lat="45.83336" lon="4.70825">
        <ele>307.84812</ele>
        <time>2022-08-09T15:50:04.000Z</time>
      </trkpt>
      <trkpt lat="45.83336" lon="4.70833">
        <ele>307.71343</ele>
        <time>2022-08-09T15:50:05.000Z</time>
      </trkpt>
      <trkpt lat="45.83336" lon="4.70841">
        <ele>307.57148</ele>
        <time>2022-08-09T15:50:06.000Z</time>
      </trkpt>
      <trkpt lat="45.83335" lon="4.70848">
        <ele>307.50172</ele>
        <time>2022-08-09T15:50:07.000Z</time>
      </trkpt>
      <trkpt lat="45.83334" lon="4.70855">
        <ele>307.37484</ele>
        <time>2022-08-09T15:50:08.000Z</time>
      </trkpt>
      <trkpt lat="45.83334" lon="4.70863">
        <ele>307.24675</ele>
        <time>2022-08-09T15:50:09.000Z</time>
      </trkpt>
      <trkpt lat="45.83332" lon="4.70868">
        <ele>307.16899</ele>
        <time>2022-08-09T15:50:10.000Z</time>
      </trkpt>
      <trkpt lat="45.83331" lon="4.70877">
        <ele>306.97072</ele>
        <time>2022-08-09T15:50:11.000Z</time>
      </trkpt>
      <trkpt lat="45.83332" lon="4.70884">
        <ele>306.75225</ele>
        <time>2022-08-09T15:50:12.000Z</time>
      </trkpt>
      <trkpt lat="45.83331" lon="4.70891">
        <ele>306.59976</ele>
        <time>2022-08-09T15:50:13.000Z</time>
      </trkpt>
      <trkpt lat="45.8333" lon="4.70894">
        <ele>306.62975</ele>
        <time>2022-08-09T15:50:14.000Z</time>
      </trkpt>
      <trkpt lat="45.83329" lon="4.70898">
        <ele>306.56752</ele>
        <time>2022-08-09T15:50:15.000Z</time>
      </trkpt>
      <trkpt lat="45.8333" lon="4.70904">
        <ele>306.4962</ele>
        <time>2022-08-09T15:50:16.000Z</time>
      </trkpt>
      <trkpt lat="45.83327" lon="4.70907">
        <ele>306.59802</ele>
        <time>2022-08-09T15:50:17.000Z</time>
      </trkpt>
      <trkpt lat="45.83324" lon="4.70908">
        <ele>306.73482</ele>
        <time>2022-08-09T15:50:18.000Z</time>
      </trkpt>
      <trkpt lat="45.83322" lon="4.70908">
        <ele>306.91168</ele>
        <time>2022-08-09T15:50:19.000Z</time>
      </trkpt>
      <trkpt lat="45.8332" lon="4.70907">
        <ele>307.05833</ele>
        <time>2022-08-09T15:50:20.000Z</time>
      </trkpt>
      <trkpt lat="45.83322" lon="4.70908">
        <ele>306.89853</ele>
        <time>2022-08-09T15:50:28.000Z</time>
      </trkpt>
      <trkpt lat="45.8332" lon="4.70911">
        <ele>306.9858</ele>
        <time>2022-08-09T15:50:32.000Z</time>
      </trkpt>
      <trkpt lat="45.83318" lon="4.7091">
        <ele>307.1477</ele>
        <time>2022-08-09T15:50:35.000Z</time>
      </trkpt>
      <trkpt lat="45.83316" lon="4.70911">
        <ele>307.25766</ele>
        <time>2022-08-09T15:50:37.000Z</time>
      </trkpt>
      <trkpt lat="45.83314" lon="4.7091">
        <ele>307.41624</ele>
        <time>2022-08-09T15:50:39.000Z</time>
      </trkpt>
      <trkpt lat="45.83311" lon="4.70909">
        <ele>307.62027</ele>
        <time>2022-08-09T15:50:41.000Z</time>
      </trkpt>
      <trkpt lat="45.83309" lon="4.70909">
        <ele>307.73117</ele>
        <time>2022-08-09T15:50:43.000Z</time>
      </trkpt>
      <trkpt lat="45.83307" lon="4.70906">
        <ele>307.87527</ele>
        <time>2022-08-09T15:51:19.000Z</time>
      </trkpt>
      <trkpt lat="45.83306" lon="4.70905">
        <ele>308.00311</ele>
        <time>2022-08-09T15:51:21.000Z</time>
      </trkpt>
    </trkseg>
  </trk>
</gpx>